Darstellungsparameter: Aktuell verwendete Einstellungen:
Skalierung der Graphiken ... ?
xyx+y,   Skalierungsfaktor:      Skalierung: Modus: x, Faktor: 1
Darstellungszeitraum ... ?
Vom - - bis: - -   Zeitraum: 04.10.2020 - 03.11.2020
Min/Max/Avg-Anzeige ... ?
Zeige MMA aktuell
Zeige MMA Monat
Zeige MMA alles
Zeige --A aktuell
Zeige --A Monat
Zeige --A alles
Keine MMA-Anzeige
MMA:
Average (ber die Originaldaten)
MMA-Basis: 23.02.2003 - 30.09.2020
Quicknavigation für Darstellung... ?
Tage:      1T, 2T, 3T, 5T -1T -2T -3T -5T +1T +2T +3T +5T
Wochen: 1W, 2W, 3W -1W -2W -3W +1W +2W +3W
Monate: 1M, 3M, 6M -1M -3M -6M +1M +3M +6M
Jahre:    1J, 3J, 5J, 10J -1J -3J -5J -10J +1J +3J +5J +10J
Nutze für die Darstellung ... ?
Originaldaten oder Mittelwerte auf ...
Stundenbasis Tagesbasis Wochenbasis
Monatsbasis Jahresbasis      Datenbasis: Original-Daten
Darstellen als:
Statistik (Auto) Statistik J:M      Darstellung:
Zur Graphik,    zurück zur Übersicht aller Sensoren.
 
Tabellarische Datenbersicht: ?
 
Sensor: Nr:Datum:Temp:Abs-Feuchte:Windchill:Wind:
Aussen-T/F 1 04-10-2020 00:00:00 11.1 C 9.07 g/m*3 11.1 C 1.6 km/h
2 04-10-2020 00:05:00 11 C 9.11 g/m*3 10.52 C 6.4 km/h
3 04-10-2020 00:10:00 10.9 C 9.05 g/m*3 10.9 C 1.6 km/h
4 04-10-2020 00:15:00 10.9 C 8.95 g/m*3 10.9 C 4.8 km/h
5 04-10-2020 00:20:00 10.7 C 8.84 g/m*3 10.7 C 3.2 km/h
6 04-10-2020 00:25:00 10.6 C 8.88 g/m*3 10.6 C 3.2 km/h
7 04-10-2020 00:30:00 10.4 C 8.77 g/m*3 10.4 C 0 km/h
8 04-10-2020 00:35:00 10.3 C 8.71 g/m*3 10.3 C 0 km/h
9 04-10-2020 00:40:00 10.3 C 8.81 g/m*3 10.3 C 3.2 km/h
10 04-10-2020 00:45:00 10.5 C 9.02 g/m*3 10.5 C 3.2 km/h
11 04-10-2020 00:50:00 10.6 C 9.08 g/m*3 10.6 C 3.2 km/h
12 04-10-2020 00:55:00 10.7 C 9.13 g/m*3 10.7 C 1.6 km/h
13 04-10-2020 01:00:00 10.7 C 9.13 g/m*3 10.7 C 1.6 km/h
14 04-10-2020 01:05:00 10.7 C 9.13 g/m*3 10.7 C 1.6 km/h
15 04-10-2020 01:10:00 10.7 C 9.13 g/m*3 10.7 C 1.6 km/h
16 04-10-2020 01:15:00 10.6 C 9.08 g/m*3 10.6 C 3.2 km/h
17 04-10-2020 01:20:00 10.7 C 9.13 g/m*3 10.7 C 0 km/h
18 04-10-2020 01:25:00 10.7 C 9.13 g/m*3 10.7 C 0 km/h
19 04-10-2020 01:30:00 10.6 C 9.08 g/m*3 10.6 C 0 km/h
20 04-10-2020 01:35:00 10.6 C 9.08 g/m*3 10.6 C 0 km/h
21 04-10-2020 01:40:00 10.5 C 9.12 g/m*3 10.5 C 0 km/h
22 04-10-2020 01:45:00 10.6 C 9.17 g/m*3 10.6 C 4.8 km/h
23 04-10-2020 01:50:00 10.6 C 9.17 g/m*3 10.6 C 1.6 km/h
24 04-10-2020 01:55:00 10.6 C 9.17 g/m*3 10.6 C 0 km/h
25 04-10-2020 02:00:00 10.6 C 9.17 g/m*3 10.6 C 0 km/h
Sensor: Nr:Datum:Temp:Abs-Feuchte:Windchill:Wind:
Aussen-T/F 26 04-10-2020 02:05:00 10.6 C 9.17 g/m*3 10.06 C 6.4 km/h
27 04-10-2020 02:10:00 10.5 C 9.12 g/m*3 10.5 C 3.2 km/h
28 04-10-2020 02:15:00 10.5 C 9.12 g/m*3 10.5 C 1.6 km/h
29 04-10-2020 02:20:00 10.4 C 9.06 g/m*3 10.4 C 0 km/h
30 04-10-2020 02:25:00 10.4 C 9.06 g/m*3 10.4 C 1.6 km/h
31 04-10-2020 02:30:00 10.3 C 9 g/m*3 10.3 C 1.6 km/h
32 04-10-2020 02:35:00 10.3 C 9 g/m*3 10.3 C 4.8 km/h
33 04-10-2020 02:40:00 10.3 C 9 g/m*3 10.3 C 4.8 km/h
34 04-10-2020 02:45:00 10.3 C 9 g/m*3 10.3 C 1.6 km/h
35 04-10-2020 02:50:00 10.2 C 8.95 g/m*3 10.2 C 0 km/h
36 04-10-2020 02:55:00 10.2 C 8.95 g/m*3 10.2 C 1.6 km/h
37 04-10-2020 03:00:00 10.2 C 8.95 g/m*3 10.2 C 1.6 km/h
38 04-10-2020 03:05:00 10.2 C 8.95 g/m*3 10.2 C 1.6 km/h
39 04-10-2020 03:10:00 10.1 C 8.89 g/m*3 10.1 C 1.6 km/h
40 04-10-2020 03:15:00 10.1 C 8.89 g/m*3 10.1 C 1.6 km/h
41 04-10-2020 03:20:00 10 C 8.93 g/m*3 10 C 3.2 km/h
42 04-10-2020 03:25:00 10 C 8.93 g/m*3 10 C 1.6 km/h
43 04-10-2020 03:30:00 9.9 C 8.87 g/m*3 9.9 C 1.6 km/h
44 04-10-2020 03:35:00 9.9 C 8.87 g/m*3 9.9 C 1.6 km/h
45 04-10-2020 03:40:00 9.8 C 8.72 g/m*3 9.8 C 0 km/h
46 04-10-2020 03:45:00 9.7 C 8.67 g/m*3 9.7 C 4.8 km/h
47 04-10-2020 03:50:00 9.6 C 8.61 g/m*3 9.6 C 0 km/h
48 04-10-2020 03:55:00 9.6 C 8.7 g/m*3 9.6 C 0 km/h
49 04-10-2020 04:00:00 9.6 C 8.7 g/m*3 9.6 C 3.2 km/h
50 04-10-2020 04:05:00 9.7 C 8.76 g/m*3 9.7 C 1.6 km/h
Sensor: Nr:Datum:Temp:Abs-Feuchte:Windchill:Wind:
Aussen-T/F 51 04-10-2020 04:10:00 9.8 C 8.91 g/m*3 9.8 C 1.6 km/h
52 04-10-2020 04:15:00 9.8 C 8.91 g/m*3 9.8 C 0 km/h
53 04-10-2020 04:20:00 9.9 C 8.96 g/m*3 9.9 C 0 km/h
54 04-10-2020 04:25:00 9.9 C 8.96 g/m*3 9.9 C 4.8 km/h
55 04-10-2020 04:30:00 10 C 9.02 g/m*3 10 C 1.6 km/h
56 04-10-2020 04:35:00 10.1 C 9.08 g/m*3 10.1 C 1.6 km/h
57 04-10-2020 04:40:00 10.1 C 9.08 g/m*3 9.48 C 6.4 km/h
58 04-10-2020 04:45:00 10.2 C 9.14 g/m*3 10.2 C 3.2 km/h
59 04-10-2020 04:50:00 10.2 C 9.14 g/m*3 10.2 C 1.6 km/h
60 04-10-2020 04:55:00 10.3 C 9.19 g/m*3 9.72 C 6.4 km/h
61 04-10-2020 05:00:00 10.3 C 9.19 g/m*3 10.3 C 1.6 km/h
62 04-10-2020 05:05:00 10.3 C 9.19 g/m*3 9.04 C 9.7 km/h
63 04-10-2020 05:10:00 10.3 C 9.19 g/m*3 9.72 C 6.4 km/h
64 04-10-2020 05:15:00 10.4 C 9.25 g/m*3 10.4 C 3.2 km/h
65 04-10-2020 05:20:00 10.4 C 9.16 g/m*3 10.4 C 4.8 km/h
66 04-10-2020 05:25:00 10.3 C 9.1 g/m*3 10.3 C 4.8 km/h
67 04-10-2020 05:30:00 10.3 C 9.1 g/m*3 10.3 C 4.8 km/h
68 04-10-2020 05:35:00 10.4 C 9.16 g/m*3 10.4 C 3.2 km/h
69 04-10-2020 05:40:00 10.4 C 9.16 g/m*3 9.83 C 6.4 km/h
70 04-10-2020 05:45:00 10.4 C 9.25 g/m*3 10.4 C 4.8 km/h
71 04-10-2020 05:50:00 10.5 C 9.21 g/m*3 9.57 C 8.1 km/h
72 04-10-2020 05:55:00 10.6 C 9.27 g/m*3 10.6 C 1.6 km/h
73 04-10-2020 06:00:00 10.6 C 9.27 g/m*3 10.6 C 1.6 km/h
74 04-10-2020 06:05:00 10.6 C 9.27 g/m*3 10.6 C 3.2 km/h
75 04-10-2020 06:10:00 10.7 C 9.33 g/m*3 10.7 C 4.8 km/h
Sensor: Nr:Datum:Temp:Abs-Feuchte:Windchill:Wind:
Aussen-T/F 76 04-10-2020 06:15:00 10.7 C 9.33 g/m*3 10.7 C 3.2 km/h
77 04-10-2020 06:20:00 10.7 C 9.33 g/m*3 9.04 C 12.9 km/h
78 04-10-2020 06:25:00 10.7 C 9.33 g/m*3 9.52 C 9.7 km/h
79 04-10-2020 06:30:00 10.7 C 9.33 g/m*3 10.7 C 4.8 km/h
80 04-10-2020 06:35:00 10.8 C 9.39 g/m*3 10.8 C 3.2 km/h
81 04-10-2020 06:40:00 10.8 C 9.39 g/m*3 10.8 C 3.2 km/h
82 04-10-2020 06:45:00 10.8 C 9.39 g/m*3 10.8 C 4.8 km/h
83 04-10-2020 06:50:00 10.7 C 9.33 g/m*3 10.7 C 3.2 km/h
84 04-10-2020 06:55:00 10.7 C 9.33 g/m*3 10.7 C 4.8 km/h
85 04-10-2020 07:00:00 10.7 C 9.33 g/m*3 10.7 C 3.2 km/h
86 04-10-2020 07:05:00 10.7 C 9.33 g/m*3 10.18 C 6.4 km/h
87 04-10-2020 07:10:00 10.7 C 9.33 g/m*3 10.7 C 1.6 km/h
88 04-10-2020 07:15:00 10.7 C 9.33 g/m*3 10.18 C 6.4 km/h
89 04-10-2020 07:20:00 10.6 C 9.17 g/m*3 10.06 C 6.4 km/h
90 04-10-2020 07:25:00 10.6 C 9.17 g/m*3 10.06 C 6.4 km/h
91 04-10-2020 07:30:00 10.6 C 9.17 g/m*3 9.69 C 8.1 km/h
92 04-10-2020 07:35:00 10.5 C 9.12 g/m*3 10.5 C 3.2 km/h
93 04-10-2020 07:40:00 10.4 C 9.06 g/m*3 10.4 C 1.6 km/h
94 04-10-2020 07:45:00 10.3 C 9.1 g/m*3 10.3 C 3.2 km/h
95 04-10-2020 07:50:00 10.3 C 9.1 g/m*3 10.3 C 0 km/h
96 04-10-2020 07:55:00 10.3 C 9.1 g/m*3 10.3 C 3.2 km/h
97 04-10-2020 08:00:00 10.3 C 9.1 g/m*3 10.3 C 1.6 km/h
98 04-10-2020 08:05:00 10.3 C 9.1 g/m*3 10.3 C 0 km/h
99 04-10-2020 08:10:00 10.3 C 9.1 g/m*3 10.3 C 1.6 km/h
100 04-10-2020 08:15:00 10.3 C 9.1 g/m*3 10.3 C 4.8 km/h
Sensor: Nr:Datum:Temp:Abs-Feuchte:Windchill:Wind:
Aussen-T/F 101 04-10-2020 08:20:00 10.3 C 9.1 g/m*3 10.3 C 0 km/h
102 04-10-2020 08:25:00 10.3 C 9.1 g/m*3 10.3 C 0 km/h
103 04-10-2020 08:30:00 10.4 C 9.16 g/m*3 10.4 C 1.6 km/h
104 04-10-2020 08:35:00 10.5 C 9.31 g/m*3 10.5 C 0 km/h
105 04-10-2020 08:40:00 10.6 C 9.37 g/m*3 10.6 C 4.8 km/h
106 04-10-2020 08:45:00 10.6 C 9.37 g/m*3 10.6 C 3.2 km/h
107 04-10-2020 08:50:00 10.6 C 9.27 g/m*3 10.6 C 1.6 km/h
108 04-10-2020 08:55:00 10.7 C 9.33 g/m*3 10.7 C 4.8 km/h
109 04-10-2020 09:00:00 10.7 C 9.33 g/m*3 10.7 C 1.6 km/h
110 04-10-2020 09:05:00 10.8 C 9.39 g/m*3 10.8 C 0 km/h
111 04-10-2020 09:10:00 10.8 C 9.39 g/m*3 10.29 C 6.4 km/h
112 04-10-2020 09:15:00 10.8 C 9.29 g/m*3 10.29 C 6.4 km/h
113 04-10-2020 09:20:00 10.8 C 9.29 g/m*3 9.64 C 9.7 km/h
114 04-10-2020 09:25:00 10.9 C 9.35 g/m*3 10.9 C 4.8 km/h
115 04-10-2020 09:30:00 10.9 C 9.25 g/m*3 10.9 C 3.2 km/h
116 04-10-2020 09:35:00 11 C 9.31 g/m*3 10.52 C 6.4 km/h
117 04-10-2020 09:40:00 11.1 C 9.37 g/m*3 11.1 C 6.4 km/h
118 04-10-2020 09:45:00 11.1 C 9.37 g/m*3 11.1 C 4.8 km/h
119 04-10-2020 09:50:00 11.1 C 9.27 g/m*3 11.1 C 6.4 km/h
120 04-10-2020 09:55:00 11.2 C 9.33 g/m*3 11.2 C 4.8 km/h
121 04-10-2020 10:00:00 11.2 C 9.33 g/m*3 11.2 C 8.1 km/h
122 04-10-2020 10:05:00 11.2 C 9.33 g/m*3 11.2 C 3.2 km/h
123 04-10-2020 10:10:00 11.2 C 9.22 g/m*3 11.2 C 6.4 km/h
124 04-10-2020 10:15:00 11.3 C 9.38 g/m*3 11.3 C 4.8 km/h
125 04-10-2020 10:20:00 11.4 C 9.34 g/m*3 11.4 C 3.2 km/h
Sensor: Nr:Datum:Temp:Abs-Feuchte:Windchill:Wind:
Aussen-T/F 126 04-10-2020 10:25:00 11.4 C 9.24 g/m*3 11.4 C 4.8 km/h
127 04-10-2020 10:30:00 11.6 C 9.25 g/m*3 11.6 C 4.8 km/h
128 04-10-2020 10:35:00 11.7 C 9.2 g/m*3 11.7 C 8.1 km/h
129 04-10-2020 10:40:00 11.8 C 9.26 g/m*3 11.8 C 14.5 km/h
130 04-10-2020 10:45:00 11.9 C 9.11 g/m*3 11.9 C 8.1 km/h
131 04-10-2020 10:50:00 12 C 9.27 g/m*3 12 C 3.2 km/h
132 04-10-2020 10:55:00 12.1 C 9.22 g/m*3 12.1 C 9.7 km/h
133 04-10-2020 11:00:00 12.1 C 9.12 g/m*3 12.1 C 12.9 km/h
134 04-10-2020 11:05:00 12.1 C 9.01 g/m*3 12.1 C 11.3 km/h
135 04-10-2020 11:10:00 12.2 C 8.96 g/m*3 12.2 C 24.1 km/h
136 04-10-2020 11:15:00 12.2 C 8.96 g/m*3 12.2 C 16.1 km/h
137 04-10-2020 11:20:00 12.4 C 9.07 g/m*3 12.4 C 16.1 km/h
138 04-10-2020 11:25:00 12.6 C 9.07 g/m*3 12.6 C 9.7 km/h
139 04-10-2020 11:30:00 12.6 C 9.07 g/m*3 12.6 C 16.1 km/h
140 04-10-2020 11:35:00 12.7 C 9.02 g/m*3 12.7 C 17.7 km/h
141 04-10-2020 11:40:00 12.8 C 8.85 g/m*3 12.8 C 24.1 km/h
142 04-10-2020 11:45:00 12.9 C 8.9 g/m*3 12.9 C 22.5 km/h
143 04-10-2020 11:50:00 12.9 C 8.9 g/m*3 12.9 C 16.1 km/h
144 04-10-2020 11:55:00 13 C 8.85 g/m*3 13 C 16.1 km/h
145 04-10-2020 12:00:00 13 C 8.73 g/m*3 13 C 14.5 km/h
146 04-10-2020 12:05:00 13.1 C 8.79 g/m*3 13.1 C 17.7 km/h
147 04-10-2020 12:10:00 13.2 C 8.73 g/m*3 13.2 C 19.3 km/h
148 04-10-2020 12:15:00 13.1 C 8.79 g/m*3 13.1 C 11.3 km/h
149 04-10-2020 12:20:00 13.1 C 8.67 g/m*3 13.1 C 29 km/h
150 04-10-2020 12:25:00 13.1 C 8.9 g/m*3 13.1 C 9.7 km/h
Sensor: Nr:Datum:Temp:Abs-Feuchte:Windchill:Wind:
Aussen-T/F 151 04-10-2020 12:30:00 13.2 C 8.84 g/m*3 13.2 C 9.7 km/h
152 04-10-2020 12:35:00 13.2 C 8.61 g/m*3 13.2 C 8.1 km/h
153 04-10-2020 12:40:00 13.3 C 8.9 g/m*3 13.3 C 8.1 km/h
154 04-10-2020 12:45:00 13.3 C 8.66 g/m*3 13.3 C 8.1 km/h
155 04-10-2020 12:50:00 13.3 C 8.66 g/m*3 13.3 C 4.8 km/h
156 04-10-2020 12:55:00 13.2 C 8.73 g/m*3 13.2 C 11.3 km/h
157 04-10-2020 13:00:00 13.2 C 8.61 g/m*3 13.2 C 11.3 km/h
158 04-10-2020 13:05:00 13.3 C 8.43 g/m*3 13.3 C 12.9 km/h
159 04-10-2020 13:10:00 13.3 C 8.09 g/m*3 13.3 C 22.5 km/h
160 04-10-2020 13:15:00 13.3 C 8.09 g/m*3 13.3 C 12.9 km/h
161 04-10-2020 13:20:00 13.4 C 8.25 g/m*3 13.4 C 11.3 km/h
162 04-10-2020 13:25:00 13.4 C 8.14 g/m*3 13.4 C 12.9 km/h
163 04-10-2020 13:30:00 13.4 C 8.02 g/m*3 13.4 C 12.9 km/h
164 04-10-2020 13:35:00 13.6 C 8.36 g/m*3 13.6 C 14.5 km/h
165 04-10-2020 13:40:00 13.7 C 8.17 g/m*3 13.7 C 8.1 km/h
166 04-10-2020 13:45:00 13.7 C 8.29 g/m*3 13.7 C 8.1 km/h
167 04-10-2020 13:50:00 13.8 C 8.58 g/m*3 13.8 C 11.3 km/h
168 04-10-2020 13:55:00 13.8 C 8.46 g/m*3 13.8 C 9.7 km/h
169 04-10-2020 14:00:00 13.7 C 8.53 g/m*3 13.7 C 12.9 km/h
170 04-10-2020 14:05:00 13.7 C 8.53 g/m*3 13.7 C 14.5 km/h
171 04-10-2020 14:10:00 13.6 C 8.36 g/m*3 13.6 C 9.7 km/h
172 04-10-2020 14:15:00 13.7 C 8.53 g/m*3 13.7 C 9.7 km/h
173 04-10-2020 14:20:00 13.8 C 8.46 g/m*3 13.8 C 16.1 km/h
174 04-10-2020 14:25:00 14.1 C 8.62 g/m*3 14.1 C 12.9 km/h
175 04-10-2020 14:30:00 14.3 C 8.48 g/m*3 14.3 C 9.7 km/h
Sensor: Nr:Datum:Temp:Abs-Feuchte:Windchill:Wind:
Aussen-T/F 176 04-10-2020 14:35:00 14.4 C 8.41 g/m*3 14.4 C 9.7 km/h
177 04-10-2020 14:40:00 14.5 C 8.33 g/m*3 14.5 C 16.1 km/h
178 04-10-2020 14:45:00 14.6 C 8.63 g/m*3 14.6 C 8.1 km/h
179 04-10-2020 14:50:00 14.7 C 8.69 g/m*3 14.7 C 11.3 km/h
180 04-10-2020 14:55:00 14.7 C 8.56 g/m*3 14.7 C 14.5 km/h
181 04-10-2020 15:00:00 14.8 C 8.49 g/m*3 14.8 C 9.7 km/h
182 04-10-2020 15:05:00 14.8 C 8.74 g/m*3 14.8 C 6.4 km/h
183 04-10-2020 15:10:00 14.8 C 8.61 g/m*3 14.8 C 11.3 km/h
184 04-10-2020 15:15:00 14.9 C 8.79 g/m*3 14.9 C 9.7 km/h
185 04-10-2020 15:20:00 14.9 C 8.67 g/m*3 14.9 C 6.4 km/h
186 04-10-2020 15:25:00 14.8 C 8.61 g/m*3 14.8 C 16.1 km/h
187 04-10-2020 15:30:00 14.8 C 8.49 g/m*3 14.8 C 3.2 km/h
188 04-10-2020 15:35:00 14.8 C 8.49 g/m*3 14.8 C 9.7 km/h
189 04-10-2020 15:40:00 14.9 C 8.54 g/m*3 14.9 C 8.1 km/h
190 04-10-2020 15:45:00 15.2 C 8.83 g/m*3 15.2 C 11.3 km/h
191 04-10-2020 15:50:00 15.4 C 8.8 g/m*3 15.4 C 8.1 km/h
192 04-10-2020 15:55:00 15.5 C 8.86 g/m*3 15.5 C 6.4 km/h
193 04-10-2020 16:00:00 15.6 C 8.64 g/m*3 15.6 C 8.1 km/h
194 04-10-2020 16:05:00 15.6 C 8.91 g/m*3 15.6 C 9.7 km/h
195 04-10-2020 16:10:00 15.5 C 8.59 g/m*3 15.5 C 11.3 km/h
196 04-10-2020 16:15:00 15.4 C 8.54 g/m*3 15.4 C 6.4 km/h
197 04-10-2020 16:20:00 15.4 C 8.67 g/m*3 15.4 C 11.3 km/h
198 04-10-2020 16:25:00 15.3 C 8.49 g/m*3 15.3 C 9.7 km/h
199 04-10-2020 16:30:00 15.3 C 8.75 g/m*3 15.3 C 4.8 km/h
200 04-10-2020 16:35:00 15.3 C 8.62 g/m*3 15.3 C 4.8 km/h
Sensor: Nr:Datum:Temp:Abs-Feuchte:Windchill:Wind:
Aussen-T/F 201 04-10-2020 16:40:00 15.3 C 8.49 g/m*3 15.3 C 8.1 km/h
202 04-10-2020 16:45:00 15.3 C 8.62 g/m*3 15.3 C 6.4 km/h
203 04-10-2020 16:50:00 15.3 C 8.62 g/m*3 15.3 C 1.6 km/h
204 04-10-2020 16:55:00 15.3 C 8.88 g/m*3 15.3 C 0 km/h
205 04-10-2020 17:00:00 15.3 C 9.14 g/m*3 15.3 C 3.2 km/h
206 04-10-2020 17:05:00 15.3 C 8.62 g/m*3 15.3 C 6.4 km/h
207 04-10-2020 17:10:00 15.2 C 9.09 g/m*3 15.2 C 1.6 km/h
208 04-10-2020 17:15:00 15.2 C 8.83 g/m*3 15.2 C 0 km/h
209 04-10-2020 17:20:00 15.2 C 9.22 g/m*3 15.2 C 0 km/h
210 04-10-2020 17:25:00 15.1 C 8.9 g/m*3 15.1 C 6.4 km/h
211 04-10-2020 17:30:00 15.1 C 9.55 g/m*3 15.1 C 3.2 km/h
212 04-10-2020 17:35:00 15.1 C 9.29 g/m*3 15.1 C 1.6 km/h
213 04-10-2020 17:40:00 14.9 C 9.3 g/m*3 14.9 C 4.8 km/h
214 04-10-2020 17:45:00 14.7 C 9.32 g/m*3 14.7 C 0 km/h
215 04-10-2020 17:50:00 14.6 C 9.39 g/m*3 14.6 C 0 km/h
216 04-10-2020 17:55:00 14.4 C 9.27 g/m*3 14.4 C 0 km/h
217 04-10-2020 18:00:00 14.4 C 9.02 g/m*3 14.4 C 0 km/h
218 04-10-2020 18:05:00 14.6 C 9.64 g/m*3 14.6 C 0 km/h
219 04-10-2020 18:10:00 14.7 C 9.82 g/m*3 14.7 C 0 km/h
220 04-10-2020 18:15:00 14.7 C 9.95 g/m*3 14.7 C 0 km/h
221 04-10-2020 18:20:00 14.6 C 9.89 g/m*3 14.6 C 0 km/h
222 04-10-2020 18:25:00 14.4 C 9.77 g/m*3 14.4 C 0 km/h
223 04-10-2020 18:30:00 14.2 C 9.77 g/m*3 14.2 C 0 km/h
224 04-10-2020 18:35:00 14 C 9.53 g/m*3 14 C 3.2 km/h
225 04-10-2020 18:40:00 13.8 C 9.41 g/m*3 13.8 C 4.8 km/h
Sensor: Nr:Datum:Temp:Abs-Feuchte:Windchill:Wind:
Aussen-T/F 226 04-10-2020 18:45:00 13.7 C 9.24 g/m*3 13.7 C 4.8 km/h
227 04-10-2020 18:50:00 13.7 C 9.59 g/m*3 13.7 C 4.8 km/h
228 04-10-2020 18:55:00 13.6 C 9.65 g/m*3 13.6 C 4.8 km/h
229 04-10-2020 19:00:00 13.3 C 9.47 g/m*3 13.3 C 8.1 km/h
230 04-10-2020 19:05:00 13.1 C 9.47 g/m*3 13.1 C 11.3 km/h
231 04-10-2020 19:10:00 12.8 C 9.3 g/m*3 12.8 C 11.3 km/h
232 04-10-2020 19:15:00 12.7 C 9.35 g/m*3 12.7 C 3.2 km/h
233 04-10-2020 19:20:00 12.6 C 9.4 g/m*3 12.6 C 1.6 km/h
234 04-10-2020 19:25:00 12.6 C 9.51 g/m*3 12.6 C 3.2 km/h
235 04-10-2020 19:30:00 12.4 C 9.29 g/m*3 12.4 C 6.4 km/h
236 04-10-2020 19:35:00 12.4 C 9.4 g/m*3 12.4 C 4.8 km/h
237 04-10-2020 19:40:00 12.3 C 9.45 g/m*3 12.3 C 4.8 km/h
238 04-10-2020 19:45:00 12.3 C 9.56 g/m*3 12.3 C 1.6 km/h
239 04-10-2020 19:50:00 12.2 C 9.6 g/m*3 12.2 C 0 km/h
240 04-10-2020 19:55:00 12.1 C 9.54 g/m*3 12.1 C 0 km/h
241 04-10-2020 20:00:00 11.9 C 9.43 g/m*3 11.9 C 0 km/h
242 04-10-2020 20:05:00 11.9 C 9.53 g/m*3 11.9 C 0 km/h
243 04-10-2020 20:10:00 11.8 C 9.47 g/m*3 11.8 C 1.6 km/h
244 04-10-2020 20:15:00 11.7 C 9.52 g/m*3 11.7 C 1.6 km/h
245 04-10-2020 20:20:00 11.7 C 9.52 g/m*3 11.7 C 0 km/h
246 04-10-2020 20:25:00 11.6 C 9.46 g/m*3 11.6 C 1.6 km/h
247 04-10-2020 20:30:00 11.6 C 9.56 g/m*3 11.6 C 0 km/h
248 04-10-2020 20:35:00 11.6 C 9.56 g/m*3 11.6 C 0 km/h
249 04-10-2020 20:40:00 11.5 C 9.5 g/m*3 11.5 C 0 km/h
250 04-10-2020 20:45:00 11.5 C 9.5 g/m*3 11.5 C 3.2 km/h
Sensor: Nr:Datum:Temp:Abs-Feuchte:Windchill:Wind:
Aussen-T/F 251 04-10-2020 20:50:00 11.4 C 9.44 g/m*3 11.4 C 1.6 km/h
252 04-10-2020 20:55:00 11.4 C 9.44 g/m*3 11.4 C 1.6 km/h
253 04-10-2020 21:00:00 11.3 C 9.49 g/m*3 11.3 C 9.7 km/h
254 04-10-2020 21:05:00 11.3 C 9.49 g/m*3 11.3 C 1.6 km/h
255 04-10-2020 21:10:00 11.3 C 9.49 g/m*3 11.3 C 1.6 km/h
256 04-10-2020 21:15:00 11.3 C 9.59 g/m*3 11.3 C 1.6 km/h
257 04-10-2020 21:20:00 11.2 C 9.53 g/m*3 11.2 C 0 km/h
258 04-10-2020 21:25:00 11.2 C 9.53 g/m*3 11.2 C 0 km/h
259 04-10-2020 21:30:00 11.1 C 9.47 g/m*3 11.1 C 0 km/h
260 04-10-2020 21:35:00 11 C 9.31 g/m*3 11 C 1.6 km/h
261 04-10-2020 21:40:00 10.8 C 9.19 g/m*3 10.8 C 1.6 km/h
262 04-10-2020 21:45:00 10.7 C 9.13 g/m*3 10.7 C 3.2 km/h
263 04-10-2020 21:50:00 10.7 C 9.23 g/m*3 10.7 C 0 km/h
264 04-10-2020 21:55:00 10.7 C 9.23 g/m*3 10.7 C 3.2 km/h
265 04-10-2020 22:00:00 10.7 C 9.23 g/m*3 10.7 C 1.6 km/h
266 04-10-2020 22:05:00 10.6 C 9.17 g/m*3 10.6 C 0 km/h
267 04-10-2020 22:10:00 10.4 C 9.06 g/m*3 10.4 C 1.6 km/h
268 04-10-2020 22:15:00 10.3 C 9 g/m*3 10.3 C 3.2 km/h
269 04-10-2020 22:20:00 10.1 C 8.79 g/m*3 9.48 C 6.4 km/h
270 04-10-2020 22:25:00 9.9 C 8.78 g/m*3 9.9 C 0 km/h
271 04-10-2020 22:30:00 9.8 C 8.72 g/m*3 9.8 C 3.2 km/h
272 04-10-2020 22:35:00 9.6 C 8.61 g/m*3 9.6 C 0 km/h
273 04-10-2020 22:40:00 9.5 C 8.56 g/m*3 9.5 C 0 km/h
274 04-10-2020 22:45:00 9.4 C 8.5 g/m*3 9.4 C 0 km/h
275 04-10-2020 22:50:00 9.3 C 8.45 g/m*3 9.3 C 0 km/h
Sensor: Nr:Datum:Temp:Abs-Feuchte:Windchill:Wind:
Aussen-T/F 276 04-10-2020 22:55:00 9.2 C 8.39 g/m*3 9.2 C 0 km/h
277 04-10-2020 23:00:00 9.2 C 8.39 g/m*3 9.2 C 0 km/h
278 04-10-2020 23:05:00 9.1 C 8.34 g/m*3 9.1 C 0 km/h
279 04-10-2020 23:10:00 9.1 C 8.34 g/m*3 9.1 C 0 km/h
280 04-10-2020 23:15:00 9.1 C 8.43 g/m*3 9.1 C 0 km/h
281 04-10-2020 23:20:00 9.1 C 8.43 g/m*3 9.1 C 0 km/h
282 04-10-2020 23:25:00 9.1 C 8.43 g/m*3 9.1 C 0 km/h
283 04-10-2020 23:30:00 8.9 C 8.32 g/m*3 8.9 C 0 km/h
284 04-10-2020 23:35:00 8.9 C 8.32 g/m*3 8.9 C 0 km/h
285 04-10-2020 23:40:00 8.9 C 8.32 g/m*3 8.9 C 0 km/h
286 04-10-2020 23:45:00 8.8 C 8.27 g/m*3 8.8 C 0 km/h
287 04-10-2020 23:50:00 8.7 C 8.22 g/m*3 8.7 C 0 km/h
288 04-10-2020 23:55:00 8.7 C 8.22 g/m*3 8.7 C 0 km/h
289 05-10-2020 00:00:00 8.7 C 8.22 g/m*3 8.7 C 0 km/h
290 05-10-2020 00:05:00 8.7 C 8.22 g/m*3 8.7 C 0 km/h
291 05-10-2020 00:10:00 8.7 C 8.22 g/m*3 8.7 C 0 km/h
292 05-10-2020 00:15:00 8.6 C 8.16 g/m*3 8.6 C 3.2 km/h
293 05-10-2020 00:20:00 8.6 C 8.16 g/m*3 8.6 C 3.2 km/h
294 05-10-2020 00:25:00 8.4 C 8.06 g/m*3 8.4 C 0 km/h
295 05-10-2020 00:30:00 8.4 C 8.06 g/m*3 7.11 C 8.1 km/h
296 05-10-2020 00:35:00 8.7 C 8.3 g/m*3 7.46 C 8.1 km/h
297 05-10-2020 00:40:00 8.8 C 8.36 g/m*3 7.98 C 6.4 km/h
298 05-10-2020 00:45:00 8.7 C 8.3 g/m*3 8.7 C 3.2 km/h
299 05-10-2020 00:50:00 8.6 C 8.25 g/m*3 8.6 C 3.2 km/h
300 05-10-2020 00:55:00 8.5 C 8.11 g/m*3 8.5 C 3.2 km/h
Sensor: Nr:Datum:Temp:Abs-Feuchte:Windchill:Wind:
Aussen-T/F 301 05-10-2020 01:00:00 8.4 C 8.06 g/m*3 8.4 C 0 km/h
302 05-10-2020 01:05:00 8.3 C 8.01 g/m*3 8.3 C 3.2 km/h
303 05-10-2020 01:10:00 8.3 C 8.01 g/m*3 8.3 C 1.6 km/h
304 05-10-2020 01:15:00 8.3 C 8.09 g/m*3 8.3 C 4.8 km/h
305 05-10-2020 01:20:00 8.2 C 8.04 g/m*3 8.2 C 1.6 km/h
306 05-10-2020 01:25:00 8.3 C 8.09 g/m*3 8.3 C 1.6 km/h
307 05-10-2020 01:30:00 8.5 C 8.2 g/m*3 8.5 C 1.6 km/h
308 05-10-2020 01:35:00 8.7 C 8.3 g/m*3 8.7 C 4.8 km/h
309 05-10-2020 01:40:00 8.8 C 8.36 g/m*3 8.8 C 0 km/h
310 05-10-2020 01:45:00 9 C 8.55 g/m*3 9 C 1.6 km/h
311 05-10-2020 01:50:00 9.1 C 8.52 g/m*3 9.1 C 4.8 km/h
312 05-10-2020 01:55:00 9.2 C 8.57 g/m*3 9.2 C 4.8 km/h
313 05-10-2020 02:00:00 9.1 C 8.52 g/m*3 8.33 C 6.4 km/h
314 05-10-2020 02:05:00 8.9 C 8.41 g/m*3 8.1 C 6.4 km/h
315 05-10-2020 02:10:00 9 C 8.46 g/m*3 9 C 3.2 km/h
316 05-10-2020 02:15:00 9.1 C 8.52 g/m*3 9.1 C 4.8 km/h
317 05-10-2020 02:20:00 9.2 C 8.57 g/m*3 9.2 C 0 km/h
318 05-10-2020 02:25:00 9.2 C 8.57 g/m*3 9.2 C 3.2 km/h
319 05-10-2020 02:30:00 9.2 C 8.57 g/m*3 9.2 C 4.8 km/h
320 05-10-2020 02:35:00 9.2 C 8.57 g/m*3 9.2 C 4.8 km/h
321 05-10-2020 02:40:00 9.2 C 8.57 g/m*3 9.2 C 0 km/h
322 05-10-2020 02:45:00 9.3 C 8.72 g/m*3 9.3 C 0 km/h
323 05-10-2020 02:50:00 9.3 C 8.72 g/m*3 9.3 C 0 km/h
324 05-10-2020 02:55:00 9.4 C 8.77 g/m*3 9.4 C 3.2 km/h
325 05-10-2020 03:00:00 9.5 C 8.83 g/m*3 9.5 C 1.6 km/h
Sensor: Nr:Datum:Temp:Abs-Feuchte:Windchill:Wind:
Aussen-T/F 326 05-10-2020 03:05:00 9.5 C 8.83 g/m*3 9.5 C 3.2 km/h
327 05-10-2020 03:10:00 9.4 C 8.77 g/m*3 9.4 C 3.2 km/h
328 05-10-2020 03:15:00 9.4 C 8.68 g/m*3 9.4 C 4.8 km/h
329 05-10-2020 03:20:00 9.3 C 8.72 g/m*3 9.3 C 3.2 km/h
330 05-10-2020 03:25:00 9.2 C 8.57 g/m*3 9.2 C 0 km/h
331 05-10-2020 03:30:00 9.1 C 8.52 g/m*3 9.1 C 0 km/h
332 05-10-2020 03:35:00 8.9 C 8.41 g/m*3 8.9 C 0 km/h
333 05-10-2020 03:40:00 8.8 C 8.36 g/m*3 8.8 C 0 km/h
334 05-10-2020 03:45:00 8.8 C 8.36 g/m*3 8.8 C 0 km/h
335 05-10-2020 03:50:00 8.8 C 8.36 g/m*3 8.8 C 0 km/h
336 05-10-2020 03:55:00 8.7 C 8.3 g/m*3 8.7 C 0 km/h
337 05-10-2020 04:00:00 8.7 C 8.3 g/m*3 8.7 C 0 km/h
338 05-10-2020 04:05:00 8.8 C 8.36 g/m*3 8.8 C 4.8 km/h
339 05-10-2020 04:10:00 8.8 C 8.44 g/m*3 8.8 C 3.2 km/h
340 05-10-2020 04:15:00 8.8 C 8.36 g/m*3 8.8 C 3.2 km/h
341 05-10-2020 04:20:00 8.9 C 8.41 g/m*3 8.9 C 1.6 km/h
342 05-10-2020 04:25:00 8.9 C 8.41 g/m*3 8.9 C 3.2 km/h
343 05-10-2020 04:30:00 9 C 8.55 g/m*3 9 C 3.2 km/h
344 05-10-2020 04:35:00 9.1 C 8.61 g/m*3 9.1 C 3.2 km/h
345 05-10-2020 04:40:00 9.1 C 8.61 g/m*3 9.1 C 4.8 km/h
346 05-10-2020 04:45:00 9.1 C 8.61 g/m*3 9.1 C 1.6 km/h
347 05-10-2020 04:50:00 9.1 C 8.61 g/m*3 9.1 C 0 km/h
348 05-10-2020 04:55:00 9 C 8.46 g/m*3 9 C 3.2 km/h
349 05-10-2020 05:00:00 8.9 C 8.41 g/m*3 8.9 C 3.2 km/h
350 05-10-2020 05:05:00 8.9 C 8.41 g/m*3 8.9 C 4.8 km/h
Sensor: Nr:Datum:Temp:Abs-Feuchte:Windchill:Wind:
Aussen-T/F 351 05-10-2020 05:10:00 8.8 C 8.36 g/m*3 8.8 C 4.8 km/h
352 05-10-2020 05:15:00 8.7 C 8.39 g/m*3 8.7 C 3.2 km/h
353 05-10-2020 05:20:00 8.7 C 8.39 g/m*3 8.7 C 0 km/h
354 05-10-2020 05:25:00 8.6 C 8.25 g/m*3 8.6 C 3.2 km/h
355 05-10-2020 05:30:00 8.5 C 8.2 g/m*3 8.5 C 3.2 km/h
356 05-10-2020 05:35:00 8.4 C 8.14 g/m*3 8.4 C 4.8 km/h
357 05-10-2020 05:40:00 8.4 C 8.14 g/m*3 8.4 C 3.2 km/h
358 05-10-2020 05:45:00 8.4 C 8.23 g/m*3 8.4 C 4.8 km/h
359 05-10-2020 05:50:00 8.4 C 8.23 g/m*3 8.4 C 3.2 km/h
360 05-10-2020 05:55:00 8.4 C 8.23 g/m*3 8.4 C 1.6 km/h
361 05-10-2020 06:00:00 8.3 C 8.18 g/m*3 8.3 C 0 km/h
362 05-10-2020 06:05:00 8.3 C 8.18 g/m*3 8.3 C 4.8 km/h
363 05-10-2020 06:10:00 8.4 C 8.23 g/m*3 8.4 C 3.2 km/h
364 05-10-2020 06:15:00 8.4 C 8.23 g/m*3 8.4 C 3.2 km/h
365 05-10-2020 06:20:00 8.6 C 8.34 g/m*3 8.6 C 3.2 km/h
366 05-10-2020 06:25:00 8.6 C 8.34 g/m*3 8.6 C 3.2 km/h
367 05-10-2020 06:30:00 8.6 C 8.34 g/m*3 8.6 C 4.8 km/h
368 05-10-2020 06:35:00 8.6 C 8.34 g/m*3 8.6 C 4.8 km/h
369 05-10-2020 06:40:00 8.6 C 8.34 g/m*3 8.6 C 4.8 km/h
370 05-10-2020 06:45:00 8.6 C 8.34 g/m*3 8.6 C 0 km/h
371 05-10-2020 06:50:00 8.6 C 8.34 g/m*3 8.6 C 3.2 km/h
372 05-10-2020 06:55:00 8.6 C 8.34 g/m*3 8.6 C 4.8 km/h
373 05-10-2020 07:00:00 8.6 C 8.34 g/m*3 8.6 C 4.8 km/h
374 05-10-2020 07:05:00 8.6 C 8.34 g/m*3 8.6 C 1.6 km/h
375 05-10-2020 07:10:00 8.7 C 8.39 g/m*3 8.7 C 3.2 km/h
Sensor: Nr:Datum:Temp:Abs-Feuchte:Windchill:Wind:
Aussen-T/F 376 05-10-2020 07:15:00 8.7 C 8.39 g/m*3 8.7 C 4.8 km/h
377 05-10-2020 07:20:00 8.8 C 8.44 g/m*3 8.8 C 0 km/h
378 05-10-2020 07:25:00 8.8 C 8.44 g/m*3 8.8 C 0 km/h
379 05-10-2020 07:30:00 8.8 C 8.44 g/m*3 8.8 C 0 km/h
380 05-10-2020 07:35:00 8.9 C 8.5 g/m*3 8.9 C 0 km/h
381 05-10-2020 07:40:00 8.9 C 8.5 g/m*3 8.9 C 0 km/h
382 05-10-2020 07:45:00 8.8 C 8.44 g/m*3 8.8 C 0 km/h
383 05-10-2020 07:50:00 8.8 C 8.44 g/m*3 8.8 C 4.8 km/h
384 05-10-2020 07:55:00 8.8 C 8.44 g/m*3 8.8 C 3.2 km/h
385 05-10-2020 08:00:00 8.9 C 8.5 g/m*3 8.9 C 4.8 km/h
386 05-10-2020 08:05:00 9 C 8.55 g/m*3 9 C 4.8 km/h
387 05-10-2020 08:10:00 9.1 C 8.61 g/m*3 9.1 C 3.2 km/h
388 05-10-2020 08:15:00 9.1 C 8.61 g/m*3 9.1 C 3.2 km/h
389 05-10-2020 08:20:00 9.1 C 8.61 g/m*3 9.1 C 3.2 km/h
390 05-10-2020 08:25:00 9.2 C 8.66 g/m*3 9.2 C 3.2 km/h
391 05-10-2020 08:30:00 9.2 C 8.66 g/m*3 9.2 C 1.6 km/h
392 05-10-2020 08:35:00 9.3 C 8.72 g/m*3 9.3 C 0 km/h
393 05-10-2020 08:40:00 9.3 C 8.72 g/m*3 9.3 C 4.8 km/h
394 05-10-2020 08:45:00 9.4 C 8.77 g/m*3 9.4 C 0 km/h
395 05-10-2020 08:50:00 9.6 C 8.89 g/m*3 9.6 C 3.2 km/h
396 05-10-2020 08:55:00 9.6 C 8.89 g/m*3 9.6 C 1.6 km/h
397 05-10-2020 09:00:00 9.7 C 8.94 g/m*3 9.7 C 1.6 km/h
398 05-10-2020 09:05:00 9.8 C 9 g/m*3 9.8 C 1.6 km/h
399 05-10-2020 09:10:00 9.9 C 9.06 g/m*3 9.9 C 0 km/h
400 05-10-2020 09:15:00 10 C 9.11 g/m*3 10 C 1.6 km/h
Sensor: Nr:Datum:Temp:Abs-Feuchte:Windchill:Wind:
Aussen-T/F 401 05-10-2020 09:20:00 10.1 C 9.17 g/m*3 10.1 C 4.8 km/h
402 05-10-2020 09:25:00 10.2 C 9.23 g/m*3 10.2 C 1.6 km/h
403 05-10-2020 09:30:00 10.3 C 9.29 g/m*3 10.3 C 4.8 km/h
404 05-10-2020 09:35:00 10.3 C 9.29 g/m*3 10.3 C 1.6 km/h
405 05-10-2020 09:40:00 10.3 C 9.29 g/m*3 10.3 C 3.2 km/h
406 05-10-2020 09:45:00 10.3 C 9.29 g/m*3 10.3 C 3.2 km/h
407 05-10-2020 09:50:00 10.3 C 9.29 g/m*3 10.3 C 4.8 km/h
408 05-10-2020 09:55:00 10.3 C 9.29 g/m*3 9.72 C 6.4 km/h
409 05-10-2020 10:00:00 10.2 C 9.23 g/m*3 10.2 C 1.6 km/h
410 05-10-2020 10:05:00 10.1 C 9.17 g/m*3 8.8 C 9.7 km/h
411 05-10-2020 10:10:00 10.1 C 9.17 g/m*3 10.1 C 4.8 km/h
412 05-10-2020 10:15:00 10.2 C 9.14 g/m*3 10.2 C 1.6 km/h
413 05-10-2020 10:20:00 10.2 C 9.14 g/m*3 10.2 C 3.2 km/h
414 05-10-2020 10:25:00 10.2 C 9.14 g/m*3 10.2 C 1.6 km/h
415 05-10-2020 10:30:00 10.3 C 9.19 g/m*3 10.3 C 3.2 km/h
416 05-10-2020 10:35:00 10.3 C 9.19 g/m*3 9.72 C 6.4 km/h
417 05-10-2020 10:40:00 10.3 C 9.1 g/m*3 10.3 C 4.8 km/h
418 05-10-2020 10:45:00 10.4 C 9.16 g/m*3 10.4 C 3.2 km/h
419 05-10-2020 10:50:00 10.4 C 9.06 g/m*3 9.16 C 9.7 km/h
420 05-10-2020 10:55:00 10.6 C 9.08 g/m*3 9.14 C 11.3 km/h
421 05-10-2020 11:00:00 10.7 C 9.13 g/m*3 9.81 C 8.1 km/h
422 05-10-2020 11:05:00 10.8 C 9.19 g/m*3 10.8 C 1.6 km/h
423 05-10-2020 11:10:00 11 C 9.11 g/m*3 9.63 C 11.3 km/h
424 05-10-2020 11:15:00 11.2 C 9.22 g/m*3 11.2 C 4.8 km/h
425 05-10-2020 11:20:00 11.3 C 9.08 g/m*3 11.3 C 8.1 km/h
Sensor: Nr:Datum:Temp:Abs-Feuchte:Windchill:Wind:
Aussen-T/F 426 05-10-2020 11:25:00 11.5 C 9.19 g/m*3 11.5 C 9.7 km/h
427 05-10-2020 11:30:00 11.7 C 8.99 g/m*3 11.7 C 8.1 km/h
428 05-10-2020 11:35:00 11.9 C 9.11 g/m*3 11.9 C 9.7 km/h
429 05-10-2020 11:40:00 12.1 C 9.12 g/m*3 12.1 C 14.5 km/h
430 05-10-2020 11:45:00 12.3 C 9.12 g/m*3 12.3 C 14.5 km/h
431 05-10-2020 11:50:00 12.4 C 9.29 g/m*3 12.4 C 6.4 km/h
432 05-10-2020 11:55:00 12.4 C 9.18 g/m*3 12.4 C 4.8 km/h
433 05-10-2020 12:00:00 12.6 C 9.29 g/m*3 12.6 C 9.7 km/h
434 05-10-2020 12:05:00 12.7 C 9.24 g/m*3 12.7 C 12.9 km/h
435 05-10-2020 12:10:00 12.8 C 9.3 g/m*3 12.8 C 16.1 km/h
436 05-10-2020 12:15:00 12.9 C 9.24 g/m*3 12.9 C 4.8 km/h
437 05-10-2020 12:20:00 12.9 C 9.24 g/m*3 12.9 C 9.7 km/h
438 05-10-2020 12:25:00 12.9 C 9.24 g/m*3 12.9 C 8.1 km/h
439 05-10-2020 12:30:00 12.9 C 9.24 g/m*3 12.9 C 4.8 km/h
440 05-10-2020 12:35:00 12.9 C 9.13 g/m*3 12.9 C 9.7 km/h
441 05-10-2020 12:40:00 13 C 9.3 g/m*3 13 C 6.4 km/h
442 05-10-2020 12:45:00 13.1 C 9.36 g/m*3 13.1 C 8.1 km/h
443 05-10-2020 12:50:00 13.1 C 9.36 g/m*3 13.1 C 4.8 km/h
444 05-10-2020 12:55:00 13.1 C 9.36 g/m*3 13.1 C 4.8 km/h
445 05-10-2020 13:00:00 13.1 C 9.36 g/m*3 13.1 C 9.7 km/h
446 05-10-2020 13:05:00 12.9 C 9.35 g/m*3 12.9 C 11.3 km/h
447 05-10-2020 13:10:00 12.9 C 9.47 g/m*3 12.9 C 0 km/h
448 05-10-2020 13:15:00 12.9 C 9.58 g/m*3 12.9 C 4.8 km/h
449 05-10-2020 13:20:00 12.9 C 9.58 g/m*3 12.9 C 3.2 km/h
450 05-10-2020 13:25:00 13 C 9.53 g/m*3 13 C 11.3 km/h
Sensor: Nr:Datum:Temp:Abs-Feuchte:Windchill:Wind:
Aussen-T/F 451 05-10-2020 13:30:00 12.9 C 9.35 g/m*3 12.9 C 12.9 km/h
452 05-10-2020 13:35:00 12.9 C 9.35 g/m*3 12.9 C 3.2 km/h
453 05-10-2020 13:40:00 12.9 C 9.58 g/m*3 12.9 C 6.4 km/h
454 05-10-2020 13:45:00 12.8 C 9.63 g/m*3 12.8 C 3.2 km/h
455 05-10-2020 13:50:00 12.7 C 9.57 g/m*3 12.7 C 4.8 km/h
456 05-10-2020 13:55:00 12.6 C 9.51 g/m*3 12.6 C 3.2 km/h
457 05-10-2020 14:00:00 12.5 C 9.57 g/m*3 12.5 C 1.6 km/h
458 05-10-2020 14:05:00 12.6 C 9.85 g/m*3 12.6 C 0 km/h
459 05-10-2020 14:10:00 12.6 C 9.96 g/m*3 12.6 C 0 km/h
460 05-10-2020 14:15:00 12.7 C 10.02 g/m*3 12.7 C 1.6 km/h
461 05-10-2020 14:20:00 12.8 C 10.08 g/m*3 12.8 C 1.6 km/h
462 05-10-2020 14:25:00 12.9 C 10.14 g/m*3 12.9 C 4.8 km/h
463 05-10-2020 14:30:00 13.2 C 10.33 g/m*3 13.2 C 3.2 km/h
464 05-10-2020 14:35:00 13.2 C 9.99 g/m*3 13.2 C 12.9 km/h
465 05-10-2020 14:40:00 13.4 C 10.23 g/m*3 13.4 C 3.2 km/h
466 05-10-2020 14:45:00 13.6 C 10.24 g/m*3 13.6 C 4.8 km/h
467 05-10-2020 14:50:00 13.8 C 10.25 g/m*3 13.8 C 9.7 km/h
468 05-10-2020 14:55:00 13.9 C 10.19 g/m*3 13.9 C 8.1 km/h
469 05-10-2020 15:00:00 13.9 C 10.19 g/m*3 13.9 C 8.1 km/h
470 05-10-2020 15:05:00 13.9 C 10.19 g/m*3 13.9 C 14.5 km/h
471 05-10-2020 15:10:00 14 C 10.25 g/m*3 14 C 3.2 km/h
472 05-10-2020 15:15:00 14.1 C 10.32 g/m*3 14.1 C 6.4 km/h
473 05-10-2020 15:20:00 14 C 10.13 g/m*3 14 C 8.1 km/h
474 05-10-2020 15:25:00 14 C 10.25 g/m*3 14 C 1.6 km/h
475 05-10-2020 15:30:00 14.1 C 10.07 g/m*3 14.1 C 9.7 km/h
Sensor: Nr:Datum:Temp:Abs-Feuchte:Windchill:Wind:
Aussen-T/F 476 05-10-2020 15:35:00 14 C 10.01 g/m*3 14 C 11.3 km/h
477 05-10-2020 15:40:00 14 C 10.01 g/m*3 14 C 11.3 km/h
478 05-10-2020 15:45:00 14.1 C 10.07 g/m*3 14.1 C 12.9 km/h
479 05-10-2020 15:50:00 14.2 C 10.01 g/m*3 14.2 C 8.1 km/h
480 05-10-2020 15:55:00 14.2 C 10.01 g/m*3 14.2 C 19.3 km/h
481 05-10-2020 16:00:00 14.2 C 10.01 g/m*3 14.2 C 8.1 km/h
482 05-10-2020 16:05:00 14.2 C 10.01 g/m*3 14.2 C 8.1 km/h
483 05-10-2020 16:10:00 14.2 C 10.01 g/m*3 14.2 C 14.5 km/h
484 05-10-2020 16:15:00 14.1 C 9.95 g/m*3 14.1 C 9.7 km/h
485 05-10-2020 16:20:00 14.1 C 9.83 g/m*3 14.1 C 14.5 km/h
486 05-10-2020 16:25:00 14.3 C 10.07 g/m*3 14.3 C 9.7 km/h
487 05-10-2020 16:30:00 14.4 C 10.14 g/m*3 14.4 C 9.7 km/h
488 05-10-2020 16:35:00 14.6 C 10.14 g/m*3 14.6 C 6.4 km/h
489 05-10-2020 16:40:00 14.5 C 9.95 g/m*3 14.5 C 11.3 km/h
490 05-10-2020 16:45:00 14.4 C 9.89 g/m*3 14.4 C 9.7 km/h
491 05-10-2020 16:50:00 14.2 C 9.77 g/m*3 14.2 C 11.3 km/h
492 05-10-2020 16:55:00 14.1 C 9.83 g/m*3 14.1 C 8.1 km/h
493 05-10-2020 17:00:00 13.9 C 9.71 g/m*3 13.9 C 11.3 km/h
494 05-10-2020 17:05:00 13.8 C 9.65 g/m*3 13.8 C 12.9 km/h
495 05-10-2020 17:10:00 13.7 C 9.71 g/m*3 13.7 C 9.7 km/h
496 05-10-2020 17:15:00 13.7 C 9.83 g/m*3 13.7 C 6.4 km/h
497 05-10-2020 17:20:00 13.6 C 9.77 g/m*3 13.6 C 11.3 km/h
498 05-10-2020 17:25:00 13.6 C 9.77 g/m*3 13.6 C 14.5 km/h
499 05-10-2020 17:30:00 13.6 C 9.77 g/m*3 13.6 C 12.9 km/h
500 05-10-2020 17:35:00 13.6 C 9.65 g/m*3 13.6 C 8.1 km/h
Sensor: Nr:Datum:Temp:Abs-Feuchte:Windchill:Wind:
Aussen-T/F 501 05-10-2020 17:40:00 13.6 C 9.65 g/m*3 13.6 C 8.1 km/h
502 05-10-2020 17:45:00 13.6 C 9.65 g/m*3 13.6 C 16.1 km/h
503 05-10-2020 17:50:00 13.6 C 9.77 g/m*3 13.6 C 6.4 km/h
504 05-10-2020 17:55:00 13.6 C 9.89 g/m*3 13.6 C 4.8 km/h
505 05-10-2020 18:00:00 13.6 C 9.77 g/m*3 13.6 C 3.2 km/h
506 05-10-2020 18:05:00 13.5 C 9.71 g/m*3 13.5 C 4.8 km/h
507 05-10-2020 18:10:00 13.5 C 9.71 g/m*3 13.5 C 0 km/h
508 05-10-2020 18:15:00 13.4 C 9.76 g/m*3 13.4 C 1.6 km/h
509 05-10-2020 18:20:00 13.4 C 9.76 g/m*3 13.4 C 4.8 km/h
510 05-10-2020 18:25:00 13.4 C 9.76 g/m*3 13.4 C 4.8 km/h
511 05-10-2020 18:30:00 13.3 C 9.7 g/m*3 13.3 C 1.6 km/h
512 05-10-2020 18:35:00 13.3 C 9.7 g/m*3 13.3 C 8.1 km/h
513 05-10-2020 18:40:00 13.3 C 9.82 g/m*3 13.3 C 0 km/h
514 05-10-2020 18:45:00 13.3 C 9.7 g/m*3 13.3 C 3.2 km/h
515 05-10-2020 18:50:00 13.3 C 9.82 g/m*3 13.3 C 1.6 km/h
516 05-10-2020 18:55:00 13.2 C 9.76 g/m*3 13.2 C 6.4 km/h
517 05-10-2020 19:00:00 13.2 C 9.76 g/m*3 13.2 C 3.2 km/h
518 05-10-2020 19:05:00 13.1 C 9.81 g/m*3 13.1 C 0 km/h
519 05-10-2020 19:10:00 13.1 C 9.81 g/m*3 13.1 C 0 km/h
520 05-10-2020 19:15:00 13 C 9.75 g/m*3 13 C 0 km/h
521 05-10-2020 19:20:00 12.9 C 9.69 g/m*3 12.9 C 0 km/h
522 05-10-2020 19:25:00 12.8 C 9.74 g/m*3 12.8 C 3.2 km/h
523 05-10-2020 19:30:00 12.8 C 9.74 g/m*3 12.8 C 3.2 km/h
524 05-10-2020 19:35:00 12.7 C 9.68 g/m*3 12.7 C 0 km/h
525 05-10-2020 19:40:00 12.7 C 9.8 g/m*3 12.7 C 0 km/h
Sensor: Nr:Datum:Temp:Abs-Feuchte:Windchill:Wind:
Aussen-T/F 526 05-10-2020 19:45:00 12.6 C 9.74 g/m*3 12.6 C 3.2 km/h
527 05-10-2020 19:50:00 12.6 C 9.85 g/m*3 12.6 C 0 km/h
528 05-10-2020 19:55:00 12.4 C 9.72 g/m*3 12.4 C 4.8 km/h
529 05-10-2020 20:00:00 12.4 C 9.72 g/m*3 12.4 C 8.1 km/h
530 05-10-2020 20:05:00 12.4 C 9.72 g/m*3 12.4 C 3.2 km/h
531 05-10-2020 20:10:00 12.3 C 9.66 g/m*3 12.3 C 1.6 km/h
532 05-10-2020 20:15:00 12.2 C 9.6 g/m*3 12.2 C 3.2 km/h
533 05-10-2020 20:20:00 12.2 C 9.6 g/m*3 12.2 C 0 km/h
534 05-10-2020 20:25:00 12.1 C 9.54 g/m*3 12.1 C 1.6 km/h
535 05-10-2020 20:30:00 12.1 C 9.65 g/m*3 12.1 C 4.8 km/h
536 05-10-2020 20:35:00 12 C 9.59 g/m*3 12 C 6.4 km/h
537 05-10-2020 20:40:00 11.9 C 9.53 g/m*3 11.9 C 1.6 km/h
538 05-10-2020 20:45:00 11.9 C 9.53 g/m*3 11.9 C 1.6 km/h
539 05-10-2020 20:50:00 11.8 C 9.58 g/m*3 11.8 C 3.2 km/h
540 05-10-2020 20:55:00 11.8 C 9.58 g/m*3 11.8 C 6.4 km/h
541 05-10-2020 21:00:00 11.9 C 9.64 g/m*3 11.9 C 3.2 km/h
542 05-10-2020 21:05:00 11.9 C 9.64 g/m*3 11.9 C 0 km/h
543 05-10-2020 21:10:00 11.9 C 9.64 g/m*3 11.9 C 0 km/h
544 05-10-2020 21:15:00 12 C 9.8 g/m*3 12 C 0 km/h
545 05-10-2020 21:20:00 12 C 9.8 g/m*3 12 C 0 km/h
546 05-10-2020 21:25:00 12 C 9.8 g/m*3 12 C 1.6 km/h
547 05-10-2020 21:30:00 11.9 C 9.74 g/m*3 11.9 C 0 km/h
548 05-10-2020 21:35:00 11.9 C 9.74 g/m*3 11.9 C 0 km/h
549 05-10-2020 21:40:00 11.9 C 9.74 g/m*3 11.9 C 0 km/h
550 05-10-2020 21:45:00 11.9 C 9.74 g/m*3 11.9 C 3.2 km/h
Sensor: Nr:Datum:Temp:Abs-Feuchte:Windchill:Wind:
Aussen-T/F 551 05-10-2020 21:50:00 11.8 C 9.79 g/m*3 11.8 C 1.6 km/h
552 05-10-2020 21:55:00 11.8 C 9.79 g/m*3 11.8 C 0 km/h
553 05-10-2020 22:00:00 11.8 C 9.79 g/m*3 11.8 C 1.6 km/h
554 05-10-2020 22:05:00 11.8 C 9.79 g/m*3 11.8 C 0 km/h
555 05-10-2020 22:10:00 11.8 C 9.79 g/m*3 11.8 C 0 km/h
556 05-10-2020 22:15:00 11.8 C 9.79 g/m*3 11.8 C 0 km/h
557 05-10-2020 22:20:00 11.8 C 9.79 g/m*3 11.8 C 0 km/h
558 05-10-2020 22:25:00 11.7 C 9.73 g/m*3 11.7 C 3.2 km/h
559 05-10-2020 22:30:00 11.7 C 9.73 g/m*3 11.7 C 0 km/h
560 05-10-2020 22:35:00 11.6 C 9.67 g/m*3 11.6 C 0 km/h
561 05-10-2020 22:40:00 11.4 C 9.55 g/m*3 11.4 C 0 km/h
562 05-10-2020 22:45:00 11.3 C 9.49 g/m*3 11.3 C 0 km/h
563 05-10-2020 22:50:00 11.2 C 9.53 g/m*3 11.2 C 1.6 km/h
564 05-10-2020 22:55:00 11.2 C 9.53 g/m*3 11.2 C 0 km/h
565 05-10-2020 23:00:00 11.3 C 9.59 g/m*3 11.3 C 0 km/h
566 05-10-2020 23:05:00 11.3 C 9.69 g/m*3 11.3 C 4.8 km/h
567 05-10-2020 23:10:00 11.4 C 9.75 g/m*3 11.4 C 0 km/h
568 05-10-2020 23:15:00 11.4 C 9.75 g/m*3 11.4 C 0 km/h
569 05-10-2020 23:20:00 11.5 C 9.81 g/m*3 11.5 C 1.6 km/h
570 05-10-2020 23:25:00 11.6 C 9.87 g/m*3 11.6 C 0 km/h
571 05-10-2020 23:30:00 11.6 C 9.87 g/m*3 11.6 C 6.4 km/h
572 05-10-2020 23:35:00 11.6 C 9.87 g/m*3 11.6 C 0 km/h
573 05-10-2020 23:40:00 11.6 C 9.87 g/m*3 11.6 C 1.6 km/h
574 05-10-2020 23:45:00 11.7 C 9.94 g/m*3 11.7 C 1.6 km/h
575 05-10-2020 23:50:00 11.7 C 9.94 g/m*3 11.7 C 1.6 km/h
Sensor: Nr:Datum:Temp:Abs-Feuchte:Windchill:Wind:
Aussen-T/F 576 05-10-2020 23:55:00 11.7 C 9.94 g/m*3 11.7 C 0 km/h
577 06-10-2020 00:00:00 11.8 C 10 g/m*3 11.8 C 0 km/h
578 06-10-2020 00:05:00 11.8 C 10 g/m*3 11.8 C 0 km/h
579 06-10-2020 00:10:00 11.8 C 10 g/m*3 11.8 C 0 km/h
580 06-10-2020 00:15:00 11.8 C 10 g/m*3 11.8 C 3.2 km/h
581 06-10-2020 00:20:00 11.8 C 10 g/m*3 11.8 C 0 km/h
582 06-10-2020 00:25:00 11.8 C 10 g/m*3 11.8 C 0 km/h
583 06-10-2020 00:30:00 11.7 C 9.94 g/m*3 11.7 C 1.6 km/h
584 06-10-2020 00:35:00 11.8 C 10.1 g/m*3 11.8 C 0 km/h
585 06-10-2020 00:40:00 11.8 C 10.1 g/m*3 11.8 C 0 km/h
586 06-10-2020 00:45:00 11.8 C 10.1 g/m*3 11.8 C 0 km/h
587 06-10-2020 00:50:00 11.8 C 10.1 g/m*3 11.8 C 3.2 km/h
588 06-10-2020 00:55:00 11.8 C 10.1 g/m*3 11.8 C 0 km/h
589 06-10-2020 01:00:00 11.8 C 10.1 g/m*3 11.8 C 0 km/h
590 06-10-2020 01:05:00 11.8 C 10.1 g/m*3 11.8 C 0 km/h
591 06-10-2020 01:10:00 11.8 C 10.1 g/m*3 11.8 C 1.6 km/h
592 06-10-2020 01:15:00 11.8 C 10.1 g/m*3 11.8 C 0 km/h
593 06-10-2020 01:20:00 11.8 C 10.1 g/m*3 11.8 C 1.6 km/h
594 06-10-2020 01:25:00 11.8 C 10.1 g/m*3 11.8 C 0 km/h
595 06-10-2020 01:30:00 11.8 C 10.1 g/m*3 11.8 C 4.8 km/h
596 06-10-2020 01:35:00 11.8 C 10.1 g/m*3 11.8 C 4.8 km/h
597 06-10-2020 01:40:00 11.8 C 10.1 g/m*3 11.8 C 1.6 km/h
598 06-10-2020 01:45:00 11.8 C 10.1 g/m*3 11.8 C 0 km/h
599 06-10-2020 01:50:00 11.8 C 10.1 g/m*3 11.8 C 3.2 km/h
600 06-10-2020 01:55:00 11.8 C 10.1 g/m*3 11.8 C 8.1 km/h
Sensor: Nr:Datum:Temp:Abs-Feuchte:Windchill:Wind:
Aussen-T/F 601 06-10-2020 02:00:00 11.8 C 10.1 g/m*3 11.8 C 9.7 km/h
602 06-10-2020 02:05:00 11.8 C 10.1 g/m*3 11.8 C 9.7 km/h
603 06-10-2020 02:10:00 11.8 C 10.1 g/m*3 11.8 C 0 km/h
604 06-10-2020 02:15:00 11.8 C 10.1 g/m*3 11.8 C 0 km/h
605 06-10-2020 02:20:00 11.8 C 10.1 g/m*3 11.8 C 1.6 km/h
606 06-10-2020 02:25:00 11.8 C 10.1 g/m*3 11.8 C 1.6 km/h
607 06-10-2020 02:30:00 11.8 C 10.1 g/m*3 11.8 C 1.6 km/h
608 06-10-2020 02:35:00 11.8 C 10.1 g/m*3 11.8 C 3.2 km/h
609 06-10-2020 02:40:00 11.8 C 10.1 g/m*3 11.8 C 1.6 km/h
610 06-10-2020 02:45:00 11.8 C 10.1 g/m*3 11.8 C 0 km/h
611 06-10-2020 02:50:00 11.8 C 10.1 g/m*3 11.8 C 1.6 km/h
612 06-10-2020 02:55:00 11.8 C 10.1 g/m*3 11.8 C 1.6 km/h
613 06-10-2020 03:00:00 11.8 C 10.1 g/m*3 11.8 C 1.6 km/h
614 06-10-2020 03:05:00 11.8 C 10.1 g/m*3 11.8 C 3.2 km/h
615 06-10-2020 03:10:00 11.9 C 10.17 g/m*3 11.9 C 3.2 km/h
616 06-10-2020 03:15:00 11.8 C 10.1 g/m*3 11.8 C 3.2 km/h
617 06-10-2020 03:20:00 11.8 C 10.1 g/m*3 11.8 C 0 km/h
618 06-10-2020 03:25:00 11.9 C 10.17 g/m*3 11.9 C 6.4 km/h
619 06-10-2020 03:30:00 11.9 C 10.17 g/m*3 11.9 C 3.2 km/h
620 06-10-2020 03:35:00 11.9 C 10.17 g/m*3 11.9 C 4.8 km/h
621 06-10-2020 03:40:00 12 C 10.23 g/m*3 12 C 8.1 km/h
622 06-10-2020 03:45:00 12.1 C 10.4 g/m*3 12.1 C 8.1 km/h
623 06-10-2020 03:50:00 12.1 C 10.4 g/m*3 12.1 C 12.9 km/h
624 06-10-2020 03:55:00 12.2 C 10.36 g/m*3 12.2 C 3.2 km/h
625 06-10-2020 04:00:00 12.2 C 10.36 g/m*3 12.2 C 16.1 km/h
Sensor: Nr:Datum:Temp:Abs-Feuchte:Windchill:Wind:
Aussen-T/F 626 06-10-2020 04:05:00 12.3 C 10.42 g/m*3 12.3 C 19.3 km/h
627 06-10-2020 04:10:00 12.3 C 10.42 g/m*3 12.3 C 19.3 km/h
628 06-10-2020 04:15:00 12.3 C 10.42 g/m*3 12.3 C 20.9 km/h
629 06-10-2020 04:20:00 12.3 C 10.32 g/m*3 12.3 C 12.9 km/h
630 06-10-2020 04:25:00 12.3 C 10.32 g/m*3 12.3 C 8.1 km/h
631 06-10-2020 04:30:00 12.3 C 10.32 g/m*3 12.3 C 16.1 km/h
632 06-10-2020 04:35:00 12.3 C 10.32 g/m*3 12.3 C 20.9 km/h
633 06-10-2020 04:40:00 12.3 C 10.32 g/m*3 12.3 C 14.5 km/h
634 06-10-2020 04:45:00 12.3 C 10.32 g/m*3 12.3 C 16.1 km/h
635 06-10-2020 04:50:00 12.2 C 10.14 g/m*3 12.2 C 16.1 km/h
636 06-10-2020 04:55:00 12.2 C 10.14 g/m*3 12.2 C 14.5 km/h
637 06-10-2020 05:00:00 12.2 C 10.14 g/m*3 12.2 C 30.6 km/h
638 06-10-2020 05:05:00 12.3 C 10.21 g/m*3 12.3 C 22.5 km/h
639 06-10-2020 05:10:00 12.3 C 10.1 g/m*3 12.3 C 29 km/h
640 06-10-2020 05:15:00 12.2 C 10.04 g/m*3 12.2 C 27.4 km/h
641 06-10-2020 05:20:00 12.2 C 10.04 g/m*3 12.2 C 17.7 km/h
642 06-10-2020 05:25:00 12.1 C 9.87 g/m*3 12.1 C 17.7 km/h
643 06-10-2020 05:30:00 12.1 C 9.87 g/m*3 12.1 C 17.7 km/h
644 06-10-2020 05:35:00 12.1 C 9.76 g/m*3 12.1 C 29 km/h
645 06-10-2020 05:40:00 12.1 C 9.76 g/m*3 12.1 C 17.7 km/h
646 06-10-2020 05:45:00 12 C 9.7 g/m*3 12 C 16.1 km/h
647 06-10-2020 05:50:00 11.9 C 9.64 g/m*3 11.9 C 25.7 km/h
648 06-10-2020 05:55:00 11.9 C 9.53 g/m*3 11.9 C 22.5 km/h
649 06-10-2020 06:00:00 11.9 C 9.53 g/m*3 11.9 C 16.1 km/h
650 06-10-2020 06:05:00 11.8 C 9.47 g/m*3 11.8 C 16.1 km/h
Sensor: Nr:Datum:Temp:Abs-Feuchte:Windchill:Wind:
Aussen-T/F 651 06-10-2020 06:10:00 11.8 C 9.47 g/m*3 11.8 C 16.1 km/h
652 06-10-2020 06:15:00 11.8 C 9.37 g/m*3 11.8 C 16.1 km/h
653 06-10-2020 06:20:00 11.8 C 9.37 g/m*3 11.8 C 16.1 km/h
654 06-10-2020 06:25:00 11.8 C 9.37 g/m*3 11.8 C 16.1 km/h
655 06-10-2020 06:30:00 11.8 C 9.37 g/m*3 11.8 C 16.1 km/h
656 06-10-2020 06:35:00 11.7 C 9.31 g/m*3 11.7 C 24.1 km/h
657 06-10-2020 06:40:00 11.8 C 9.37 g/m*3 11.8 C 16.1 km/h
658 06-10-2020 06:45:00 11.8 C 9.37 g/m*3 11.8 C 12.9 km/h
659 06-10-2020 06:50:00 11.8 C 9.37 g/m*3 11.8 C 17.7 km/h
660 06-10-2020 06:55:00 11.8 C 9.37 g/m*3 11.8 C 16.1 km/h
661 06-10-2020 07:00:00 11.8 C 9.37 g/m*3 11.8 C 16.1 km/h
662 06-10-2020 07:05:00 11.8 C 9.37 g/m*3 11.8 C 12.9 km/h
663 06-10-2020 07:10:00 11.7 C 9.31 g/m*3 11.7 C 9.7 km/h
664 06-10-2020 07:15:00 11.7 C 9.2 g/m*3 11.7 C 17.7 km/h
665 06-10-2020 07:20:00 11.7 C 9.2 g/m*3 11.7 C 11.3 km/h
666 06-10-2020 07:25:00 11.7 C 9.2 g/m*3 11.7 C 9.7 km/h
667 06-10-2020 07:30:00 11.7 C 9.2 g/m*3 11.7 C 11.3 km/h
668 06-10-2020 07:35:00 11.6 C 9.15 g/m*3 11.6 C 8.1 km/h
669 06-10-2020 07:40:00 11.6 C 9.15 g/m*3 11.6 C 17.7 km/h
670 06-10-2020 07:45:00 11.7 C 9.2 g/m*3 11.7 C 4.8 km/h
671 06-10-2020 07:50:00 11.7 C 9.2 g/m*3 11.7 C 9.7 km/h
672 06-10-2020 07:55:00 11.8 C 9.26 g/m*3 11.8 C 9.7 km/h
673 06-10-2020 08:00:00 11.8 C 9.26 g/m*3 11.8 C 8.1 km/h
674 06-10-2020 08:05:00 11.8 C 9.16 g/m*3 11.8 C 14.5 km/h
675 06-10-2020 08:10:00 11.8 C 9.16 g/m*3 11.8 C 8.1 km/h
Sensor: Nr:Datum:Temp:Abs-Feuchte:Windchill:Wind:
Aussen-T/F 676 06-10-2020 08:15:00 11.8 C 9.16 g/m*3 11.8 C 11.3 km/h
677 06-10-2020 08:20:00 11.9 C 9.21 g/m*3 11.9 C 14.5 km/h
678 06-10-2020 08:25:00 11.9 C 9.21 g/m*3 11.9 C 6.4 km/h
679 06-10-2020 08:30:00 11.9 C 9.21 g/m*3 11.9 C 8.1 km/h
680 06-10-2020 08:35:00 12 C 9.27 g/m*3 12 C 6.4 km/h
681 06-10-2020 08:40:00 12.1 C 9.33 g/m*3 12.1 C 12.9 km/h
682 06-10-2020 08:45:00 12.1 C 9.33 g/m*3 12.1 C 1.6 km/h
683 06-10-2020 08:50:00 12.1 C 9.44 g/m*3 12.1 C 4.8 km/h
684 06-10-2020 08:55:00 12.2 C 9.39 g/m*3 12.2 C 8.1 km/h
685 06-10-2020 09:00:00 12.2 C 9.39 g/m*3 12.2 C 3.2 km/h
686 06-10-2020 09:05:00 12.3 C 9.34 g/m*3 12.3 C 6.4 km/h
687 06-10-2020 09:10:00 12.4 C 9.4 g/m*3 12.4 C 6.4 km/h
688 06-10-2020 09:15:00 12.5 C 9.46 g/m*3 12.5 C 6.4 km/h
689 06-10-2020 09:20:00 12.6 C 9.51 g/m*3 12.6 C 4.8 km/h
690 06-10-2020 09:25:00 12.6 C 9.62 g/m*3 12.6 C 6.4 km/h
691 06-10-2020 09:30:00 12.7 C 9.46 g/m*3 12.7 C 8.1 km/h
692 06-10-2020 09:35:00 12.7 C 9.57 g/m*3 12.7 C 3.2 km/h
693 06-10-2020 09:40:00 12.8 C 9.63 g/m*3 12.8 C 3.2 km/h
694 06-10-2020 09:45:00 12.8 C 9.63 g/m*3 12.8 C 6.4 km/h
695 06-10-2020 09:50:00 12.8 C 9.52 g/m*3 12.8 C 4.8 km/h
696 06-10-2020 09:55:00 12.9 C 9.69 g/m*3 12.9 C 1.6 km/h
697 06-10-2020 10:00:00 12.8 C 9.41 g/m*3 12.8 C 9.7 km/h
698 06-10-2020 10:05:00 12.9 C 9.58 g/m*3 12.9 C 1.6 km/h
699 06-10-2020 10:10:00 12.9 C 9.58 g/m*3 12.9 C 3.2 km/h
700 06-10-2020 10:15:00 13.1 C 9.81 g/m*3 13.1 C 1.6 km/h
Sensor: Nr:Datum:Temp:Abs-Feuchte:Windchill:Wind:
Aussen-T/F 701 06-10-2020 10:20:00 13.1 C 9.81 g/m*3 13.1 C 3.2 km/h
702 06-10-2020 10:25:00 13.2 C 9.76 g/m*3 13.2 C 9.7 km/h
703 06-10-2020 10:30:00 13.3 C 9.94 g/m*3 13.3 C 9.7 km/h
704 06-10-2020 10:35:00 13.4 C 9.88 g/m*3 13.4 C 8.1 km/h
705 06-10-2020 10:40:00 13.5 C 9.94 g/m*3 13.5 C 9.7 km/h
706 06-10-2020 10:45:00 13.7 C 9.95 g/m*3 13.7 C 6.4 km/h
707 06-10-2020 10:50:00 13.8 C 10.01 g/m*3 13.8 C 9.7 km/h
708 06-10-2020 10:55:00 13.9 C 9.95 g/m*3 13.9 C 11.3 km/h
709 06-10-2020 11:00:00 13.9 C 9.95 g/m*3 13.9 C 16.1 km/h
710 06-10-2020 11:05:00 13.9 C 9.95 g/m*3 13.9 C 11.3 km/h
711 06-10-2020 11:10:00 13.9 C 10.07 g/m*3 13.9 C 11.3 km/h
712 06-10-2020 11:15:00 13.8 C 10.01 g/m*3 13.8 C 11.3 km/h
713 06-10-2020 11:20:00 13.8 C 10.01 g/m*3 13.8 C 12.9 km/h
714 06-10-2020 11:25:00 13.8 C 10.01 g/m*3 13.8 C 12.9 km/h
715 06-10-2020 11:30:00 13.9 C 10.07 g/m*3 13.9 C 8.1 km/h
716 06-10-2020 11:35:00 13.9 C 10.07 g/m*3 13.9 C 11.3 km/h
717 06-10-2020 11:40:00 13.9 C 10.19 g/m*3 13.9 C 12.9 km/h
718 06-10-2020 11:45:00 13.9 C 10.31 g/m*3 13.9 C 8.1 km/h
719 06-10-2020 11:50:00 13.9 C 10.31 g/m*3 13.9 C 9.7 km/h
720 06-10-2020 11:55:00 14 C 10.49 g/m*3 14 C 9.7 km/h
721 06-10-2020 12:00:00 14.2 C 10.62 g/m*3 14.2 C 3.2 km/h
722 06-10-2020 12:05:00 14.3 C 10.57 g/m*3 14.3 C 11.3 km/h
723 06-10-2020 12:10:00 14.5 C 10.57 g/m*3 14.5 C 8.1 km/h
724 06-10-2020 12:15:00 14.7 C 10.58 g/m*3 14.7 C 19.3 km/h
725 06-10-2020 12:20:00 14.8 C 10.64 g/m*3 14.8 C 12.9 km/h
Sensor: Nr:Datum:Temp:Abs-Feuchte:Windchill:Wind:
Aussen-T/F 726 06-10-2020 12:25:00 14.9 C 10.58 g/m*3 14.9 C 19.3 km/h
727 06-10-2020 12:30:00 14.9 C 10.58 g/m*3 14.9 C 11.3 km/h
728 06-10-2020 12:35:00 15 C 10.64 g/m*3 15 C 9.7 km/h
729 06-10-2020 12:40:00 15.1 C 10.71 g/m*3 15.1 C 9.7 km/h
730 06-10-2020 12:45:00 15.1 C 10.58 g/m*3 15.1 C 17.7 km/h
731 06-10-2020 12:50:00 15.1 C 10.58 g/m*3 15.1 C 6.4 km/h
732 06-10-2020 12:55:00 15.1 C 10.58 g/m*3 15.1 C 8.1 km/h
733 06-10-2020 13:00:00 15.1 C 10.58 g/m*3 15.1 C 4.8 km/h
734 06-10-2020 13:05:00 15.1 C 10.71 g/m*3 15.1 C 8.1 km/h
735 06-10-2020 13:10:00 15.1 C 10.58 g/m*3 15.1 C 9.7 km/h
736 06-10-2020 13:15:00 15 C 10.51 g/m*3 15 C 9.7 km/h
737 06-10-2020 13:20:00 14.9 C 10.58 g/m*3 14.9 C 6.4 km/h
738 06-10-2020 13:25:00 15 C 10.64 g/m*3 15 C 11.3 km/h
739 06-10-2020 13:30:00 15.1 C 10.58 g/m*3 15.1 C 6.4 km/h
740 06-10-2020 13:35:00 15.1 C 10.71 g/m*3 15.1 C 8.1 km/h
741 06-10-2020 13:40:00 15.1 C 10.71 g/m*3 15.1 C 8.1 km/h
742 06-10-2020 13:45:00 15.1 C 10.71 g/m*3 15.1 C 6.4 km/h
743 06-10-2020 13:50:00 15.1 C 10.71 g/m*3 15.1 C 8.1 km/h
744 06-10-2020 13:55:00 14.9 C 10.83 g/m*3 14.9 C 9.7 km/h
745 06-10-2020 14:00:00 15 C 11.03 g/m*3 15 C 6.4 km/h
746 06-10-2020 14:05:00 15.1 C 10.97 g/m*3 15.1 C 4.8 km/h
747 06-10-2020 14:10:00 15.1 C 11.09 g/m*3 15.1 C 6.4 km/h
748 06-10-2020 14:15:00 15.1 C 11.09 g/m*3 15.1 C 11.3 km/h
749 06-10-2020 14:20:00 14.8 C 11.15 g/m*3 14.8 C 9.7 km/h
750 06-10-2020 14:25:00 14.7 C 11.21 g/m*3 14.7 C 9.7 km/h
Sensor: Nr:Datum:Temp:Abs-Feuchte:Windchill:Wind:
Aussen-T/F 751 06-10-2020 14:30:00 14.7 C 11.21 g/m*3 14.7 C 6.4 km/h
752 06-10-2020 14:35:00 14.8 C 11.27 g/m*3 14.8 C 14.5 km/h
753 06-10-2020 14:40:00 15.1 C 11.35 g/m*3 15.1 C 11.3 km/h
754 06-10-2020 14:45:00 15.2 C 11.29 g/m*3 15.2 C 12.9 km/h
755 06-10-2020 14:50:00 15.4 C 11.3 g/m*3 15.4 C 9.7 km/h
756 06-10-2020 14:55:00 15.6 C 11.17 g/m*3 15.6 C 14.5 km/h
757 06-10-2020 15:00:00 15.6 C 11.04 g/m*3 15.6 C 16.1 km/h
758 06-10-2020 15:05:00 15.6 C 10.91 g/m*3 15.6 C 17.7 km/h
759 06-10-2020 15:10:00 15.5 C 10.84 g/m*3 15.5 C 12.9 km/h
760 06-10-2020 15:15:00 15.4 C 10.64 g/m*3 15.4 C 20.9 km/h
761 06-10-2020 15:20:00 15.2 C 10.77 g/m*3 15.2 C 16.1 km/h
762 06-10-2020 15:25:00 15.1 C 10.84 g/m*3 15.1 C 16.1 km/h
763 06-10-2020 15:30:00 15.1 C 10.84 g/m*3 15.1 C 17.7 km/h
764 06-10-2020 15:35:00 15.2 C 11.03 g/m*3 15.2 C 9.7 km/h
765 06-10-2020 15:40:00 15.2 C 10.9 g/m*3 15.2 C 16.1 km/h
766 06-10-2020 15:45:00 15.3 C 10.84 g/m*3 15.3 C 9.7 km/h
767 06-10-2020 15:50:00 15.5 C 11.1 g/m*3 15.5 C 14.5 km/h
768 06-10-2020 15:55:00 15.6 C 11.17 g/m*3 15.6 C 9.7 km/h
769 06-10-2020 16:00:00 15.7 C 10.84 g/m*3 15.7 C 14.5 km/h
770 06-10-2020 16:05:00 15.6 C 10.77 g/m*3 15.6 C 12.9 km/h
771 06-10-2020 16:10:00 15.6 C 10.77 g/m*3 15.6 C 16.1 km/h
772 06-10-2020 16:15:00 15.6 C 10.91 g/m*3 15.6 C 16.1 km/h
773 06-10-2020 16:20:00 15.6 C 10.77 g/m*3 15.6 C 12.9 km/h
774 06-10-2020 16:25:00 15.4 C 10.64 g/m*3 15.4 C 11.3 km/h
775 06-10-2020 16:30:00 15.4 C 10.64 g/m*3 15.4 C 6.4 km/h
Sensor: Nr:Datum:Temp:Abs-Feuchte:Windchill:Wind:
Aussen-T/F 776 06-10-2020 16:35:00 15.3 C 10.71 g/m*3 15.3 C 9.7 km/h
777 06-10-2020 16:40:00 15.3 C 10.71 g/m*3 15.3 C 8.1 km/h
778 06-10-2020 16:45:00 15.2 C 10.64 g/m*3 15.2 C 16.1 km/h
779 06-10-2020 16:50:00 15.2 C 10.77 g/m*3 15.2 C 9.7 km/h
780 06-10-2020 16:55:00 15.2 C 10.64 g/m*3 15.2 C 11.3 km/h
781 06-10-2020 17:00:00 15.2 C 10.64 g/m*3 15.2 C 11.3 km/h
782 06-10-2020 17:05:00 15.1 C 10.58 g/m*3 15.1 C 11.3 km/h
783 06-10-2020 17:10:00 15.1 C 10.71 g/m*3 15.1 C 12.9 km/h
784 06-10-2020 17:15:00 15.1 C 10.58 g/m*3 15.1 C 11.3 km/h
785 06-10-2020 17:20:00 15 C 10.64 g/m*3 15 C 8.1 km/h
786 06-10-2020 17:25:00 14.9 C 10.58 g/m*3 14.9 C 8.1 km/h
787 06-10-2020 17:30:00 14.8 C 10.51 g/m*3 14.8 C 11.3 km/h
788 06-10-2020 17:35:00 14.8 C 10.77 g/m*3 14.8 C 6.4 km/h
789 06-10-2020 17:40:00 14.7 C 10.83 g/m*3 14.7 C 8.1 km/h
790 06-10-2020 17:45:00 14.4 C 10.75 g/m*3 14.4 C 9.7 km/h
791 06-10-2020 17:50:00 14.2 C 10.75 g/m*3 14.2 C 9.7 km/h
792 06-10-2020 17:55:00 14.1 C 10.8 g/m*3 14.1 C 14.5 km/h
793 06-10-2020 18:00:00 13.9 C 10.79 g/m*3 13.9 C 9.7 km/h
794 06-10-2020 18:05:00 13.8 C 10.72 g/m*3 13.8 C 8.1 km/h
795 06-10-2020 18:10:00 13.7 C 10.66 g/m*3 13.7 C 8.1 km/h
796 06-10-2020 18:15:00 13.6 C 10.59 g/m*3 13.6 C 9.7 km/h
797 06-10-2020 18:20:00 13.4 C 10.46 g/m*3 13.4 C 8.1 km/h
798 06-10-2020 18:25:00 13.3 C 10.4 g/m*3 13.3 C 8.1 km/h
799 06-10-2020 18:30:00 13.2 C 10.45 g/m*3 13.2 C 9.7 km/h
800 06-10-2020 18:35:00 13.2 C 10.33 g/m*3 13.2 C 12.9 km/h
Sensor: Nr:Datum:Temp:Abs-Feuchte:Windchill:Wind:
Aussen-T/F 801 06-10-2020 18:40:00 13.1 C 10.27 g/m*3 13.1 C 14.5 km/h
802 06-10-2020 18:45:00 13.1 C 10.27 g/m*3 13.1 C 3.2 km/h
803 06-10-2020 18:50:00 13.1 C 10.27 g/m*3 13.1 C 8.1 km/h
804 06-10-2020 18:55:00 13 C 10.32 g/m*3 13 C 6.4 km/h
805 06-10-2020 19:00:00 12.9 C 10.26 g/m*3 12.9 C 4.8 km/h
806 06-10-2020 19:05:00 12.9 C 10.26 g/m*3 12.9 C 9.7 km/h
807 06-10-2020 19:10:00 12.9 C 10.14 g/m*3 12.9 C 12.9 km/h
808 06-10-2020 19:15:00 12.9 C 10.14 g/m*3 12.9 C 4.8 km/h
809 06-10-2020 19:20:00 12.9 C 10.03 g/m*3 12.9 C 8.1 km/h
810 06-10-2020 19:25:00 12.8 C 9.97 g/m*3 12.8 C 6.4 km/h
811 06-10-2020 19:30:00 12.8 C 9.97 g/m*3 12.8 C 16.1 km/h
812 06-10-2020 19:35:00 12.9 C 10.03 g/m*3 12.9 C 11.3 km/h
813 06-10-2020 19:40:00 13 C 10.09 g/m*3 13 C 14.5 km/h
814 06-10-2020 19:45:00 13.1 C 10.04 g/m*3 13.1 C 12.9 km/h
815 06-10-2020 19:50:00 13.1 C 10.16 g/m*3 13.1 C 6.4 km/h
816 06-10-2020 19:55:00 13.1 C 10.16 g/m*3 13.1 C 6.4 km/h
817 06-10-2020 20:00:00 13.1 C 10.16 g/m*3 13.1 C 9.7 km/h
818 06-10-2020 20:05:00 13.1 C 10.16 g/m*3 13.1 C 16.1 km/h
819 06-10-2020 20:10:00 12.9 C 9.92 g/m*3 12.9 C 11.3 km/h
820 06-10-2020 20:15:00 12.9 C 9.92 g/m*3 12.9 C 9.7 km/h
821 06-10-2020 20:20:00 12.9 C 9.92 g/m*3 12.9 C 17.7 km/h
822 06-10-2020 20:25:00 12.9 C 9.92 g/m*3 12.9 C 0 km/h
823 06-10-2020 20:30:00 12.9 C 10.03 g/m*3 12.9 C 4.8 km/h
824 06-10-2020 20:35:00 12.8 C 9.97 g/m*3 12.8 C 1.6 km/h
825 06-10-2020 20:40:00 12.8 C 9.97 g/m*3 12.8 C 4.8 km/h
Sensor: Nr:Datum:Temp:Abs-Feuchte:Windchill:Wind:
Aussen-T/F 826 06-10-2020 20:45:00 12.7 C 9.91 g/m*3 12.7 C 6.4 km/h
827 06-10-2020 20:50:00 12.7 C 10.02 g/m*3 12.7 C 3.2 km/h
828 06-10-2020 20:55:00 12.7 C 10.02 g/m*3 12.7 C 3.2 km/h
829 06-10-2020 21:00:00 12.7 C 10.02 g/m*3 12.7 C 1.6 km/h
830 06-10-2020 21:05:00 12.6 C 9.85 g/m*3 12.6 C 6.4 km/h
831 06-10-2020 21:10:00 12.6 C 9.85 g/m*3 12.6 C 4.8 km/h
832 06-10-2020 21:15:00 12.6 C 9.85 g/m*3 12.6 C 8.1 km/h
833 06-10-2020 21:20:00 12.6 C 9.85 g/m*3 12.6 C 1.6 km/h
834 06-10-2020 21:25:00 12.6 C 9.85 g/m*3 12.6 C 12.9 km/h
835 06-10-2020 21:30:00 12.6 C 9.85 g/m*3 12.6 C 8.1 km/h
836 06-10-2020 21:35:00 12.7 C 9.91 g/m*3 12.7 C 4.8 km/h
837 06-10-2020 21:40:00 12.7 C 9.8 g/m*3 12.7 C 4.8 km/h
838 06-10-2020 21:45:00 12.8 C 9.86 g/m*3 12.8 C 12.9 km/h
839 06-10-2020 21:50:00 12.8 C 9.86 g/m*3 12.8 C 11.3 km/h
840 06-10-2020 21:55:00 12.8 C 9.86 g/m*3 12.8 C 1.6 km/h
841 06-10-2020 22:00:00 12.8 C 9.86 g/m*3 12.8 C 14.5 km/h
842 06-10-2020 22:05:00 12.8 C 9.86 g/m*3 12.8 C 9.7 km/h
843 06-10-2020 22:10:00 12.8 C 9.86 g/m*3 12.8 C 11.3 km/h
844 06-10-2020 22:15:00 12.8 C 9.86 g/m*3 12.8 C 9.7 km/h
845 06-10-2020 22:20:00 12.7 C 9.8 g/m*3 12.7 C 12.9 km/h
846 06-10-2020 22:25:00 12.7 C 9.8 g/m*3 12.7 C 11.3 km/h
847 06-10-2020 22:30:00 12.7 C 9.8 g/m*3 12.7 C 14.5 km/h
848 06-10-2020 22:35:00 12.8 C 9.86 g/m*3 12.8 C 9.7 km/h
849 06-10-2020 22:40:00 12.8 C 9.86 g/m*3 12.8 C 16.1 km/h
850 06-10-2020 22:45:00 12.8 C 9.74 g/m*3 12.8 C 9.7 km/h
Sensor: Nr:Datum:Temp:Abs-Feuchte:Windchill:Wind:
Aussen-T/F 851 06-10-2020 22:50:00 12.8 C 9.74 g/m*3 12.8 C 14.5 km/h
852 06-10-2020 22:55:00 12.8 C 9.74 g/m*3 12.8 C 16.1 km/h
853 06-10-2020 23:00:00 12.8 C 9.74 g/m*3 12.8 C 12.9 km/h
854 06-10-2020 23:05:00 12.8 C 9.74 g/m*3 12.8 C 11.3 km/h
855 06-10-2020 23:10:00 12.7 C 9.68 g/m*3 12.7 C 9.7 km/h
856 06-10-2020 23:15:00 12.7 C 9.68 g/m*3 12.7 C 9.7 km/h
857 06-10-2020 23:20:00 12.7 C 9.68 g/m*3 12.7 C 17.7 km/h
858 06-10-2020 23:25:00 12.7 C 9.68 g/m*3 12.7 C 16.1 km/h
859 06-10-2020 23:30:00 12.7 C 9.68 g/m*3 12.7 C 11.3 km/h
860 06-10-2020 23:35:00 12.6 C 9.62 g/m*3 12.6 C 14.5 km/h
861 06-10-2020 23:40:00 12.6 C 9.62 g/m*3 12.6 C 12.9 km/h
862 06-10-2020 23:45:00 12.6 C 9.62 g/m*3 12.6 C 9.7 km/h
863 06-10-2020 23:50:00 12.6 C 9.62 g/m*3 12.6 C 8.1 km/h
864 06-10-2020 23:55:00 12.5 C 9.57 g/m*3 12.5 C 16.1 km/h
865 07-10-2020 00:00:00 12.4 C 9.62 g/m*3 12.4 C 14.5 km/h
866 07-10-2020 00:05:00 12.4 C 9.62 g/m*3 12.4 C 14.5 km/h
867 07-10-2020 00:10:00 12.3 C 9.45 g/m*3 12.3 C 6.4 km/h
868 07-10-2020 00:15:00 12.3 C 9.56 g/m*3 12.3 C 8.1 km/h
869 07-10-2020 00:20:00 12.2 C 9.5 g/m*3 12.2 C 12.9 km/h
870 07-10-2020 00:25:00 12.2 C 9.5 g/m*3 12.2 C 9.7 km/h
871 07-10-2020 00:30:00 12.2 C 9.5 g/m*3 12.2 C 9.7 km/h
872 07-10-2020 00:35:00 12.2 C 9.5 g/m*3 12.2 C 11.3 km/h
873 07-10-2020 00:40:00 12.2 C 9.5 g/m*3 12.2 C 11.3 km/h
874 07-10-2020 00:45:00 12.2 C 9.5 g/m*3 12.2 C 3.2 km/h
875 07-10-2020 00:50:00 12.2 C 9.5 g/m*3 12.2 C 8.1 km/h
Sensor: Nr:Datum:Temp:Abs-Feuchte:Windchill:Wind:
Aussen-T/F 876 07-10-2020 00:55:00 12.2 C 9.6 g/m*3 12.2 C 3.2 km/h
877 07-10-2020 01:00:00 12.2 C 9.6 g/m*3 12.2 C 1.6 km/h
878 07-10-2020 01:05:00 12.2 C 9.6 g/m*3 12.2 C 6.4 km/h
879 07-10-2020 01:10:00 12.2 C 9.6 g/m*3 12.2 C 8.1 km/h
880 07-10-2020 01:15:00 12.3 C 9.56 g/m*3 12.3 C 6.4 km/h
881 07-10-2020 01:20:00 12.3 C 9.56 g/m*3 12.3 C 9.7 km/h
882 07-10-2020 01:25:00 12.3 C 9.56 g/m*3 12.3 C 6.4 km/h
883 07-10-2020 01:30:00 12.4 C 9.62 g/m*3 12.4 C 16.1 km/h
884 07-10-2020 01:35:00 12.4 C 9.62 g/m*3 12.4 C 9.7 km/h
885 07-10-2020 01:40:00 12.5 C 9.68 g/m*3 12.5 C 14.5 km/h
886 07-10-2020 01:45:00 12.4 C 9.62 g/m*3 12.4 C 14.5 km/h
887 07-10-2020 01:50:00 12.4 C 9.72 g/m*3 12.4 C 11.3 km/h
888 07-10-2020 01:55:00 12.3 C 9.66 g/m*3 12.3 C 8.1 km/h
889 07-10-2020 02:00:00 12.3 C 9.77 g/m*3 12.3 C 14.5 km/h
890 07-10-2020 02:05:00 12.2 C 9.71 g/m*3 12.2 C 12.9 km/h
891 07-10-2020 02:10:00 12.1 C 9.65 g/m*3 12.1 C 11.3 km/h
892 07-10-2020 02:15:00 12 C 9.7 g/m*3 12 C 12.9 km/h
893 07-10-2020 02:20:00 11.9 C 9.64 g/m*3 11.9 C 8.1 km/h
894 07-10-2020 02:25:00 11.9 C 9.64 g/m*3 11.9 C 6.4 km/h
895 07-10-2020 02:30:00 11.8 C 9.58 g/m*3 11.8 C 9.7 km/h
896 07-10-2020 02:35:00 11.8 C 9.58 g/m*3 11.8 C 14.5 km/h
897 07-10-2020 02:40:00 11.8 C 9.58 g/m*3 11.8 C 8.1 km/h
898 07-10-2020 02:45:00 11.7 C 9.52 g/m*3 11.7 C 8.1 km/h
899 07-10-2020 02:50:00 11.7 C 9.62 g/m*3 11.7 C 16.1 km/h
900 07-10-2020 02:55:00 11.7 C 9.52 g/m*3 11.7 C 19.3 km/h
Sensor: Nr:Datum:Temp:Abs-Feuchte:Windchill:Wind:
Aussen-T/F 901 07-10-2020 03:00:00 11.7 C 9.52 g/m*3 11.7 C 12.9 km/h
902 07-10-2020 03:05:00 11.7 C 9.52 g/m*3 11.7 C 11.3 km/h
903 07-10-2020 03:10:00 11.7 C 9.52 g/m*3 11.7 C 12.9 km/h
904 07-10-2020 03:15:00 11.8 C 9.58 g/m*3 11.8 C 17.7 km/h
905 07-10-2020 03:20:00 11.8 C 9.58 g/m*3 11.8 C 11.3 km/h
906 07-10-2020 03:25:00 11.8 C 9.47 g/m*3 11.8 C 12.9 km/h
907 07-10-2020 03:30:00 11.9 C 9.53 g/m*3 11.9 C 9.7 km/h
908 07-10-2020 03:35:00 11.9 C 9.53 g/m*3 11.9 C 8.1 km/h
909 07-10-2020 03:40:00 11.9 C 9.53 g/m*3 11.9 C 8.1 km/h
910 07-10-2020 03:45:00 11.9 C 9.53 g/m*3 11.9 C 12.9 km/h
911 07-10-2020 03:50:00 12 C 9.59 g/m*3 12 C 14.5 km/h
912 07-10-2020 03:55:00 12.1 C 9.54 g/m*3 12.1 C 9.7 km/h
913 07-10-2020 04:00:00 12.1 C 9.54 g/m*3 12.1 C 12.9 km/h
914 07-10-2020 04:05:00 12.1 C 9.44 g/m*3 12.1 C 12.9 km/h
915 07-10-2020 04:10:00 12.2 C 9.5 g/m*3 12.2 C 9.7 km/h
916 07-10-2020 04:15:00 12.2 C 9.5 g/m*3 12.2 C 6.4 km/h
917 07-10-2020 04:20:00 12.2 C 9.5 g/m*3 12.2 C 14.5 km/h
918 07-10-2020 04:25:00 12.2 C 9.5 g/m*3 12.2 C 12.9 km/h
919 07-10-2020 04:30:00 12.2 C 9.5 g/m*3 12.2 C 12.9 km/h
920 07-10-2020 04:35:00 12.2 C 9.5 g/m*3 12.2 C 9.7 km/h
921 07-10-2020 04:40:00 12.2 C 9.5 g/m*3 12.2 C 11.3 km/h
922 07-10-2020 04:45:00 12.2 C 9.39 g/m*3 12.2 C 14.5 km/h
923 07-10-2020 04:50:00 12.3 C 9.45 g/m*3 12.3 C 14.5 km/h
924 07-10-2020 04:55:00 12.3 C 9.45 g/m*3 12.3 C 11.3 km/h
925 07-10-2020 05:00:00 12.3 C 9.45 g/m*3 12.3 C 14.5 km/h
Sensor: Nr:Datum:Temp:Abs-Feuchte:Windchill:Wind:
Aussen-T/F 926 07-10-2020 05:05:00 12.3 C 9.45 g/m*3 12.3 C 9.7 km/h
927 07-10-2020 05:10:00 12.2 C 9.39 g/m*3 12.2 C 8.1 km/h
928 07-10-2020 05:15:00 12.2 C 9.39 g/m*3 12.2 C 8.1 km/h
929 07-10-2020 05:20:00 12.1 C 9.44 g/m*3 12.1 C 9.7 km/h
930 07-10-2020 05:25:00 12.1 C 9.44 g/m*3 12.1 C 14.5 km/h
931 07-10-2020 05:30:00 12.1 C 9.44 g/m*3 12.1 C 12.9 km/h
932 07-10-2020 05:35:00 12.1 C 9.44 g/m*3 12.1 C 8.1 km/h
933 07-10-2020 05:40:00 12.1 C 9.44 g/m*3 12.1 C 8.1 km/h
934 07-10-2020 05:45:00 12.1 C 9.44 g/m*3 12.1 C 9.7 km/h
935 07-10-2020 05:50:00 12.1 C 9.44 g/m*3 12.1 C 11.3 km/h
936 07-10-2020 05:55:00 12.1 C 9.44 g/m*3 12.1 C 8.1 km/h
937 07-10-2020 06:00:00 12.1 C 9.44 g/m*3 12.1 C 14.5 km/h
938 07-10-2020 06:05:00 12.1 C 9.44 g/m*3 12.1 C 12.9 km/h
939 07-10-2020 06:10:00 12.1 C 9.44 g/m*3 12.1 C 14.5 km/h
940 07-10-2020 06:15:00 12.1 C 9.44 g/m*3 12.1 C 20.9 km/h
941 07-10-2020 06:20:00 12.1 C 9.44 g/m*3 12.1 C 14.5 km/h
942 07-10-2020 06:25:00 12.1 C 9.44 g/m*3 12.1 C 11.3 km/h
943 07-10-2020 06:30:00 12.1 C 9.44 g/m*3 12.1 C 9.7 km/h
944 07-10-2020 06:35:00 11.9 C 9.32 g/m*3 11.9 C 12.9 km/h
945 07-10-2020 06:40:00 11.9 C 9.43 g/m*3 11.9 C 9.7 km/h
946 07-10-2020 06:45:00 11.8 C 9.37 g/m*3 11.8 C 9.7 km/h
947 07-10-2020 06:50:00 11.8 C 9.47 g/m*3 11.8 C 11.3 km/h
948 07-10-2020 06:55:00 11.8 C 9.47 g/m*3 11.8 C 4.8 km/h
949 07-10-2020 07:00:00 11.8 C 9.47 g/m*3 11.8 C 6.4 km/h
950 07-10-2020 07:05:00 11.8 C 9.47 g/m*3 11.8 C 11.3 km/h
Sensor: Nr:Datum:Temp:Abs-Feuchte:Windchill:Wind:
Aussen-T/F 951 07-10-2020 07:10:00 11.9 C 9.43 g/m*3 11.9 C 12.9 km/h
952 07-10-2020 07:15:00 11.9 C 9.53 g/m*3 11.9 C 14.5 km/h
953 07-10-2020 07:20:00 11.9 C 9.43 g/m*3 11.9 C 12.9 km/h
954 07-10-2020 07:25:00 12.1 C 9.54 g/m*3 12.1 C 14.5 km/h
955 07-10-2020 07:30:00 12.2 C 9.6 g/m*3 12.2 C 16.1 km/h
956 07-10-2020 07:35:00 12.3 C 9.56 g/m*3 12.3 C 12.9 km/h
957 07-10-2020 07:40:00 12.3 C 9.56 g/m*3 12.3 C 12.9 km/h
958 07-10-2020 07:45:00 12.3 C 9.56 g/m*3 12.3 C 17.7 km/h
959 07-10-2020 07:50:00 12.4 C 9.51 g/m*3 12.4 C 11.3 km/h
960 07-10-2020 07:55:00 12.4 C 9.51 g/m*3 12.4 C 12.9 km/h
961 07-10-2020 08:00:00 12.4 C 9.51 g/m*3 12.4 C 12.9 km/h
962 07-10-2020 08:05:00 12.4 C 9.51 g/m*3 12.4 C 14.5 km/h
963 07-10-2020 08:10:00 12.4 C 9.51 g/m*3 12.4 C 11.3 km/h
964 07-10-2020 08:15:00 12.5 C 9.57 g/m*3 12.5 C 11.3 km/h
965 07-10-2020 08:20:00 12.5 C 9.46 g/m*3 12.5 C 8.1 km/h
966 07-10-2020 08:25:00 12.5 C 9.46 g/m*3 12.5 C 11.3 km/h
967 07-10-2020 08:30:00 12.5 C 9.46 g/m*3 12.5 C 12.9 km/h
968 07-10-2020 08:35:00 12.5 C 9.46 g/m*3 12.5 C 12.9 km/h
969 07-10-2020 08:40:00 12.6 C 9.51 g/m*3 12.6 C 12.9 km/h
970 07-10-2020 08:45:00 12.6 C 9.51 g/m*3 12.6 C 16.1 km/h
971 07-10-2020 08:50:00 12.6 C 9.51 g/m*3 12.6 C 14.5 km/h
972 07-10-2020 08:55:00 12.6 C 9.51 g/m*3 12.6 C 12.9 km/h
973 07-10-2020 09:00:00 12.7 C 9.57 g/m*3 12.7 C 8.1 km/h
974 07-10-2020 09:05:00 12.7 C 9.57 g/m*3 12.7 C 9.7 km/h
975 07-10-2020 09:10:00 12.7 C 9.57 g/m*3 12.7 C 9.7 km/h
Sensor: Nr:Datum:Temp:Abs-Feuchte:Windchill:Wind:
Aussen-T/F 976 07-10-2020 09:15:00 12.7 C 9.57 g/m*3 12.7 C 9.7 km/h
977 07-10-2020 09:20:00 12.7 C 9.57 g/m*3 12.7 C 6.4 km/h
978 07-10-2020 09:25:00 12.7 C 9.57 g/m*3 12.7 C 11.3 km/h
979 07-10-2020 09:30:00 12.8 C 9.63 g/m*3 12.8 C 11.3 km/h
980 07-10-2020 09:35:00 12.8 C 9.52 g/m*3 12.8 C 14.5 km/h
981 07-10-2020 09:40:00 12.8 C 9.52 g/m*3 12.8 C 14.5 km/h
982 07-10-2020 09:45:00 12.8 C 9.52 g/m*3 12.8 C 11.3 km/h
983 07-10-2020 09:50:00 12.9 C 9.58 g/m*3 12.9 C 14.5 km/h
984 07-10-2020 09:55:00 12.9 C 9.58 g/m*3 12.9 C 11.3 km/h
985 07-10-2020 10:00:00 12.9 C 9.47 g/m*3 12.9 C 14.5 km/h
986 07-10-2020 10:05:00 12.9 C 9.58 g/m*3 12.9 C 14.5 km/h
987 07-10-2020 10:10:00 13 C 9.64 g/m*3 13 C 9.7 km/h
988 07-10-2020 10:15:00 13.1 C 9.7 g/m*3 13.1 C 9.7 km/h
989 07-10-2020 10:20:00 13.2 C 9.76 g/m*3 13.2 C 12.9 km/h
990 07-10-2020 10:25:00 13.2 C 9.64 g/m*3 13.2 C 16.1 km/h
991 07-10-2020 10:30:00 13.3 C 9.7 g/m*3 13.3 C 11.3 km/h
992 07-10-2020 10:35:00 13.4 C 9.76 g/m*3 13.4 C 14.5 km/h
993 07-10-2020 10:40:00 13.4 C 9.65 g/m*3 13.4 C 12.9 km/h
994 07-10-2020 10:45:00 13.4 C 9.65 g/m*3 13.4 C 9.7 km/h
995 07-10-2020 10:50:00 13.5 C 9.59 g/m*3 13.5 C 12.9 km/h
996 07-10-2020 10:55:00 13.6 C 9.65 g/m*3 13.6 C 14.5 km/h
997 07-10-2020 11:00:00 13.6 C 9.65 g/m*3 13.6 C 6.4 km/h
998 07-10-2020 11:05:00 13.5 C 9.59 g/m*3 13.5 C 9.7 km/h
999 07-10-2020 11:10:00 13.5 C 9.59 g/m*3 13.5 C 12.9 km/h
1000 07-10-2020 11:15:00 13.5 C 9.47 g/m*3 13.5 C 11.3 km/h
Sensor: Nr:Datum:Temp:Abs-Feuchte:Windchill:Wind:
Aussen-T/F 1001 07-10-2020 11:20:00 13.6 C 9.42 g/m*3 13.6 C 16.1 km/h
1002 07-10-2020 11:25:00 13.7 C 9 g/m*3 13.7 C 19.3 km/h
1003 07-10-2020 11:30:00 13.8 C 8.94 g/m*3 13.8 C 19.3 km/h
1004 07-10-2020 11:35:00 13.9 C 9.11 g/m*3 13.9 C 11.3 km/h
1005 07-10-2020 11:40:00 13.9 C 9.23 g/m*3 13.9 C 12.9 km/h
1006 07-10-2020 11:45:00 14.1 C 9.34 g/m*3 14.1 C 14.5 km/h
1007 07-10-2020 11:50:00 14.2 C 9.28 g/m*3 14.2 C 14.5 km/h
1008 07-10-2020 11:55:00 14.3 C 9.34 g/m*3 14.3 C 11.3 km/h
1009 07-10-2020 12:00:00 14.6 C 9.39 g/m*3 14.6 C 14.5 km/h
1010 07-10-2020 12:05:00 14.7 C 9.57 g/m*3 14.7 C 16.1 km/h
1011 07-10-2020 12:10:00 14.8 C 9.5 g/m*3 14.8 C 14.5 km/h
1012 07-10-2020 12:15:00 14.7 C 9.44 g/m*3 14.7 C 11.3 km/h
1013 07-10-2020 12:20:00 14.7 C 9.32 g/m*3 14.7 C 16.1 km/h
1014 07-10-2020 12:25:00 14.7 C 9.32 g/m*3 14.7 C 17.7 km/h
1015 07-10-2020 12:30:00 14.7 C 9.32 g/m*3 14.7 C 11.3 km/h
1016 07-10-2020 12:35:00 14.7 C 9.32 g/m*3 14.7 C 16.1 km/h
1017 07-10-2020 12:40:00 14.7 C 9.19 g/m*3 14.7 C 22.5 km/h
1018 07-10-2020 12:45:00 14.7 C 9.44 g/m*3 14.7 C 17.7 km/h
1019 07-10-2020 12:50:00 14.8 C 9.5 g/m*3 14.8 C 11.3 km/h
1020 07-10-2020 12:55:00 14.9 C 9.43 g/m*3 14.9 C 14.5 km/h
1021 07-10-2020 13:00:00 15 C 9.36 g/m*3 15 C 17.7 km/h
1022 07-10-2020 13:05:00 15.1 C 9.42 g/m*3 15.1 C 12.9 km/h
1023 07-10-2020 13:10:00 15.2 C 9.48 g/m*3 15.2 C 14.5 km/h
1024 07-10-2020 13:15:00 15.1 C 9.55 g/m*3 15.1 C 17.7 km/h
1025 07-10-2020 13:20:00 15 C 9.36 g/m*3 15 C 16.1 km/h
Sensor: Nr:Datum:Temp:Abs-Feuchte:Windchill:Wind:
Aussen-T/F 1026 07-10-2020 13:25:00 15 C 9.49 g/m*3 15 C 17.7 km/h
1027 07-10-2020 13:30:00 15 C 9.62 g/m*3 15 C 17.7 km/h
1028 07-10-2020 13:35:00 15 C 9.62 g/m*3 15 C 9.7 km/h
1029 07-10-2020 13:40:00 15.1 C 9.8 g/m*3 15.1 C 4.8 km/h
1030 07-10-2020 13:45:00 15.2 C 9.73 g/m*3 15.2 C 16.1 km/h
1031 07-10-2020 13:50:00 15.2 C 9.73 g/m*3 15.2 C 11.3 km/h
1032 07-10-2020 13:55:00 15.2 C 9.73 g/m*3 15.2 C 8.1 km/h
1033 07-10-2020 14:00:00 15.2 C 9.61 g/m*3 15.2 C 12.9 km/h
1034 07-10-2020 14:05:00 15.2 C 9.73 g/m*3 15.2 C 17.7 km/h
1035 07-10-2020 14:10:00 15.2 C 9.61 g/m*3 15.2 C 19.3 km/h
1036 07-10-2020 14:15:00 15.1 C 9.68 g/m*3 15.1 C 12.9 km/h
1037 07-10-2020 14:20:00 15.2 C 9.61 g/m*3 15.2 C 16.1 km/h
1038 07-10-2020 14:25:00 15.2 C 9.73 g/m*3 15.2 C 9.7 km/h
1039 07-10-2020 14:30:00 15.2 C 9.73 g/m*3 15.2 C 12.9 km/h
1040 07-10-2020 14:35:00 15.2 C 9.73 g/m*3 15.2 C 6.4 km/h
1041 07-10-2020 14:40:00 15.1 C 9.68 g/m*3 15.1 C 8.1 km/h
1042 07-10-2020 14:45:00 15.1 C 9.68 g/m*3 15.1 C 14.5 km/h
1043 07-10-2020 14:50:00 14.8 C 10.01 g/m*3 14.8 C 22.5 km/h
1044 07-10-2020 14:55:00 14.4 C 10.14 g/m*3 14.4 C 12.9 km/h
1045 07-10-2020 15:00:00 14.2 C 10.14 g/m*3 14.2 C 11.3 km/h
1046 07-10-2020 15:05:00 14.1 C 10.07 g/m*3 14.1 C 12.9 km/h
1047 07-10-2020 15:10:00 14 C 10.01 g/m*3 14 C 14.5 km/h
1048 07-10-2020 15:15:00 14.1 C 9.95 g/m*3 14.1 C 14.5 km/h
1049 07-10-2020 15:20:00 14.2 C 10.01 g/m*3 14.2 C 16.1 km/h
1050 07-10-2020 15:25:00 14.2 C 10.01 g/m*3 14.2 C 11.3 km/h
Sensor: Nr:Datum:Temp:Abs-Feuchte:Windchill:Wind:
Aussen-T/F 1051 07-10-2020 15:30:00 14.2 C 9.89 g/m*3 14.2 C 11.3 km/h
1052 07-10-2020 15:35:00 14.2 C 9.89 g/m*3 14.2 C 9.7 km/h
1053 07-10-2020 15:40:00 14.2 C 9.89 g/m*3 14.2 C 12.9 km/h
1054 07-10-2020 15:45:00 14.3 C 9.83 g/m*3 14.3 C 9.7 km/h
1055 07-10-2020 15:50:00 14.4 C 9.89 g/m*3 14.4 C 6.4 km/h
1056 07-10-2020 15:55:00 14.6 C 10.01 g/m*3 14.6 C 8.1 km/h
1057 07-10-2020 16:00:00 14.7 C 10.07 g/m*3 14.7 C 6.4 km/h
1058 07-10-2020 16:05:00 14.8 C 10.13 g/m*3 14.8 C 4.8 km/h
1059 07-10-2020 16:10:00 14.8 C 10.13 g/m*3 14.8 C 6.4 km/h
1060 07-10-2020 16:15:00 14.9 C 10.32 g/m*3 14.9 C 4.8 km/h
1061 07-10-2020 16:20:00 14.9 C 10.2 g/m*3 14.9 C 4.8 km/h
1062 07-10-2020 16:25:00 14.9 C 10.2 g/m*3 14.9 C 1.6 km/h
1063 07-10-2020 16:30:00 14.8 C 10.13 g/m*3 14.8 C 9.7 km/h
1064 07-10-2020 16:35:00 14.8 C 10.01 g/m*3 14.8 C 8.1 km/h
1065 07-10-2020 16:40:00 14.8 C 10.01 g/m*3 14.8 C 12.9 km/h
1066 07-10-2020 16:45:00 14.8 C 9.75 g/m*3 14.8 C 11.3 km/h
1067 07-10-2020 16:50:00 14.8 C 9.63 g/m*3 14.8 C 16.1 km/h
1068 07-10-2020 16:55:00 14.8 C 9.5 g/m*3 14.8 C 20.9 km/h
1069 07-10-2020 17:00:00 14.8 C 9.63 g/m*3 14.8 C 6.4 km/h
1070 07-10-2020 17:05:00 14.8 C 9.75 g/m*3 14.8 C 6.4 km/h
1071 07-10-2020 17:10:00 14.8 C 9.63 g/m*3 14.8 C 9.7 km/h
1072 07-10-2020 17:15:00 14.9 C 9.56 g/m*3 14.9 C 17.7 km/h
1073 07-10-2020 17:20:00 15 C 9.75 g/m*3 15 C 9.7 km/h
1074 07-10-2020 17:25:00 15 C 9.62 g/m*3 15 C 8.1 km/h
1075 07-10-2020 17:30:00 15 C 9.62 g/m*3 15 C 6.4 km/h
Sensor: Nr:Datum:Temp:Abs-Feuchte:Windchill:Wind:
Aussen-T/F 1076 07-10-2020 17:35:00 14.9 C 9.43 g/m*3 14.9 C 11.3 km/h
1077 07-10-2020 17:40:00 14.9 C 9.69 g/m*3 14.9 C 8.1 km/h
1078 07-10-2020 17:45:00 14.8 C 9.63 g/m*3 14.8 C 11.3 km/h
1079 07-10-2020 17:50:00 14.8 C 9.5 g/m*3 14.8 C 6.4 km/h
1080 07-10-2020 17:55:00 14.7 C 9.44 g/m*3 14.7 C 12.9 km/h
1081 07-10-2020 18:00:00 14.7 C 9.32 g/m*3 14.7 C 8.1 km/h
1082 07-10-2020 18:05:00 14.7 C 9.32 g/m*3 14.7 C 12.9 km/h
1083 07-10-2020 18:10:00 14.7 C 9.32 g/m*3 14.7 C 9.7 km/h
1084 07-10-2020 18:15:00 14.6 C 9.39 g/m*3 14.6 C 8.1 km/h
1085 07-10-2020 18:20:00 14.7 C 9.32 g/m*3 14.7 C 11.3 km/h
1086 07-10-2020 18:25:00 14.7 C 9.44 g/m*3 14.7 C 6.4 km/h
1087 07-10-2020 18:30:00 14.6 C 9.51 g/m*3 14.6 C 8.1 km/h
1088 07-10-2020 18:35:00 14.5 C 9.45 g/m*3 14.5 C 4.8 km/h
1089 07-10-2020 18:40:00 14.3 C 9.34 g/m*3 14.3 C 8.1 km/h
1090 07-10-2020 18:45:00 14.3 C 9.34 g/m*3 14.3 C 4.8 km/h
1091 07-10-2020 18:50:00 14.2 C 9.28 g/m*3 14.2 C 3.2 km/h
1092 07-10-2020 18:55:00 14.1 C 9.22 g/m*3 14.1 C 6.4 km/h
1093 07-10-2020 19:00:00 13.9 C 8.99 g/m*3 13.9 C 9.7 km/h
1094 07-10-2020 19:05:00 13.9 C 8.99 g/m*3 13.9 C 9.7 km/h
1095 07-10-2020 19:10:00 13.9 C 8.75 g/m*3 13.9 C 12.9 km/h
1096 07-10-2020 19:15:00 13.9 C 8.75 g/m*3 13.9 C 12.9 km/h
1097 07-10-2020 19:20:00 13.9 C 8.51 g/m*3 13.9 C 11.3 km/h
1098 07-10-2020 19:25:00 14 C 8.44 g/m*3 14 C 14.5 km/h
1099 07-10-2020 19:30:00 14.1 C 8.5 g/m*3 14.1 C 11.3 km/h
1100 07-10-2020 19:35:00 14.1 C 8.5 g/m*3 14.1 C 9.7 km/h
Sensor: Nr:Datum:Temp:Abs-Feuchte:Windchill:Wind:
Aussen-T/F 1101 07-10-2020 19:40:00 14.1 C 8.5 g/m*3 14.1 C 8.1 km/h
1102 07-10-2020 19:45:00 14.1 C 8.5 g/m*3 14.1 C 14.5 km/h
1103 07-10-2020 19:50:00 14.1 C 8.62 g/m*3 14.1 C 8.1 km/h
1104 07-10-2020 19:55:00 14 C 8.56 g/m*3 14 C 9.7 km/h
1105 07-10-2020 20:00:00 13.9 C 8.51 g/m*3 13.9 C 8.1 km/h
1106 07-10-2020 20:05:00 13.9 C 8.63 g/m*3 13.9 C 9.7 km/h
1107 07-10-2020 20:10:00 13.8 C 8.58 g/m*3 13.8 C 8.1 km/h
1108 07-10-2020 20:15:00 13.7 C 8.64 g/m*3 13.7 C 6.4 km/h
1109 07-10-2020 20:20:00 13.7 C 8.76 g/m*3 13.7 C 6.4 km/h
1110 07-10-2020 20:25:00 13.6 C 8.71 g/m*3 13.6 C 12.9 km/h
1111 07-10-2020 20:30:00 13.5 C 8.66 g/m*3 13.5 C 6.4 km/h
1112 07-10-2020 20:35:00 13.4 C 8.6 g/m*3 13.4 C 8.1 km/h
1113 07-10-2020 20:40:00 13.3 C 8.55 g/m*3 13.3 C 11.3 km/h
1114 07-10-2020 20:45:00 13.3 C 8.55 g/m*3 13.3 C 9.7 km/h
1115 07-10-2020 20:50:00 13.3 C 8.66 g/m*3 13.3 C 6.4 km/h
1116 07-10-2020 20:55:00 13.2 C 8.73 g/m*3 13.2 C 8.1 km/h
1117 07-10-2020 21:00:00 13.1 C 8.67 g/m*3 13.1 C 4.8 km/h
1118 07-10-2020 21:05:00 13 C 8.73 g/m*3 13 C 6.4 km/h
1119 07-10-2020 21:10:00 12.9 C 8.68 g/m*3 12.9 C 4.8 km/h
1120 07-10-2020 21:15:00 12.9 C 8.79 g/m*3 12.9 C 8.1 km/h
1121 07-10-2020 21:20:00 12.9 C 8.79 g/m*3 12.9 C 4.8 km/h
1122 07-10-2020 21:25:00 12.9 C 8.79 g/m*3 12.9 C 4.8 km/h
1123 07-10-2020 21:30:00 12.8 C 8.74 g/m*3 12.8 C 11.3 km/h
1124 07-10-2020 21:35:00 12.8 C 8.85 g/m*3 12.8 C 8.1 km/h
1125 07-10-2020 21:40:00 12.8 C 8.85 g/m*3 12.8 C 3.2 km/h
Sensor: Nr:Datum:Temp:Abs-Feuchte:Windchill:Wind:
Aussen-T/F 1126 07-10-2020 21:45:00 12.8 C 8.96 g/m*3 12.8 C 0 km/h
1127 07-10-2020 21:50:00 12.7 C 8.91 g/m*3 12.7 C 4.8 km/h
1128 07-10-2020 21:55:00 12.6 C 8.96 g/m*3 12.6 C 8.1 km/h
1129 07-10-2020 22:00:00 12.5 C 8.91 g/m*3 12.5 C 4.8 km/h
1130 07-10-2020 22:05:00 12.4 C 8.85 g/m*3 12.4 C 6.4 km/h
1131 07-10-2020 22:10:00 12.4 C 8.96 g/m*3 12.4 C 4.8 km/h
1132 07-10-2020 22:15:00 12.3 C 8.9 g/m*3 12.3 C 3.2 km/h
1133 07-10-2020 22:20:00 12.3 C 8.9 g/m*3 12.3 C 4.8 km/h
1134 07-10-2020 22:25:00 12.3 C 8.9 g/m*3 12.3 C 4.8 km/h
1135 07-10-2020 22:30:00 12.3 C 9.01 g/m*3 12.3 C 3.2 km/h
1136 07-10-2020 22:35:00 12.2 C 8.96 g/m*3 12.2 C 3.2 km/h
1137 07-10-2020 22:40:00 12.2 C 8.96 g/m*3 12.2 C 4.8 km/h
1138 07-10-2020 22:45:00 12.1 C 8.9 g/m*3 12.1 C 3.2 km/h
1139 07-10-2020 22:50:00 12 C 8.85 g/m*3 12 C 6.4 km/h
1140 07-10-2020 22:55:00 11.9 C 8.9 g/m*3 11.9 C 6.4 km/h
1141 07-10-2020 23:00:00 11.9 C 8.9 g/m*3 11.9 C 6.4 km/h
1142 07-10-2020 23:05:00 11.9 C 8.9 g/m*3 11.9 C 3.2 km/h
1143 07-10-2020 23:10:00 11.8 C 8.95 g/m*3 11.8 C 3.2 km/h
1144 07-10-2020 23:15:00 11.8 C 8.95 g/m*3 11.8 C 1.6 km/h
1145 07-10-2020 23:20:00 11.8 C 8.95 g/m*3 11.8 C 1.6 km/h
1146 07-10-2020 23:25:00 11.8 C 8.95 g/m*3 11.8 C 0 km/h
1147 07-10-2020 23:30:00 11.7 C 8.89 g/m*3 11.7 C 1.6 km/h
1148 07-10-2020 23:35:00 11.6 C 8.83 g/m*3 11.6 C 3.2 km/h
1149 07-10-2020 23:40:00 11.5 C 8.78 g/m*3 11.5 C 3.2 km/h
1150 07-10-2020 23:45:00 11.3 C 8.67 g/m*3 11.3 C 1.6 km/h
Sensor: Nr:Datum:Temp:Abs-Feuchte:Windchill:Wind:
Aussen-T/F 1151 07-10-2020 23:50:00 11.2 C 8.72 g/m*3 11.2 C 1.6 km/h
1152 07-10-2020 23:55:00 11.1 C 8.66 g/m*3 11.1 C 3.2 km/h
1153 08-10-2020 00:00:00 10.9 C 8.55 g/m*3 10.9 C 3.2 km/h
1154 08-10-2020 00:05:00 10.7 C 8.55 g/m*3 10.7 C 3.2 km/h
1155 08-10-2020 00:10:00 10.6 C 8.49 g/m*3 10.6 C 3.2 km/h
1156 08-10-2020 00:15:00 10.5 C 8.53 g/m*3 10.5 C 3.2 km/h
1157 08-10-2020 00:20:00 10.4 C 8.48 g/m*3 10.4 C 3.2 km/h
1158 08-10-2020 00:25:00 10.3 C 8.52 g/m*3 8.78 C 11.3 km/h
1159 08-10-2020 00:30:00 10.3 C 8.52 g/m*3 10.3 C 4.8 km/h
1160 08-10-2020 00:35:00 10.3 C 8.52 g/m*3 10.3 C 1.6 km/h
1161 08-10-2020 00:40:00 10.2 C 8.47 g/m*3 10.2 C 4.8 km/h
1162 08-10-2020 00:45:00 10.2 C 8.47 g/m*3 10.2 C 0 km/h
1163 08-10-2020 00:50:00 10.1 C 8.42 g/m*3 10.1 C 3.2 km/h
1164 08-10-2020 00:55:00 10 C 8.36 g/m*3 10 C 3.2 km/h
1165 08-10-2020 01:00:00 9.9 C 8.31 g/m*3 9.9 C 0 km/h
1166 08-10-2020 01:05:00 9.8 C 8.35 g/m*3 9.8 C 3.2 km/h
1167 08-10-2020 01:10:00 9.7 C 8.3 g/m*3 9.7 C 3.2 km/h
1168 08-10-2020 01:15:00 9.6 C 8.24 g/m*3 8.91 C 6.4 km/h
1169 08-10-2020 01:20:00 9.5 C 8.28 g/m*3 9.5 C 1.6 km/h
1170 08-10-2020 01:25:00 9.4 C 8.23 g/m*3 9.4 C 3.2 km/h
1171 08-10-2020 01:30:00 9.4 C 8.23 g/m*3 9.4 C 1.6 km/h
1172 08-10-2020 01:35:00 9.3 C 8.18 g/m*3 9.3 C 0 km/h
1173 08-10-2020 01:40:00 9.2 C 8.13 g/m*3 9.2 C 0 km/h
1174 08-10-2020 01:45:00 9.2 C 8.13 g/m*3 9.2 C 0 km/h
1175 08-10-2020 01:50:00 9.2 C 8.22 g/m*3 9.2 C 0 km/h
Sensor: Nr:Datum:Temp:Abs-Feuchte:Windchill:Wind:
Aussen-T/F 1176 08-10-2020 01:55:00 9.1 C 8.16 g/m*3 9.1 C 0 km/h
1177 08-10-2020 02:00:00 9.1 C 8.16 g/m*3 9.1 C 0 km/h
1178 08-10-2020 02:05:00 9.1 C 8.16 g/m*3 9.1 C 0 km/h
1179 08-10-2020 02:10:00 9.1 C 8.16 g/m*3 9.1 C 0 km/h
1180 08-10-2020 02:15:00 9.1 C 8.16 g/m*3 9.1 C 0 km/h
1181 08-10-2020 02:20:00 9 C 8.11 g/m*3 9 C 0 km/h
1182 08-10-2020 02:25:00 9 C 8.11 g/m*3 9 C 0 km/h
1183 08-10-2020 02:30:00 8.9 C 8.15 g/m*3 8.9 C 0 km/h
1184 08-10-2020 02:35:00 8.8 C 8.01 g/m*3 8.8 C 0 km/h
1185 08-10-2020 02:40:00 8.8 C 8.01 g/m*3 8.8 C 0 km/h
1186 08-10-2020 02:45:00 8.7 C 7.96 g/m*3 8.7 C 0 km/h
1187 08-10-2020 02:50:00 8.6 C 7.91 g/m*3 8.6 C 3.2 km/h
1188 08-10-2020 02:55:00 8.5 C 7.94 g/m*3 8.5 C 3.2 km/h
1189 08-10-2020 03:00:00 8.5 C 7.94 g/m*3 8.5 C 1.6 km/h
1190 08-10-2020 03:05:00 8.4 C 7.89 g/m*3 8.4 C 1.6 km/h
1191 08-10-2020 03:10:00 8.4 C 7.89 g/m*3 8.4 C 1.6 km/h
1192 08-10-2020 03:15:00 8.4 C 7.89 g/m*3 8.4 C 1.6 km/h
1193 08-10-2020 03:20:00 8.3 C 7.84 g/m*3 8.3 C 0 km/h
1194 08-10-2020 03:25:00 8.3 C 7.84 g/m*3 8.3 C 0 km/h
1195 08-10-2020 03:30:00 8.3 C 7.84 g/m*3 8.3 C 0 km/h
1196 08-10-2020 03:35:00 8.2 C 7.79 g/m*3 8.2 C 0 km/h
1197 08-10-2020 03:40:00 8.2 C 7.87 g/m*3 8.2 C 0 km/h
1198 08-10-2020 03:45:00 8.3 C 7.92 g/m*3 8.3 C 0 km/h
1199 08-10-2020 03:50:00 8.3 C 7.92 g/m*3 8.3 C 0 km/h
1200 08-10-2020 03:55:00 8.3 C 7.92 g/m*3 8.3 C 0 km/h
Sensor: Nr:Datum:Temp:Abs-Feuchte:Windchill:Wind:
Aussen-T/F 1201 08-10-2020 04:00:00 8.3 C 7.92 g/m*3 8.3 C 0 km/h
1202 08-10-2020 04:05:00 8.3 C 7.92 g/m*3 8.3 C 0 km/h
1203 08-10-2020 04:10:00 8.3 C 7.92 g/m*3 8.3 C 0 km/h
1204 08-10-2020 04:15:00 8.4 C 7.97 g/m*3 8.4 C 0 km/h
1205 08-10-2020 04:20:00 8.4 C 8.06 g/m*3 8.4 C 0 km/h
1206 08-10-2020 04:25:00 8.4 C 8.06 g/m*3 8.4 C 0 km/h
1207 08-10-2020 04:30:00 8.5 C 8.11 g/m*3 8.5 C 0 km/h
1208 08-10-2020 04:35:00 8.5 C 8.11 g/m*3 8.5 C 0 km/h
1209 08-10-2020 04:40:00 8.6 C 8.16 g/m*3 8.6 C 0 km/h
1210 08-10-2020 04:45:00 8.6 C 8.16 g/m*3 8.6 C 0 km/h
1211 08-10-2020 04:50:00 8.6 C 8.16 g/m*3 8.6 C 0 km/h
1212 08-10-2020 04:55:00 8.7 C 8.22 g/m*3 8.7 C 0 km/h
1213 08-10-2020 05:00:00 8.7 C 8.22 g/m*3 8.7 C 0 km/h
1214 08-10-2020 05:05:00 8.8 C 8.27 g/m*3 8.8 C 0 km/h
1215 08-10-2020 05:10:00 8.8 C 8.27 g/m*3 8.8 C 0 km/h
1216 08-10-2020 05:15:00 8.9 C 8.32 g/m*3 8.9 C 1.6 km/h
1217 08-10-2020 05:20:00 9 C 8.38 g/m*3 9 C 1.6 km/h
1218 08-10-2020 05:25:00 9.1 C 8.43 g/m*3 9.1 C 0 km/h
1219 08-10-2020 05:30:00 9.2 C 8.57 g/m*3 9.2 C 0 km/h
1220 08-10-2020 05:35:00 9.2 C 8.48 g/m*3 9.2 C 0 km/h
1221 08-10-2020 05:40:00 9.2 C 8.48 g/m*3 9.2 C 0 km/h
1222 08-10-2020 05:45:00 9.3 C 8.54 g/m*3 9.3 C 0 km/h
1223 08-10-2020 05:50:00 9.3 C 8.54 g/m*3 9.3 C 0 km/h
1224 08-10-2020 05:55:00 9.3 C 8.54 g/m*3 9.3 C 0 km/h
1225 08-10-2020 06:00:00 9.4 C 8.59 g/m*3 9.4 C 0 km/h
Sensor: Nr:Datum:Temp:Abs-Feuchte:Windchill:Wind:
Aussen-T/F 1226 08-10-2020 06:05:00 9.4 C 8.59 g/m*3 9.4 C 0 km/h
1227 08-10-2020 06:10:00 9.5 C 8.74 g/m*3 9.5 C 0 km/h
1228 08-10-2020 06:15:00 9.6 C 8.79 g/m*3 9.6 C 0 km/h
1229 08-10-2020 06:20:00 9.7 C 8.85 g/m*3 9.7 C 0 km/h
1230 08-10-2020 06:25:00 9.7 C 8.85 g/m*3 9.7 C 0 km/h
1231 08-10-2020 06:30:00 9.7 C 8.85 g/m*3 9.7 C 0 km/h
1232 08-10-2020 06:35:00 9.8 C 8.91 g/m*3 9.8 C 0 km/h
1233 08-10-2020 06:40:00 9.8 C 8.91 g/m*3 9.8 C 0 km/h
1234 08-10-2020 06:45:00 9.8 C 8.91 g/m*3 9.8 C 0 km/h
1235 08-10-2020 06:50:00 9.8 C 8.91 g/m*3 9.8 C 0 km/h
1236 08-10-2020 06:55:00 9.8 C 8.91 g/m*3 9.8 C 0 km/h
1237 08-10-2020 07:00:00 9.9 C 8.96 g/m*3 9.9 C 0 km/h
1238 08-10-2020 07:05:00 9.9 C 8.96 g/m*3 9.9 C 0 km/h
1239 08-10-2020 07:10:00 9.9 C 8.96 g/m*3 9.9 C 0 km/h
1240 08-10-2020 07:15:00 9.9 C 8.96 g/m*3 9.9 C 0 km/h
1241 08-10-2020 07:20:00 9.9 C 8.96 g/m*3 9.9 C 0 km/h
1242 08-10-2020 07:25:00 10 C 9.02 g/m*3 10 C 0 km/h
1243 08-10-2020 07:30:00 10.1 C 9.08 g/m*3 10.1 C 0 km/h
1244 08-10-2020 07:35:00 10.1 C 9.08 g/m*3 10.1 C 0 km/h
1245 08-10-2020 07:40:00 10.1 C 9.08 g/m*3 10.1 C 0 km/h
1246 08-10-2020 07:45:00 10.1 C 9.08 g/m*3 10.1 C 0 km/h
1247 08-10-2020 07:50:00 10.1 C 9.08 g/m*3 10.1 C 0 km/h
1248 08-10-2020 07:55:00 10.2 C 9.14 g/m*3 10.2 C 0 km/h
1249 08-10-2020 08:00:00 10.3 C 9.19 g/m*3 10.3 C 0 km/h
1250 08-10-2020 08:05:00 10.3 C 9.19 g/m*3 10.3 C 0 km/h
Sensor: Nr:Datum:Temp:Abs-Feuchte:Windchill:Wind:
Aussen-T/F 1251 08-10-2020 08:10:00 10.4 C 9.25 g/m*3 10.4 C 1.6 km/h
1252 08-10-2020 08:15:00 10.5 C 9.31 g/m*3 10.5 C 1.6 km/h
1253 08-10-2020 08:20:00 10.6 C 9.37 g/m*3 10.6 C 0 km/h
1254 08-10-2020 08:25:00 10.6 C 9.37 g/m*3 10.6 C 0 km/h
1255 08-10-2020 08:30:00 10.8 C 9.59 g/m*3 10.8 C 1.6 km/h
1256 08-10-2020 08:35:00 10.9 C 9.65 g/m*3 10.9 C 0 km/h
1257 08-10-2020 08:40:00 11 C 9.71 g/m*3 11 C 0 km/h
1258 08-10-2020 08:45:00 11.2 C 9.83 g/m*3 11.2 C 0 km/h
1259 08-10-2020 08:50:00 11.3 C 9.89 g/m*3 11.3 C 0 km/h
1260 08-10-2020 08:55:00 11.3 C 9.89 g/m*3 11.3 C 4.8 km/h
1261 08-10-2020 09:00:00 11.4 C 9.96 g/m*3 11.4 C 0 km/h
1262 08-10-2020 09:05:00 11.5 C 10.02 g/m*3 11.5 C 0 km/h
1263 08-10-2020 09:10:00 11.6 C 10.08 g/m*3 11.6 C 1.6 km/h
1264 08-10-2020 09:15:00 11.7 C 10.15 g/m*3 11.7 C 1.6 km/h
1265 08-10-2020 09:20:00 11.7 C 10.15 g/m*3 11.7 C 1.6 km/h
1266 08-10-2020 09:25:00 11.8 C 10.21 g/m*3 11.8 C 4.8 km/h
1267 08-10-2020 09:30:00 11.9 C 10.27 g/m*3 11.9 C 6.4 km/h
1268 08-10-2020 09:35:00 11.9 C 10.27 g/m*3 11.9 C 8.1 km/h
1269 08-10-2020 09:40:00 12 C 10.34 g/m*3 12 C 9.7 km/h
1270 08-10-2020 09:45:00 12.1 C 10.4 g/m*3 12.1 C 6.4 km/h
1271 08-10-2020 09:50:00 12.2 C 10.47 g/m*3 12.2 C 3.2 km/h
1272 08-10-2020 09:55:00 12.2 C 10.47 g/m*3 12.2 C 8.1 km/h
1273 08-10-2020 10:00:00 12.3 C 10.53 g/m*3 12.3 C 3.2 km/h
1274 08-10-2020 10:05:00 12.3 C 10.53 g/m*3 12.3 C 3.2 km/h
1275 08-10-2020 10:10:00 12.3 C 10.53 g/m*3 12.3 C 0 km/h
Sensor: Nr:Datum:Temp:Abs-Feuchte:Windchill:Wind:
Aussen-T/F 1276 08-10-2020 10:15:00 12.4 C 10.6 g/m*3 12.4 C 1.6 km/h
1277 08-10-2020 10:20:00 12.5 C 10.66 g/m*3 12.5 C 0 km/h
1278 08-10-2020 10:25:00 12.6 C 10.73 g/m*3 12.6 C 1.6 km/h
1279 08-10-2020 10:30:00 12.7 C 10.8 g/m*3 12.7 C 8.1 km/h
1280 08-10-2020 10:35:00 12.6 C 10.62 g/m*3 12.6 C 11.3 km/h
1281 08-10-2020 10:40:00 12.7 C 10.69 g/m*3 12.7 C 8.1 km/h
1282 08-10-2020 10:45:00 12.8 C 10.87 g/m*3 12.8 C 1.6 km/h
1283 08-10-2020 10:50:00 12.9 C 10.93 g/m*3 12.9 C 0 km/h
1284 08-10-2020 10:55:00 13 C 10.89 g/m*3 13 C 3.2 km/h
1285 08-10-2020 11:00:00 13.2 C 11.14 g/m*3 13.2 C 1.6 km/h
1286 08-10-2020 11:05:00 13.3 C 11.09 g/m*3 13.3 C 0 km/h
1287 08-10-2020 11:10:00 13.4 C 11.28 g/m*3 13.4 C 0 km/h
1288 08-10-2020 11:15:00 13.6 C 11.3 g/m*3 13.6 C 9.7 km/h
1289 08-10-2020 11:20:00 13.6 C 11.18 g/m*3 13.6 C 8.1 km/h
1290 08-10-2020 11:25:00 13.7 C 11.25 g/m*3 13.7 C 8.1 km/h
1291 08-10-2020 11:30:00 13.8 C 11.2 g/m*3 13.8 C 4.8 km/h
1292 08-10-2020 11:35:00 13.8 C 11.08 g/m*3 13.8 C 12.9 km/h
1293 08-10-2020 11:40:00 14.1 C 11.29 g/m*3 14.1 C 14.5 km/h
1294 08-10-2020 11:45:00 14.3 C 11.3 g/m*3 14.3 C 20.9 km/h
1295 08-10-2020 11:50:00 14.6 C 11.26 g/m*3 14.6 C 16.1 km/h
1296 08-10-2020 11:55:00 14.8 C 11.4 g/m*3 14.8 C 12.9 km/h
1297 08-10-2020 12:00:00 14.9 C 11.34 g/m*3 14.9 C 17.7 km/h
1298 08-10-2020 12:05:00 14.9 C 11.34 g/m*3 14.9 C 11.3 km/h
1299 08-10-2020 12:10:00 15 C 11.28 g/m*3 15 C 19.3 km/h
1300 08-10-2020 12:15:00 15.1 C 11.22 g/m*3 15.1 C 22.5 km/h
Sensor: Nr:Datum:Temp:Abs-Feuchte:Windchill:Wind:
Aussen-T/F 1301 08-10-2020 12:20:00 15.3 C 11.23 g/m*3 15.3 C 19.3 km/h
1302 08-10-2020 12:25:00 15.3 C 11.23 g/m*3 15.3 C 20.9 km/h
1303 08-10-2020 12:30:00 15.4 C 11.3 g/m*3 15.4 C 14.5 km/h
1304 08-10-2020 12:35:00 15.6 C 11.3 g/m*3 15.6 C 16.1 km/h
1305 08-10-2020 12:40:00 15.6 C 11.3 g/m*3 15.6 C 14.5 km/h
1306 08-10-2020 12:45:00 15.6 C 11.17 g/m*3 15.6 C 17.7 km/h
1307 08-10-2020 12:50:00 15.6 C 11.3 g/m*3 15.6 C 27.4 km/h
1308 08-10-2020 12:55:00 15.7 C 11.24 g/m*3 15.7 C 27.4 km/h
1309 08-10-2020 13:00:00 15.8 C 11.31 g/m*3 15.8 C 17.7 km/h
1310 08-10-2020 13:05:00 15.8 C 11.31 g/m*3 15.8 C 24.1 km/h
1311 08-10-2020 13:10:00 15.8 C 11.17 g/m*3 15.8 C 35.4 km/h
1312 08-10-2020 13:15:00 15.9 C 11.24 g/m*3 15.9 C 27.4 km/h
1313 08-10-2020 13:20:00 15.9 C 11.24 g/m*3 15.9 C 24.1 km/h
1314 08-10-2020 13:25:00 15.9 C 11.24 g/m*3 15.9 C 24.1 km/h
1315 08-10-2020 13:30:00 15.9 C 11.38 g/m*3 15.9 C 29 km/h
1316 08-10-2020 13:35:00 15.8 C 11.31 g/m*3 15.8 C 27.4 km/h
1317 08-10-2020 13:40:00 15.8 C 11.31 g/m*3 15.8 C 27.4 km/h
1318 08-10-2020 13:45:00 15.8 C 11.31 g/m*3 15.8 C 20.9 km/h
1319 08-10-2020 13:50:00 15.7 C 11.24 g/m*3 15.7 C 19.3 km/h
1320 08-10-2020 13:55:00 15.8 C 11.31 g/m*3 15.8 C 24.1 km/h
1321 08-10-2020 14:00:00 15.8 C 11.31 g/m*3 15.8 C 20.9 km/h
1322 08-10-2020 14:05:00 15.9 C 11.38 g/m*3 15.9 C 20.9 km/h
1323 08-10-2020 14:10:00 16 C 11.44 g/m*3 16 C 19.3 km/h
1324 08-10-2020 14:15:00 16.1 C 11.38 g/m*3 16.1 C 19.3 km/h
1325 08-10-2020 14:20:00 16.1 C 11.38 g/m*3 16.1 C 16.1 km/h
Sensor: Nr:Datum:Temp:Abs-Feuchte:Windchill:Wind:
Aussen-T/F 1326 08-10-2020 14:25:00 16.2 C 11.45 g/m*3 16.2 C 14.5 km/h
1327 08-10-2020 14:30:00 16.4 C 11.58 g/m*3 16.4 C 12.9 km/h
1328 08-10-2020 14:35:00 16.5 C 11.51 g/m*3 16.5 C 19.3 km/h
1329 08-10-2020 14:40:00 16.4 C 11.45 g/m*3 16.4 C 12.9 km/h
1330 08-10-2020 14:45:00 16.3 C 11.24 g/m*3 16.3 C 24.1 km/h
1331 08-10-2020 14:50:00 16.1 C 11.24 g/m*3 16.1 C 16.1 km/h
1332 08-10-2020 14:55:00 16 C 11.17 g/m*3 16 C 16.1 km/h
1333 08-10-2020 15:00:00 16.2 C 11.31 g/m*3 16.2 C 14.5 km/h
1334 08-10-2020 15:05:00 16.3 C 11.24 g/m*3 16.3 C 16.1 km/h
1335 08-10-2020 15:10:00 16.4 C 11.31 g/m*3 16.4 C 22.5 km/h
1336 08-10-2020 15:15:00 16.5 C 11.23 g/m*3 16.5 C 19.3 km/h
1337 08-10-2020 15:20:00 16.4 C 11.31 g/m*3 16.4 C 17.7 km/h
1338 08-10-2020 15:25:00 16.3 C 11.24 g/m*3 16.3 C 20.9 km/h
1339 08-10-2020 15:30:00 16.3 C 11.38 g/m*3 16.3 C 12.9 km/h
1340 08-10-2020 15:35:00 16.3 C 11.38 g/m*3 16.3 C 12.9 km/h
1341 08-10-2020 15:40:00 16.4 C 11.45 g/m*3 16.4 C 24.1 km/h
1342 08-10-2020 15:45:00 16.5 C 11.51 g/m*3 16.5 C 14.5 km/h
1343 08-10-2020 15:50:00 16.7 C 11.51 g/m*3 16.7 C 20.9 km/h
1344 08-10-2020 15:55:00 16.8 C 11.58 g/m*3 16.8 C 22.5 km/h
1345 08-10-2020 16:00:00 16.8 C 11.58 g/m*3 16.8 C 16.1 km/h
1346 08-10-2020 16:05:00 16.7 C 11.51 g/m*3 16.7 C 16.1 km/h
1347 08-10-2020 16:10:00 16.6 C 11.44 g/m*3 16.6 C 14.5 km/h
1348 08-10-2020 16:15:00 16.4 C 11.45 g/m*3 16.4 C 20.9 km/h
1349 08-10-2020 16:20:00 16.3 C 11.38 g/m*3 16.3 C 22.5 km/h
1350 08-10-2020 16:25:00 16.2 C 11.45 g/m*3 16.2 C 14.5 km/h
Sensor: Nr:Datum:Temp:Abs-Feuchte:Windchill:Wind:
Aussen-T/F 1351 08-10-2020 16:30:00 16.2 C 11.45 g/m*3 16.2 C 17.7 km/h
1352 08-10-2020 16:35:00 16.2 C 11.45 g/m*3 16.2 C 14.5 km/h
1353 08-10-2020 16:40:00 16.3 C 11.52 g/m*3 16.3 C 19.3 km/h
1354 08-10-2020 16:45:00 16.3 C 11.52 g/m*3 16.3 C 19.3 km/h
1355 08-10-2020 16:50:00 16.3 C 11.52 g/m*3 16.3 C 16.1 km/h
1356 08-10-2020 16:55:00 16.4 C 11.58 g/m*3 16.4 C 17.7 km/h
1357 08-10-2020 17:00:00 16.4 C 11.45 g/m*3 16.4 C 19.3 km/h
1358 08-10-2020 17:05:00 16.4 C 11.45 g/m*3 16.4 C 12.9 km/h
1359 08-10-2020 17:10:00 16.5 C 11.51 g/m*3 16.5 C 17.7 km/h
1360 08-10-2020 17:15:00 16.5 C 11.51 g/m*3 16.5 C 11.3 km/h
1361 08-10-2020 17:20:00 16.5 C 11.37 g/m*3 16.5 C 14.5 km/h
1362 08-10-2020 17:25:00 16.5 C 11.37 g/m*3 16.5 C 12.9 km/h
1363 08-10-2020 17:30:00 16.6 C 11.44 g/m*3 16.6 C 9.7 km/h
1364 08-10-2020 17:35:00 16.6 C 11.44 g/m*3 16.6 C 14.5 km/h
1365 08-10-2020 17:40:00 16.6 C 11.58 g/m*3 16.6 C 6.4 km/h
1366 08-10-2020 17:45:00 16.6 C 11.44 g/m*3 16.6 C 11.3 km/h
1367 08-10-2020 17:50:00 16.6 C 11.44 g/m*3 16.6 C 6.4 km/h
1368 08-10-2020 17:55:00 16.6 C 11.58 g/m*3 16.6 C 4.8 km/h
1369 08-10-2020 18:00:00 16.6 C 11.44 g/m*3 16.6 C 11.3 km/h
1370 08-10-2020 18:05:00 16.6 C 11.44 g/m*3 16.6 C 6.4 km/h
1371 08-10-2020 18:10:00 16.6 C 11.44 g/m*3 16.6 C 6.4 km/h
1372 08-10-2020 18:15:00 16.6 C 11.44 g/m*3 16.6 C 12.9 km/h
1373 08-10-2020 18:20:00 16.6 C 11.44 g/m*3 16.6 C 11.3 km/h
1374 08-10-2020 18:25:00 16.6 C 11.58 g/m*3 16.6 C 9.7 km/h
1375 08-10-2020 18:30:00 16.5 C 11.37 g/m*3 16.5 C 11.3 km/h
Sensor: Nr:Datum:Temp:Abs-Feuchte:Windchill:Wind:
Aussen-T/F 1376 08-10-2020 18:35:00 16.5 C 11.51 g/m*3 16.5 C 14.5 km/h
1377 08-10-2020 18:40:00 16.5 C 11.37 g/m*3 16.5 C 12.9 km/h
1378 08-10-2020 18:45:00 16.4 C 11.45 g/m*3 16.4 C 12.9 km/h
1379 08-10-2020 18:50:00 16.4 C 11.45 g/m*3 16.4 C 9.7 km/h
1380 08-10-2020 18:55:00 16.4 C 11.45 g/m*3 16.4 C 19.3 km/h
1381 08-10-2020 19:00:00 16.4 C 11.45 g/m*3 16.4 C 17.7 km/h
1382 08-10-2020 19:05:00 16.3 C 11.38 g/m*3 16.3 C 17.7 km/h
1383 08-10-2020 19:10:00 16.3 C 11.38 g/m*3 16.3 C 16.1 km/h
1384 08-10-2020 19:15:00 16.3 C 11.38 g/m*3 16.3 C 9.7 km/h
1385 08-10-2020 19:20:00 16.3 C 11.38 g/m*3 16.3 C 12.9 km/h
1386 08-10-2020 19:25:00 16.3 C 11.38 g/m*3 16.3 C 20.9 km/h
1387 08-10-2020 19:30:00 16.3 C 11.38 g/m*3 16.3 C 11.3 km/h
1388 08-10-2020 19:35:00 16.3 C 11.38 g/m*3 16.3 C 14.5 km/h
1389 08-10-2020 19:40:00 16.3 C 11.38 g/m*3 16.3 C 22.5 km/h
1390 08-10-2020 19:45:00 16.3 C 11.38 g/m*3 16.3 C 16.1 km/h
1391 08-10-2020 19:50:00 16.3 C 11.52 g/m*3 16.3 C 27.4 km/h
1392 08-10-2020 19:55:00 16.3 C 11.52 g/m*3 16.3 C 14.5 km/h
1393 08-10-2020 20:00:00 16.3 C 11.52 g/m*3 16.3 C 14.5 km/h
1394 08-10-2020 20:05:00 16.3 C 11.52 g/m*3 16.3 C 19.3 km/h
1395 08-10-2020 20:10:00 16.3 C 11.52 g/m*3 16.3 C 25.7 km/h
1396 08-10-2020 20:15:00 16.3 C 11.52 g/m*3 16.3 C 19.3 km/h
1397 08-10-2020 20:20:00 16.3 C 11.52 g/m*3 16.3 C 24.1 km/h
1398 08-10-2020 20:25:00 16.3 C 11.52 g/m*3 16.3 C 19.3 km/h
1399 08-10-2020 20:30:00 16.3 C 11.52 g/m*3 16.3 C 24.1 km/h
1400 08-10-2020 20:35:00 16.3 C 11.52 g/m*3 16.3 C 16.1 km/h
Sensor: Nr:Datum:Temp:Abs-Feuchte:Windchill:Wind:
Aussen-T/F 1401 08-10-2020 20:40:00 16.3 C 11.65 g/m*3 16.3 C 16.1 km/h
1402 08-10-2020 20:45:00 16.3 C 11.65 g/m*3 16.3 C 11.3 km/h
1403 08-10-2020 20:50:00 16.3 C 11.65 g/m*3 16.3 C 25.7 km/h
1404 08-10-2020 20:55:00 16.2 C 11.72 g/m*3 16.2 C 25.7 km/h
1405 08-10-2020 21:00:00 16.2 C 11.72 g/m*3 16.2 C 14.5 km/h
1406 08-10-2020 21:05:00 16.1 C 11.65 g/m*3 16.1 C 17.7 km/h
1407 08-10-2020 21:10:00 16.1 C 11.65 g/m*3 16.1 C 17.7 km/h
1408 08-10-2020 21:15:00 16.1 C 11.65 g/m*3 16.1 C 11.3 km/h
1409 08-10-2020 21:20:00 16.1 C 11.65 g/m*3 16.1 C 19.3 km/h
1410 08-10-2020 21:25:00 16.2 C 11.72 g/m*3 16.2 C 22.5 km/h
1411 08-10-2020 21:30:00 16.2 C 11.72 g/m*3 16.2 C 24.1 km/h
1412 08-10-2020 21:35:00 16.3 C 11.79 g/m*3 16.3 C 11.3 km/h
1413 08-10-2020 21:40:00 16.3 C 11.79 g/m*3 16.3 C 22.5 km/h
1414 08-10-2020 21:45:00 16.4 C 11.86 g/m*3 16.4 C 17.7 km/h
1415 08-10-2020 21:50:00 16.4 C 11.72 g/m*3 16.4 C 11.3 km/h
1416 08-10-2020 21:55:00 16.4 C 11.72 g/m*3 16.4 C 19.3 km/h
1417 08-10-2020 22:00:00 16.5 C 11.8 g/m*3 16.5 C 22.5 km/h
1418 08-10-2020 22:05:00 16.5 C 11.8 g/m*3 16.5 C 22.5 km/h
1419 08-10-2020 22:10:00 16.5 C 11.8 g/m*3 16.5 C 20.9 km/h
1420 08-10-2020 22:15:00 16.4 C 11.72 g/m*3 16.4 C 16.1 km/h
1421 08-10-2020 22:20:00 16.5 C 11.8 g/m*3 16.5 C 20.9 km/h
1422 08-10-2020 22:25:00 16.5 C 11.8 g/m*3 16.5 C 16.1 km/h
1423 08-10-2020 22:30:00 16.5 C 11.8 g/m*3 16.5 C 25.7 km/h
1424 08-10-2020 22:35:00 16.5 C 11.8 g/m*3 16.5 C 20.9 km/h
1425 08-10-2020 22:40:00 16.5 C 11.8 g/m*3 16.5 C 19.3 km/h
Sensor: Nr:Datum:Temp:Abs-Feuchte:Windchill:Wind:
Aussen-T/F 1426 08-10-2020 22:45:00 16.4 C 11.72 g/m*3 16.4 C 16.1 km/h
1427 08-10-2020 22:50:00 16.4 C 11.72 g/m*3 16.4 C 24.1 km/h
1428 08-10-2020 22:55:00 16.4 C 11.86 g/m*3 16.4 C 14.5 km/h
1429 08-10-2020 23:00:00 16.3 C 11.79 g/m*3 16.3 C 16.1 km/h
1430 08-10-2020 23:05:00 16.3 C 11.79 g/m*3 16.3 C 29 km/h
1431 08-10-2020 23:10:00 16.3 C 11.79 g/m*3 16.3 C 16.1 km/h
1432 08-10-2020 23:15:00 16.2 C 11.86 g/m*3 16.2 C 22.5 km/h
1433 08-10-2020 23:20:00 16.2 C 11.86 g/m*3 16.2 C 19.3 km/h
1434 08-10-2020 23:25:00 16.3 C 11.93 g/m*3 16.3 C 19.3 km/h
1435 08-10-2020 23:30:00 16.3 C 11.79 g/m*3 16.3 C 12.9 km/h
1436 08-10-2020 23:35:00 16.3 C 11.79 g/m*3 16.3 C 24.1 km/h
1437 08-10-2020 23:40:00 16.3 C 11.79 g/m*3 16.3 C 14.5 km/h
1438 08-10-2020 23:45:00 16.3 C 11.79 g/m*3 16.3 C 17.7 km/h
1439 08-10-2020 23:50:00 16.3 C 11.79 g/m*3 16.3 C 14.5 km/h
1440 08-10-2020 23:55:00 16.3 C 11.79 g/m*3 16.3 C 19.3 km/h
1441 09-10-2020 00:00:00 16.2 C 11.72 g/m*3 16.2 C 14.5 km/h
1442 09-10-2020 00:05:00 16.3 C 11.79 g/m*3 16.3 C 20.9 km/h
1443 09-10-2020 00:10:00 16.3 C 11.79 g/m*3 16.3 C 20.9 km/h
1444 09-10-2020 00:15:00 16.3 C 11.79 g/m*3 16.3 C 17.7 km/h
1445 09-10-2020 00:20:00 16.2 C 11.72 g/m*3 16.2 C 19.3 km/h
1446 09-10-2020 00:25:00 16.2 C 11.72 g/m*3 16.2 C 27.4 km/h
1447 09-10-2020 00:30:00 16.2 C 11.72 g/m*3 16.2 C 14.5 km/h
1448 09-10-2020 00:35:00 16.2 C 11.72 g/m*3 16.2 C 17.7 km/h
1449 09-10-2020 00:40:00 16.1 C 11.79 g/m*3 16.1 C 20.9 km/h
1450 09-10-2020 00:45:00 16.1 C 11.79 g/m*3 16.1 C 19.3 km/h
Sensor: Nr:Datum:Temp:Abs-Feuchte:Windchill:Wind:
Aussen-T/F 1451 09-10-2020 00:50:00 16.1 C 11.79 g/m*3 16.1 C 20.9 km/h
1452 09-10-2020 00:55:00 16 C 11.72 g/m*3 16 C 24.1 km/h
1453 09-10-2020 01:00:00 15.9 C 11.65 g/m*3 15.9 C 16.1 km/h
1454 09-10-2020 01:05:00 16 C 11.72 g/m*3 16 C 24.1 km/h
1455 09-10-2020 01:10:00 15.9 C 11.65 g/m*3 15.9 C 11.3 km/h
1456 09-10-2020 01:15:00 15.9 C 11.65 g/m*3 15.9 C 11.3 km/h
1457 09-10-2020 01:20:00 15.9 C 11.78 g/m*3 15.9 C 9.7 km/h
1458 09-10-2020 01:25:00 15.8 C 11.44 g/m*3 15.8 C 14.5 km/h
1459 09-10-2020 01:30:00 15.4 C 11.3 g/m*3 15.4 C 8.1 km/h
1460 09-10-2020 01:35:00 15.1 C 11.22 g/m*3 15.1 C 9.7 km/h
1461 09-10-2020 01:40:00 14.9 C 11.09 g/m*3 14.9 C 9.7 km/h
1462 09-10-2020 01:45:00 14.8 C 11.15 g/m*3 14.8 C 9.7 km/h
1463 09-10-2020 01:50:00 14.6 C 11.14 g/m*3 14.6 C 8.1 km/h
1464 09-10-2020 01:55:00 14.4 C 11.13 g/m*3 14.4 C 6.4 km/h
1465 09-10-2020 02:00:00 14.3 C 11.06 g/m*3 14.3 C 1.6 km/h
1466 09-10-2020 02:05:00 14.2 C 11.11 g/m*3 14.2 C 1.6 km/h
1467 09-10-2020 02:10:00 14.1 C 11.04 g/m*3 14.1 C 3.2 km/h
1468 09-10-2020 02:15:00 13.9 C 10.91 g/m*3 13.9 C 3.2 km/h
1469 09-10-2020 02:20:00 13.8 C 10.96 g/m*3 13.8 C 0 km/h
1470 09-10-2020 02:25:00 13.8 C 10.96 g/m*3 13.8 C 1.6 km/h
1471 09-10-2020 02:30:00 13.8 C 11.08 g/m*3 13.8 C 4.8 km/h
1472 09-10-2020 02:35:00 13.7 C 11.01 g/m*3 13.7 C 0 km/h
1473 09-10-2020 02:40:00 13.7 C 11.01 g/m*3 13.7 C 0 km/h
1474 09-10-2020 02:45:00 13.6 C 10.95 g/m*3 13.6 C 3.2 km/h
1475 09-10-2020 02:50:00 13.6 C 10.95 g/m*3 13.6 C 1.6 km/h
Sensor: Nr:Datum:Temp:Abs-Feuchte:Windchill:Wind:
Aussen-T/F 1476 09-10-2020 02:55:00 13.5 C 10.88 g/m*3 13.5 C 1.6 km/h
1477 09-10-2020 03:00:00 13.5 C 10.99 g/m*3 13.5 C 3.2 km/h
1478 09-10-2020 03:05:00 13.4 C 10.93 g/m*3 13.4 C 0 km/h
1479 09-10-2020 03:10:00 13.4 C 10.93 g/m*3 13.4 C 0 km/h
1480 09-10-2020 03:15:00 13.4 C 10.93 g/m*3 13.4 C 0 km/h
1481 09-10-2020 03:20:00 13.4 C 10.93 g/m*3 13.4 C 0 km/h
1482 09-10-2020 03:25:00 13.4 C 10.93 g/m*3 13.4 C 0 km/h
1483 09-10-2020 03:30:00 13.4 C 10.93 g/m*3 13.4 C 0 km/h
1484 09-10-2020 03:35:00 13.3 C 10.86 g/m*3 13.3 C 0 km/h
1485 09-10-2020 03:40:00 13.3 C 10.86 g/m*3 13.3 C 1.6 km/h
1486 09-10-2020 03:45:00 13.3 C 10.86 g/m*3 13.3 C 4.8 km/h
1487 09-10-2020 03:50:00 13.2 C 10.79 g/m*3 13.2 C 1.6 km/h
1488 09-10-2020 03:55:00 13.2 C 10.79 g/m*3 13.2 C 1.6 km/h
1489 09-10-2020 04:00:00 13.1 C 10.73 g/m*3 13.1 C 3.2 km/h
1490 09-10-2020 04:05:00 12.9 C 10.59 g/m*3 12.9 C 6.4 km/h
1491 09-10-2020 04:10:00 12.9 C 10.59 g/m*3 12.9 C 1.6 km/h
1492 09-10-2020 04:15:00 12.9 C 10.71 g/m*3 12.9 C 1.6 km/h
1493 09-10-2020 04:20:00 12.8 C 10.64 g/m*3 12.8 C 1.6 km/h
1494 09-10-2020 04:25:00 12.8 C 10.64 g/m*3 12.8 C 3.2 km/h
1495 09-10-2020 04:30:00 12.8 C 10.64 g/m*3 12.8 C 3.2 km/h
1496 09-10-2020 04:35:00 12.8 C 10.64 g/m*3 12.8 C 1.6 km/h
1497 09-10-2020 04:40:00 12.8 C 10.64 g/m*3 12.8 C 0 km/h
1498 09-10-2020 04:45:00 12.7 C 10.58 g/m*3 12.7 C 3.2 km/h
1499 09-10-2020 04:50:00 12.7 C 10.58 g/m*3 12.7 C 0 km/h
1500 09-10-2020 04:55:00 12.7 C 10.58 g/m*3 12.7 C 0 km/h
Sensor: Nr:Datum:Temp:Abs-Feuchte:Windchill:Wind:
Aussen-T/F 1501 09-10-2020 05:00:00 12.7 C 10.58 g/m*3 12.7 C 0 km/h
1502 09-10-2020 05:05:00 12.7 C 10.58 g/m*3 12.7 C 0 km/h
1503 09-10-2020 05:10:00 12.7 C 10.58 g/m*3 12.7 C 0 km/h
1504 09-10-2020 05:15:00 12.7 C 10.58 g/m*3 12.7 C 0 km/h
1505 09-10-2020 05:20:00 12.7 C 10.58 g/m*3 12.7 C 0 km/h
1506 09-10-2020 05:25:00 12.7 C 10.58 g/m*3 12.7 C 0 km/h
1507 09-10-2020 05:30:00 12.7 C 10.58 g/m*3 12.7 C 0 km/h
1508 09-10-2020 05:35:00 12.7 C 10.58 g/m*3 12.7 C 0 km/h
1509 09-10-2020 05:40:00 12.6 C 10.51 g/m*3 12.6 C 0 km/h
1510 09-10-2020 05:45:00 12.6 C 10.51 g/m*3 12.6 C 0 km/h
1511 09-10-2020 05:50:00 12.6 C 10.51 g/m*3 12.6 C 0 km/h
1512 09-10-2020 05:55:00 12.6 C 10.51 g/m*3 12.6 C 0 km/h
1513 09-10-2020 06:00:00 12.6 C 10.51 g/m*3 12.6 C 0 km/h
1514 09-10-2020 06:05:00 12.6 C 10.51 g/m*3 12.6 C 0 km/h
1515 09-10-2020 06:10:00 12.6 C 10.51 g/m*3 12.6 C 0 km/h
1516 09-10-2020 06:15:00 12.6 C 10.51 g/m*3 12.6 C 0 km/h
1517 09-10-2020 06:20:00 12.6 C 10.51 g/m*3 12.6 C 0 km/h
1518 09-10-2020 06:25:00 12.6 C 10.51 g/m*3 12.6 C 0 km/h
1519 09-10-2020 06:30:00 12.6 C 10.51 g/m*3 12.6 C 0 km/h
1520 09-10-2020 06:35:00 12.6 C 10.51 g/m*3 12.6 C 0 km/h
1521 09-10-2020 06:40:00 12.6 C 10.62 g/m*3 12.6 C 0 km/h
1522 09-10-2020 06:45:00 12.6 C 10.62 g/m*3 12.6 C 0 km/h
1523 09-10-2020 06:50:00 12.6 C 10.62 g/m*3 12.6 C 0 km/h
1524 09-10-2020 06:55:00 12.6 C 10.62 g/m*3 12.6 C 0 km/h
1525 09-10-2020 07:00:00 12.6 C 10.62 g/m*3 12.6 C 0 km/h
Sensor: Nr:Datum:Temp:Abs-Feuchte:Windchill:Wind:
Aussen-T/F 1526 09-10-2020 07:05:00 12.6 C 10.62 g/m*3 12.6 C 0 km/h
1527 09-10-2020 07:10:00 12.6 C 10.62 g/m*3 12.6 C 0 km/h
1528 09-10-2020 07:15:00 12.6 C 10.62 g/m*3 12.6 C 0 km/h
1529 09-10-2020 07:20:00 12.5 C 10.55 g/m*3 12.5 C 0 km/h
1530 09-10-2020 07:25:00 12.5 C 10.55 g/m*3 12.5 C 0 km/h
1531 09-10-2020 07:30:00 12.6 C 10.62 g/m*3 12.6 C 0 km/h
1532 09-10-2020 07:35:00 12.6 C 10.62 g/m*3 12.6 C 0 km/h
1533 09-10-2020 07:40:00 12.6 C 10.62 g/m*3 12.6 C 0 km/h
1534 09-10-2020 07:45:00 12.6 C 10.62 g/m*3 12.6 C 0 km/h
1535 09-10-2020 07:50:00 12.6 C 10.62 g/m*3 12.6 C 0 km/h
1536 09-10-2020 07:55:00 12.6 C 10.62 g/m*3 12.6 C 0 km/h
1537 09-10-2020 08:00:00 12.6 C 10.62 g/m*3 12.6 C 0 km/h
1538 09-10-2020 08:05:00 12.6 C 10.62 g/m*3 12.6 C 0 km/h
1539 09-10-2020 08:10:00 12.6 C 10.62 g/m*3 12.6 C 0 km/h
1540 09-10-2020 08:15:00 12.6 C 10.62 g/m*3 12.6 C 0 km/h
1541 09-10-2020 08:20:00 12.6 C 10.62 g/m*3 12.6 C 0 km/h
1542 09-10-2020 08:25:00 12.6 C 10.62 g/m*3 12.6 C 0 km/h
1543 09-10-2020 08:30:00 12.7 C 10.69 g/m*3 12.7 C 0 km/h
1544 09-10-2020 08:35:00 12.7 C 10.69 g/m*3 12.7 C 0 km/h
1545 09-10-2020 08:40:00 12.7 C 10.69 g/m*3 12.7 C 0 km/h
1546 09-10-2020 08:45:00 12.7 C 10.69 g/m*3 12.7 C 0 km/h
1547 09-10-2020 08:50:00 12.7 C 10.69 g/m*3 12.7 C 0 km/h
1548 09-10-2020 08:55:00 12.8 C 10.75 g/m*3 12.8 C 0 km/h
1549 09-10-2020 09:00:00 12.8 C 10.75 g/m*3 12.8 C 0 km/h
1550 09-10-2020 09:05:00 12.8 C 10.75 g/m*3 12.8 C 0 km/h
Sensor: Nr:Datum:Temp:Abs-Feuchte:Windchill:Wind:
Aussen-T/F 1551 09-10-2020 09:10:00 12.8 C 10.75 g/m*3 12.8 C 0 km/h
1552 09-10-2020 09:15:00 12.8 C 10.75 g/m*3 12.8 C 0 km/h
1553 09-10-2020 09:20:00 12.8 C 10.75 g/m*3 12.8 C 0 km/h
1554 09-10-2020 09:25:00 12.9 C 10.82 g/m*3 12.9 C 0 km/h
1555 09-10-2020 09:30:00 12.9 C 10.82 g/m*3 12.9 C 1.6 km/h
1556 09-10-2020 09:35:00 13 C 10.89 g/m*3 13 C 1.6 km/h
1557 09-10-2020 09:40:00 12.9 C 10.82 g/m*3 12.9 C 4.8 km/h
1558 09-10-2020 09:45:00 12.9 C 10.82 g/m*3 12.9 C 4.8 km/h
1559 09-10-2020 09:50:00 12.9 C 10.82 g/m*3 12.9 C 3.2 km/h
1560 09-10-2020 09:55:00 13 C 10.89 g/m*3 13 C 3.2 km/h
1561 09-10-2020 10:00:00 12.9 C 10.82 g/m*3 12.9 C 0 km/h
1562 09-10-2020 10:05:00 12.9 C 10.82 g/m*3 12.9 C 3.2 km/h
1563 09-10-2020 10:10:00 12.9 C 10.82 g/m*3 12.9 C 1.6 km/h
1564 09-10-2020 10:15:00 12.9 C 10.82 g/m*3 12.9 C 1.6 km/h
1565 09-10-2020 10:20:00 12.9 C 10.93 g/m*3 12.9 C 0 km/h
1566 09-10-2020 10:25:00 12.9 C 10.93 g/m*3 12.9 C 0 km/h
1567 09-10-2020 10:30:00 13 C 11 g/m*3 13 C 0 km/h
1568 09-10-2020 10:35:00 13 C 11 g/m*3 13 C 0 km/h
1569 09-10-2020 10:40:00 13 C 11 g/m*3 13 C 1.6 km/h
1570 09-10-2020 10:45:00 13 C 11 g/m*3 13 C 0 km/h
1571 09-10-2020 10:50:00 13.1 C 11.07 g/m*3 13.1 C 0 km/h
1572 09-10-2020 10:55:00 13.1 C 11.07 g/m*3 13.1 C 1.6 km/h
1573 09-10-2020 11:00:00 13.1 C 11.07 g/m*3 13.1 C 0 km/h
1574 09-10-2020 11:05:00 13.2 C 11.14 g/m*3 13.2 C 0 km/h
1575 09-10-2020 11:10:00 13.2 C 11.14 g/m*3 13.2 C 0 km/h
Sensor: Nr:Datum:Temp:Abs-Feuchte:Windchill:Wind:
Aussen-T/F 1576 09-10-2020 11:15:00 13.2 C 11.14 g/m*3 13.2 C 0 km/h
1577 09-10-2020 11:20:00 13.3 C 11.21 g/m*3 13.3 C 0 km/h
1578 09-10-2020 11:25:00 13.3 C 11.21 g/m*3 13.3 C 0 km/h
1579 09-10-2020 11:30:00 13.4 C 11.28 g/m*3 13.4 C 0 km/h
1580 09-10-2020 11:35:00 13.4 C 11.28 g/m*3 13.4 C 0 km/h
1581 09-10-2020 11:40:00 13.5 C 11.35 g/m*3 13.5 C 0 km/h
1582 09-10-2020 11:45:00 13.6 C 11.42 g/m*3 13.6 C 0 km/h
1583 09-10-2020 11:50:00 13.6 C 11.42 g/m*3 13.6 C 0 km/h
1584 09-10-2020 11:55:00 13.7 C 11.49 g/m*3 13.7 C 0 km/h
1585 09-10-2020 12:00:00 13.7 C 11.49 g/m*3 13.7 C 0 km/h
1586 09-10-2020 12:05:00 13.7 C 11.49 g/m*3 13.7 C 0 km/h
1587 09-10-2020 12:10:00 13.8 C 11.56 g/m*3 13.8 C 0 km/h
1588 09-10-2020 12:15:00 13.9 C 11.63 g/m*3 13.9 C 0 km/h
1589 09-10-2020 12:20:00 13.9 C 11.63 g/m*3 13.9 C 0 km/h
1590 09-10-2020 12:25:00 14.1 C 11.77 g/m*3 14.1 C 0 km/h
1591 09-10-2020 12:30:00 14.2 C 11.84 g/m*3 14.2 C 0 km/h
1592 09-10-2020 12:35:00 14.2 C 11.84 g/m*3 14.2 C 0 km/h
1593 09-10-2020 12:40:00 14.3 C 11.92 g/m*3 14.3 C 0 km/h
1594 09-10-2020 12:45:00 14.5 C 12.06 g/m*3 14.5 C 6.4 km/h
1595 09-10-2020 12:50:00 14.6 C 12.14 g/m*3 14.6 C 6.4 km/h
1596 09-10-2020 12:55:00 14.6 C 12.14 g/m*3 14.6 C 4.8 km/h
1597 09-10-2020 13:00:00 14.6 C 12.14 g/m*3 14.6 C 1.6 km/h
1598 09-10-2020 13:05:00 14.6 C 12.14 g/m*3 14.6 C 3.2 km/h
1599 09-10-2020 13:10:00 14.6 C 12.14 g/m*3 14.6 C 0 km/h
1600 09-10-2020 13:15:00 14.6 C 12.14 g/m*3 14.6 C 0 km/h
Sensor: Nr:Datum:Temp:Abs-Feuchte:Windchill:Wind:
Aussen-T/F 1601 09-10-2020 13:20:00 14.7 C 12.21 g/m*3 14.7 C 0 km/h
1602 09-10-2020 13:25:00 14.8 C 12.29 g/m*3 14.8 C 1.6 km/h
1603 09-10-2020 13:30:00 14.8 C 12.29 g/m*3 14.8 C 3.2 km/h
1604 09-10-2020 13:35:00 14.9 C 12.36 g/m*3 14.9 C 6.4 km/h
1605 09-10-2020 13:40:00 14.9 C 12.36 g/m*3 14.9 C 6.4 km/h
1606 09-10-2020 13:45:00 15 C 12.44 g/m*3 15 C 8.1 km/h
1607 09-10-2020 13:50:00 14.9 C 12.36 g/m*3 14.9 C 12.9 km/h
1608 09-10-2020 13:55:00 14.9 C 12.24 g/m*3 14.9 C 9.7 km/h
1609 09-10-2020 14:00:00 14.9 C 12.24 g/m*3 14.9 C 9.7 km/h
1610 09-10-2020 14:05:00 14.9 C 12.24 g/m*3 14.9 C 4.8 km/h
1611 09-10-2020 14:10:00 15 C 12.31 g/m*3 15 C 4.8 km/h
1612 09-10-2020 14:15:00 14.9 C 12.24 g/m*3 14.9 C 6.4 km/h
1613 09-10-2020 14:20:00 14.9 C 12.24 g/m*3 14.9 C 6.4 km/h
1614 09-10-2020 14:25:00 15 C 12.31 g/m*3 15 C 9.7 km/h
1615 09-10-2020 14:30:00 14.9 C 12.24 g/m*3 14.9 C 8.1 km/h
1616 09-10-2020 14:35:00 14.9 C 12.11 g/m*3 14.9 C 9.7 km/h
1617 09-10-2020 14:40:00 14.9 C 12.11 g/m*3 14.9 C 6.4 km/h
1618 09-10-2020 14:45:00 14.9 C 12.11 g/m*3 14.9 C 4.8 km/h
1619 09-10-2020 14:50:00 14.8 C 12.03 g/m*3 14.8 C 12.9 km/h
1620 09-10-2020 14:55:00 14.8 C 12.03 g/m*3 14.8 C 3.2 km/h
1621 09-10-2020 15:00:00 14.8 C 12.03 g/m*3 14.8 C 4.8 km/h
1622 09-10-2020 15:05:00 14.8 C 12.03 g/m*3 14.8 C 6.4 km/h
1623 09-10-2020 15:10:00 14.8 C 12.03 g/m*3 14.8 C 8.1 km/h
1624 09-10-2020 15:15:00 14.7 C 11.96 g/m*3 14.7 C 4.8 km/h
1625 09-10-2020 15:20:00 14.7 C 11.96 g/m*3 14.7 C 4.8 km/h
Sensor: Nr:Datum:Temp:Abs-Feuchte:Windchill:Wind:
Aussen-T/F 1626 09-10-2020 15:25:00 14.7 C 11.96 g/m*3 14.7 C 4.8 km/h
1627 09-10-2020 15:30:00 14.8 C 12.03 g/m*3 14.8 C 4.8 km/h
1628 09-10-2020 15:35:00 14.7 C 11.96 g/m*3 14.7 C 8.1 km/h
1629 09-10-2020 15:40:00 14.7 C 11.96 g/m*3 14.7 C 6.4 km/h
1630 09-10-2020 15:45:00 14.7 C 11.96 g/m*3 14.7 C 4.8 km/h
1631 09-10-2020 15:50:00 14.6 C 11.76 g/m*3 14.6 C 4.8 km/h
1632 09-10-2020 15:55:00 14.3 C 11.55 g/m*3 14.3 C 3.2 km/h
1633 09-10-2020 16:00:00 14.1 C 11.41 g/m*3 14.1 C 8.1 km/h
1634 09-10-2020 16:05:00 13.9 C 11.27 g/m*3 13.9 C 4.8 km/h
1635 09-10-2020 16:10:00 13.7 C 11.13 g/m*3 13.7 C 6.4 km/h
1636 09-10-2020 16:15:00 13.6 C 11.06 g/m*3 13.6 C 0 km/h
1637 09-10-2020 16:20:00 13.6 C 11.18 g/m*3 13.6 C 0 km/h
1638 09-10-2020 16:25:00 13.6 C 11.18 g/m*3 13.6 C 0 km/h
1639 09-10-2020 16:30:00 13.6 C 11.18 g/m*3 13.6 C 0 km/h
1640 09-10-2020 16:35:00 13.6 C 11.18 g/m*3 13.6 C 0 km/h
1641 09-10-2020 16:40:00 13.6 C 11.18 g/m*3 13.6 C 0 km/h
1642 09-10-2020 16:45:00 13.5 C 11.11 g/m*3 13.5 C 1.6 km/h
1643 09-10-2020 16:50:00 13.5 C 11.11 g/m*3 13.5 C 0 km/h
1644 09-10-2020 16:55:00 13.4 C 11.04 g/m*3 13.4 C 4.8 km/h
1645 09-10-2020 17:00:00 13.4 C 11.04 g/m*3 13.4 C 1.6 km/h
1646 09-10-2020 17:05:00 13.4 C 11.04 g/m*3 13.4 C 0 km/h
1647 09-10-2020 17:10:00 13.3 C 11.09 g/m*3 13.3 C 3.2 km/h
1648 09-10-2020 17:15:00 13.3 C 11.09 g/m*3 13.3 C 11.3 km/h
1649 09-10-2020 17:20:00 13.2 C 10.91 g/m*3 13.2 C 8.1 km/h
1650 09-10-2020 17:25:00 13.1 C 10.84 g/m*3 13.1 C 1.6 km/h
Sensor: Nr:Datum:Temp:Abs-Feuchte:Windchill:Wind:
Aussen-T/F 1651 09-10-2020 17:30:00 13.1 C 10.95 g/m*3 13.1 C 3.2 km/h
1652 09-10-2020 17:35:00 13.1 C 10.95 g/m*3 13.1 C 3.2 km/h
1653 09-10-2020 17:40:00 13.1 C 10.95 g/m*3 13.1 C 4.8 km/h
1654 09-10-2020 17:45:00 12.9 C 10.71 g/m*3 12.9 C 9.7 km/h
1655 09-10-2020 17:50:00 12.7 C 10.58 g/m*3 12.7 C 6.4 km/h
1656 09-10-2020 17:55:00 12.6 C 10.51 g/m*3 12.6 C 4.8 km/h
1657 09-10-2020 18:00:00 12.4 C 10.38 g/m*3 12.4 C 4.8 km/h
1658 09-10-2020 18:05:00 12.3 C 10.32 g/m*3 12.3 C 0 km/h
1659 09-10-2020 18:10:00 12.3 C 10.32 g/m*3 12.3 C 4.8 km/h
1660 09-10-2020 18:15:00 12.3 C 10.32 g/m*3 12.3 C 1.6 km/h
1661 09-10-2020 18:20:00 12.3 C 10.32 g/m*3 12.3 C 3.2 km/h
1662 09-10-2020 18:25:00 12.3 C 10.32 g/m*3 12.3 C 6.4 km/h
1663 09-10-2020 18:30:00 12.2 C 10.25 g/m*3 12.2 C 6.4 km/h
1664 09-10-2020 18:35:00 12.2 C 10.25 g/m*3 12.2 C 4.8 km/h
1665 09-10-2020 18:40:00 12.2 C 10.25 g/m*3 12.2 C 3.2 km/h
1666 09-10-2020 18:45:00 12.1 C 10.19 g/m*3 12.1 C 4.8 km/h
1667 09-10-2020 18:50:00 12 C 10.12 g/m*3 12 C 4.8 km/h
1668 09-10-2020 18:55:00 11.9 C 10.06 g/m*3 11.9 C 6.4 km/h
1669 09-10-2020 19:00:00 11.8 C 10 g/m*3 11.8 C 6.4 km/h
1670 09-10-2020 19:05:00 11.7 C 9.94 g/m*3 11.7 C 6.4 km/h
1671 09-10-2020 19:10:00 11.5 C 9.81 g/m*3 11.5 C 6.4 km/h
1672 09-10-2020 19:15:00 11.3 C 9.69 g/m*3 11.3 C 6.4 km/h
1673 09-10-2020 19:20:00 11.2 C 9.63 g/m*3 11.2 C 8.1 km/h
1674 09-10-2020 19:25:00 11.1 C 9.57 g/m*3 11.1 C 8.1 km/h
1675 09-10-2020 19:30:00 11 C 9.51 g/m*3 10.52 C 6.4 km/h
Sensor: Nr:Datum:Temp:Abs-Feuchte:Windchill:Wind:
Aussen-T/F 1676 09-10-2020 19:35:00 10.9 C 9.45 g/m*3 10.9 C 0 km/h
1677 09-10-2020 19:40:00 10.9 C 9.55 g/m*3 10.9 C 1.6 km/h
1678 09-10-2020 19:45:00 10.8 C 9.49 g/m*3 10.8 C 1.6 km/h
1679 09-10-2020 19:50:00 10.8 C 9.39 g/m*3 10.8 C 0 km/h
1680 09-10-2020 19:55:00 10.7 C 9.33 g/m*3 10.7 C 0 km/h
1681 09-10-2020 20:00:00 10.6 C 9.37 g/m*3 10.6 C 0 km/h
1682 09-10-2020 20:05:00 10.5 C 9.21 g/m*3 10.5 C 0 km/h
1683 09-10-2020 20:10:00 10.4 C 9.16 g/m*3 10.4 C 0 km/h
1684 09-10-2020 20:15:00 10.3 C 9.1 g/m*3 10.3 C 0 km/h
1685 09-10-2020 20:20:00 10.3 C 9.19 g/m*3 10.3 C 0 km/h
1686 09-10-2020 20:25:00 10.3 C 9.19 g/m*3 10.3 C 0 km/h
1687 09-10-2020 20:30:00 10.3 C 9.19 g/m*3 10.3 C 0 km/h
1688 09-10-2020 20:35:00 10.2 C 9.14 g/m*3 10.2 C 0 km/h
1689 09-10-2020 20:40:00 10.2 C 9.14 g/m*3 10.2 C 0 km/h
1690 09-10-2020 20:45:00 10.2 C 9.14 g/m*3 10.2 C 0 km/h
1691 09-10-2020 20:50:00 10.2 C 9.14 g/m*3 10.2 C 0 km/h
1692 09-10-2020 20:55:00 10.3 C 9.19 g/m*3 10.3 C 0 km/h
1693 09-10-2020 21:00:00 10.3 C 9.19 g/m*3 10.3 C 0 km/h
1694 09-10-2020 21:05:00 10.5 C 9.31 g/m*3 10.5 C 0 km/h
1695 09-10-2020 21:10:00 10.6 C 9.37 g/m*3 10.6 C 0 km/h
1696 09-10-2020 21:15:00 10.6 C 9.37 g/m*3 10.6 C 0 km/h
1697 09-10-2020 21:20:00 10.6 C 9.37 g/m*3 10.6 C 0 km/h
1698 09-10-2020 21:25:00 10.6 C 9.37 g/m*3 10.6 C 0 km/h
1699 09-10-2020 21:30:00 10.4 C 9.25 g/m*3 10.4 C 0 km/h
1700 09-10-2020 21:35:00 10.3 C 9.19 g/m*3 10.3 C 0 km/h
Sensor: Nr:Datum:Temp:Abs-Feuchte:Windchill:Wind:
Aussen-T/F 1701 09-10-2020 21:40:00 10.3 C 9.19 g/m*3 10.3 C 0 km/h
1702 09-10-2020 21:45:00 10.3 C 9.19 g/m*3 10.3 C 0 km/h
1703 09-10-2020 21:50:00 10.3 C 9.19 g/m*3 10.3 C 0 km/h
1704 09-10-2020 21:55:00 10.3 C 9.19 g/m*3 10.3 C 0 km/h
1705 09-10-2020 22:00:00 10.3 C 9.19 g/m*3 10.3 C 0 km/h
1706 09-10-2020 22:05:00 10.3 C 9.29 g/m*3 10.3 C 0 km/h
1707 09-10-2020 22:10:00 10.3 C 9.29 g/m*3 10.3 C 0 km/h
1708 09-10-2020 22:15:00 10.3 C 9.19 g/m*3 10.3 C 0 km/h
1709 09-10-2020 22:20:00 10.2 C 9.14 g/m*3 10.2 C 0 km/h
1710 09-10-2020 22:25:00 10.1 C 9.08 g/m*3 10.1 C 0 km/h
1711 09-10-2020 22:30:00 10.2 C 9.14 g/m*3 10.2 C 0 km/h
1712 09-10-2020 22:35:00 10.2 C 9.14 g/m*3 10.2 C 0 km/h
1713 09-10-2020 22:40:00 10.2 C 9.14 g/m*3 10.2 C 0 km/h
1714 09-10-2020 22:45:00 10.3 C 9.29 g/m*3 10.3 C 0 km/h
1715 09-10-2020 22:50:00 10.4 C 9.35 g/m*3 10.4 C 0 km/h
1716 09-10-2020 22:55:00 10.5 C 9.41 g/m*3 10.5 C 0 km/h
1717 09-10-2020 23:00:00 10.6 C 9.47 g/m*3 10.6 C 0 km/h
1718 09-10-2020 23:05:00 10.7 C 9.53 g/m*3 10.7 C 0 km/h
1719 09-10-2020 23:10:00 10.7 C 9.53 g/m*3 10.7 C 0 km/h
1720 09-10-2020 23:15:00 10.8 C 9.59 g/m*3 10.8 C 0 km/h
1721 09-10-2020 23:20:00 10.9 C 9.65 g/m*3 10.9 C 0 km/h
1722 09-10-2020 23:25:00 10.9 C 9.65 g/m*3 10.9 C 0 km/h
1723 09-10-2020 23:30:00 10.9 C 9.65 g/m*3 10.9 C 0 km/h
1724 09-10-2020 23:35:00 10.9 C 9.65 g/m*3 10.9 C 0 km/h
1725 09-10-2020 23:40:00 10.9 C 9.65 g/m*3 10.9 C 0 km/h
Sensor: Nr:Datum:Temp:Abs-Feuchte:Windchill:Wind:
Aussen-T/F 1726 09-10-2020 23:45:00 11 C 9.71 g/m*3 11 C 0 km/h
1727 09-10-2020 23:50:00 11.1 C 9.77 g/m*3 11.1 C 0 km/h
1728 09-10-2020 23:55:00 11.1 C 9.77 g/m*3 11.1 C 0 km/h
1729 10-10-2020 00:00:00 11.1 C 9.77 g/m*3 11.1 C 0 km/h
1730 10-10-2020 00:05:00 11.1 C 9.77 g/m*3 11.1 C 0 km/h
1731 10-10-2020 00:10:00 11.1 C 9.77 g/m*3 11.1 C 0 km/h
1732 10-10-2020 00:15:00 11.1 C 9.77 g/m*3 11.1 C 0 km/h
1733 10-10-2020 00:20:00 11 C 9.71 g/m*3 11 C 0 km/h
1734 10-10-2020 00:25:00 10.9 C 9.65 g/m*3 10.9 C 0 km/h
1735 10-10-2020 00:30:00 10.9 C 9.65 g/m*3 10.9 C 0 km/h
1736 10-10-2020 00:35:00 10.8 C 9.59 g/m*3 10.8 C 0 km/h
1737 10-10-2020 00:40:00 10.8 C 9.59 g/m*3 10.8 C 0 km/h
1738 10-10-2020 00:45:00 10.7 C 9.53 g/m*3 10.7 C 0 km/h
1739 10-10-2020 00:50:00 10.6 C 9.47 g/m*3 10.6 C 0 km/h
1740 10-10-2020 00:55:00 10.6 C 9.47 g/m*3 10.06 C 6.4 km/h
1741 10-10-2020 01:00:00 10.4 C 9.35 g/m*3 9.83 C 6.4 km/h
1742 10-10-2020 01:05:00 10.4 C 9.35 g/m*3 9.46 C 8.1 km/h
1743 10-10-2020 01:10:00 10.3 C 9.19 g/m*3 10.3 C 4.8 km/h
1744 10-10-2020 01:15:00 10.2 C 9.23 g/m*3 10.2 C 4.8 km/h
1745 10-10-2020 01:20:00 10.1 C 9.17 g/m*3 9.48 C 6.4 km/h
1746 10-10-2020 01:25:00 10 C 9.11 g/m*3 10 C 4.8 km/h
1747 10-10-2020 01:30:00 9.9 C 8.96 g/m*3 9.25 C 6.4 km/h
1748 10-10-2020 01:35:00 9.9 C 8.96 g/m*3 9.9 C 3.2 km/h
1749 10-10-2020 01:40:00 9.8 C 9 g/m*3 9.8 C 1.6 km/h
1750 10-10-2020 01:45:00 9.7 C 8.94 g/m*3 9.7 C 3.2 km/h
Sensor: Nr:Datum:Temp:Abs-Feuchte:Windchill:Wind:
Aussen-T/F 1751 10-10-2020 01:50:00 9.7 C 8.94 g/m*3 9.7 C 0 km/h
1752 10-10-2020 01:55:00 9.6 C 8.79 g/m*3 9.6 C 1.6 km/h
1753 10-10-2020 02:00:00 9.6 C 8.89 g/m*3 9.6 C 1.6 km/h
1754 10-10-2020 02:05:00 9.6 C 8.89 g/m*3 9.6 C 4.8 km/h
1755 10-10-2020 02:10:00 9.6 C 8.89 g/m*3 9.6 C 3.2 km/h
1756 10-10-2020 02:15:00 9.6 C 8.89 g/m*3 9.6 C 4.8 km/h
1757 10-10-2020 02:20:00 9.6 C 8.89 g/m*3 8.91 C 6.4 km/h
1758 10-10-2020 02:25:00 9.6 C 8.89 g/m*3 9.6 C 0 km/h
1759 10-10-2020 02:30:00 9.6 C 8.89 g/m*3 9.6 C 0 km/h
1760 10-10-2020 02:35:00 9.6 C 8.89 g/m*3 9.6 C 0 km/h
1761 10-10-2020 02:40:00 9.6 C 8.89 g/m*3 9.6 C 4.8 km/h
1762 10-10-2020 02:45:00 9.7 C 8.94 g/m*3 9.7 C 1.6 km/h
1763 10-10-2020 02:50:00 9.6 C 8.89 g/m*3 9.6 C 0 km/h
1764 10-10-2020 02:55:00 9.6 C 8.89 g/m*3 9.6 C 0 km/h
1765 10-10-2020 03:00:00 9.6 C 8.89 g/m*3 9.6 C 0 km/h
1766 10-10-2020 03:05:00 9.6 C 8.89 g/m*3 9.6 C 0 km/h
1767 10-10-2020 03:10:00 9.5 C 8.83 g/m*3 9.5 C 3.2 km/h
1768 10-10-2020 03:15:00 9.6 C 8.89 g/m*3 8.91 C 6.4 km/h
1769 10-10-2020 03:20:00 9.6 C 8.89 g/m*3 9.6 C 4.8 km/h
1770 10-10-2020 03:25:00 9.6 C 8.89 g/m*3 9.6 C 1.6 km/h
1771 10-10-2020 03:30:00 9.6 C 8.89 g/m*3 9.6 C 3.2 km/h
1772 10-10-2020 03:35:00 9.6 C 8.89 g/m*3 9.6 C 1.6 km/h
1773 10-10-2020 03:40:00 9.6 C 8.89 g/m*3 9.6 C 3.2 km/h
1774 10-10-2020 03:45:00 9.7 C 8.94 g/m*3 9.7 C 4.8 km/h
1775 10-10-2020 03:50:00 9.7 C 8.94 g/m*3 9.7 C 3.2 km/h
Sensor: Nr:Datum:Temp:Abs-Feuchte:Windchill:Wind:
Aussen-T/F 1776 10-10-2020 03:55:00 9.7 C 8.94 g/m*3 9.7 C 1.6 km/h
1777 10-10-2020 04:00:00 9.8 C 9 g/m*3 9.8 C 4.8 km/h
1778 10-10-2020 04:05:00 9.8 C 9 g/m*3 9.8 C 1.6 km/h
1779 10-10-2020 04:10:00 9.8 C 9 g/m*3 9.8 C 3.2 km/h
1780 10-10-2020 04:15:00 9.8 C 9 g/m*3 9.8 C 1.6 km/h
1781 10-10-2020 04:20:00 9.9 C 9.06 g/m*3 9.9 C 4.8 km/h
1782 10-10-2020 04:25:00 9.9 C 9.06 g/m*3 9.9 C 1.6 km/h
1783 10-10-2020 04:30:00 9.9 C 9.06 g/m*3 9.9 C 4.8 km/h
1784 10-10-2020 04:35:00 9.9 C 9.06 g/m*3 9.9 C 4.8 km/h
1785 10-10-2020 04:40:00 9.9 C 9.06 g/m*3 9.9 C 4.8 km/h
1786 10-10-2020 04:45:00 9.9 C 9.06 g/m*3 9.9 C 0 km/h
1787 10-10-2020 04:50:00 9.9 C 9.06 g/m*3 9.9 C 0 km/h
1788 10-10-2020 04:55:00 9.9 C 9.06 g/m*3 9.9 C 3.2 km/h
1789 10-10-2020 05:00:00 9.9 C 9.06 g/m*3 9.9 C 3.2 km/h
1790 10-10-2020 05:05:00 9.9 C 9.06 g/m*3 9.9 C 1.6 km/h
1791 10-10-2020 05:10:00 9.8 C 9 g/m*3 9.8 C 1.6 km/h
1792 10-10-2020 05:15:00 9.8 C 9 g/m*3 9.8 C 0 km/h
1793 10-10-2020 05:20:00 9.8 C 9 g/m*3 9.8 C 0 km/h
1794 10-10-2020 05:25:00 9.8 C 9 g/m*3 9.8 C 0 km/h
1795 10-10-2020 05:30:00 9.8 C 9 g/m*3 9.8 C 0 km/h
1796 10-10-2020 05:35:00 9.8 C 9 g/m*3 9.8 C 0 km/h
1797 10-10-2020 05:40:00 9.8 C 9 g/m*3 9.8 C 0 km/h
1798 10-10-2020 05:45:00 9.8 C 9 g/m*3 9.8 C 0 km/h
1799 10-10-2020 05:50:00 9.8 C 9 g/m*3 9.8 C 0 km/h
1800 10-10-2020 05:55:00 9.8 C 9 g/m*3 9.8 C 0 km/h
Sensor: Nr:Datum:Temp:Abs-Feuchte:Windchill:Wind:
Aussen-T/F 1801 10-10-2020 06:00:00 9.8 C 9 g/m*3 9.8 C 0 km/h
1802 10-10-2020 06:05:00 9.8 C 9 g/m*3 9.8 C 0 km/h
1803 10-10-2020 06:10:00 9.7 C 8.94 g/m*3 9.7 C 0 km/h
1804 10-10-2020 06:15:00 9.7 C 8.94 g/m*3 9.7 C 0 km/h
1805 10-10-2020 06:20:00 9.7 C 8.94 g/m*3 9.7 C 0 km/h
1806 10-10-2020 06:25:00 9.6 C 8.89 g/m*3 9.6 C 0 km/h
1807 10-10-2020 06:30:00 9.5 C 8.83 g/m*3 9.5 C 1.6 km/h
1808 10-10-2020 06:35:00 9.4 C 8.77 g/m*3 9.4 C 0 km/h
1809 10-10-2020 06:40:00 9.3 C 8.72 g/m*3 9.3 C 0 km/h
1810 10-10-2020 06:45:00 9.3 C 8.72 g/m*3 9.3 C 0 km/h
1811 10-10-2020 06:50:00 9.2 C 8.66 g/m*3 9.2 C 0 km/h
1812 10-10-2020 06:55:00 9.2 C 8.66 g/m*3 9.2 C 0 km/h
1813 10-10-2020 07:00:00 9.2 C 8.66 g/m*3 9.2 C 0 km/h
1814 10-10-2020 07:05:00 9.2 C 8.66 g/m*3 9.2 C 0 km/h
1815 10-10-2020 07:10:00 9.1 C 8.61 g/m*3 9.1 C 1.6 km/h
1816 10-10-2020 07:15:00 9.1 C 8.61 g/m*3 9.1 C 0 km/h
1817 10-10-2020 07:20:00 9.1 C 8.61 g/m*3 9.1 C 1.6 km/h
1818 10-10-2020 07:25:00 8.9 C 8.5 g/m*3 8.9 C 4.8 km/h
1819 10-10-2020 07:30:00 8.9 C 8.5 g/m*3 8.1 C 6.4 km/h
1820 10-10-2020 07:35:00 8.8 C 8.44 g/m*3 8.8 C 3.2 km/h
1821 10-10-2020 07:40:00 8.8 C 8.44 g/m*3 8.8 C 3.2 km/h
1822 10-10-2020 07:45:00 8.7 C 8.39 g/m*3 7.87 C 6.4 km/h
1823 10-10-2020 07:50:00 8.7 C 8.39 g/m*3 8.7 C 3.2 km/h
1824 10-10-2020 07:55:00 8.6 C 8.34 g/m*3 7.75 C 6.4 km/h
1825 10-10-2020 08:00:00 8.5 C 8.28 g/m*3 8.5 C 4.8 km/h
Sensor: Nr:Datum:Temp:Abs-Feuchte:Windchill:Wind:
Aussen-T/F 1826 10-10-2020 08:05:00 8.4 C 8.23 g/m*3 8.4 C 4.8 km/h
1827 10-10-2020 08:10:00 8.4 C 8.23 g/m*3 8.4 C 3.2 km/h
1828 10-10-2020 08:15:00 8.3 C 8.18 g/m*3 8.3 C 4.8 km/h
1829 10-10-2020 08:20:00 8.3 C 8.18 g/m*3 8.3 C 3.2 km/h
1830 10-10-2020 08:25:00 8.2 C 8.12 g/m*3 8.2 C 3.2 km/h
1831 10-10-2020 08:30:00 8.3 C 8.18 g/m*3 8.3 C 4.8 km/h
1832 10-10-2020 08:35:00 8.3 C 8.18 g/m*3 8.3 C 4.8 km/h
1833 10-10-2020 08:40:00 8.3 C 8.18 g/m*3 8.3 C 4.8 km/h
1834 10-10-2020 08:45:00 8.4 C 8.23 g/m*3 8.4 C 0 km/h
1835 10-10-2020 08:50:00 8.5 C 8.28 g/m*3 8.5 C 0 km/h
1836 10-10-2020 08:55:00 8.6 C 8.34 g/m*3 8.6 C 0 km/h
1837 10-10-2020 09:00:00 8.6 C 8.34 g/m*3 8.6 C 4.8 km/h
1838 10-10-2020 09:05:00 8.5 C 8.28 g/m*3 8.5 C 3.2 km/h
1839 10-10-2020 09:10:00 8.5 C 8.28 g/m*3 8.5 C 0 km/h
1840 10-10-2020 09:15:00 8.4 C 8.23 g/m*3 8.4 C 1.6 km/h
1841 10-10-2020 09:20:00 8.3 C 8.18 g/m*3 8.3 C 1.6 km/h
1842 10-10-2020 09:25:00 8.3 C 8.18 g/m*3 8.3 C 1.6 km/h
1843 10-10-2020 09:30:00 8.2 C 8.12 g/m*3 8.2 C 4.8 km/h
1844 10-10-2020 09:35:00 8.2 C 8.12 g/m*3 8.2 C 1.6 km/h
1845 10-10-2020 09:40:00 8.1 C 8.07 g/m*3 8.1 C 1.6 km/h
1846 10-10-2020 09:45:00 8.1 C 8.07 g/m*3 8.1 C 0 km/h
1847 10-10-2020 09:50:00 8.1 C 8.07 g/m*3 8.1 C 0 km/h
1848 10-10-2020 09:55:00 8 C 8.02 g/m*3 8 C 0 km/h
1849 10-10-2020 10:00:00 7.9 C 7.97 g/m*3 7.9 C 0 km/h
1850 10-10-2020 10:05:00 7.9 C 7.97 g/m*3 7.9 C 4.8 km/h
Sensor: Nr:Datum:Temp:Abs-Feuchte:Windchill:Wind:
Aussen-T/F 1851 10-10-2020 10:10:00 8 C 8.02 g/m*3 7.06 C 6.4 km/h
1852 10-10-2020 10:15:00 8.1 C 8.07 g/m*3 8.1 C 0 km/h
1853 10-10-2020 10:20:00 8.1 C 8.07 g/m*3 8.1 C 3.2 km/h
1854 10-10-2020 10:25:00 8.2 C 8.12 g/m*3 8.2 C 4.8 km/h
1855 10-10-2020 10:30:00 8.2 C 8.12 g/m*3 6.87 C 8.1 km/h
1856 10-10-2020 10:35:00 8.2 C 8.12 g/m*3 7.29 C 6.4 km/h
1857 10-10-2020 10:40:00 8.3 C 8.18 g/m*3 7.41 C 6.4 km/h
1858 10-10-2020 10:45:00 8.4 C 8.23 g/m*3 7.52 C 6.4 km/h
1859 10-10-2020 10:50:00 8.4 C 8.23 g/m*3 8.4 C 3.2 km/h
1860 10-10-2020 10:55:00 8.5 C 8.28 g/m*3 7.64 C 6.4 km/h
1861 10-10-2020 11:00:00 8.7 C 8.39 g/m*3 8.7 C 4.8 km/h
1862 10-10-2020 11:05:00 8.7 C 8.39 g/m*3 8.7 C 4.8 km/h
1863 10-10-2020 11:10:00 8.8 C 8.44 g/m*3 8.8 C 4.8 km/h
1864 10-10-2020 11:15:00 8.9 C 8.5 g/m*3 8.1 C 6.4 km/h
1865 10-10-2020 11:20:00 9 C 8.55 g/m*3 8.21 C 6.4 km/h
1866 10-10-2020 11:25:00 9.1 C 8.52 g/m*3 9.1 C 4.8 km/h
1867 10-10-2020 11:30:00 9.2 C 8.57 g/m*3 9.2 C 4.8 km/h
1868 10-10-2020 11:35:00 9.2 C 8.57 g/m*3 7.46 C 11.3 km/h
1869 10-10-2020 11:40:00 9.2 C 8.39 g/m*3 7.46 C 11.3 km/h
1870 10-10-2020 11:45:00 9.3 C 8.36 g/m*3 8.56 C 6.4 km/h
1871 10-10-2020 11:50:00 9.3 C 8.18 g/m*3 7.85 C 9.7 km/h
1872 10-10-2020 11:55:00 9.5 C 8.19 g/m*3 8.4 C 8.1 km/h
1873 10-10-2020 12:00:00 9.7 C 8.2 g/m*3 7.82 C 12.9 km/h
1874 10-10-2020 12:05:00 9.9 C 8.12 g/m*3 8.56 C 9.7 km/h
1875 10-10-2020 12:10:00 10.3 C 8.24 g/m*3 8.55 C 12.9 km/h
Sensor: Nr:Datum:Temp:Abs-Feuchte:Windchill:Wind:
Aussen-T/F 1876 10-10-2020 12:15:00 10.7 C 8.25 g/m*3 10.18 C 6.4 km/h
1877 10-10-2020 12:20:00 10.9 C 8.26 g/m*3 9.28 C 12.9 km/h
1878 10-10-2020 12:25:00 11.1 C 8.06 g/m*3 11.1 C 14.5 km/h
1879 10-10-2020 12:30:00 11.2 C 7.6 g/m*3 11.2 C 14.5 km/h
1880 10-10-2020 12:35:00 11.3 C 7.85 g/m*3 11.3 C 9.7 km/h
1881 10-10-2020 12:40:00 11.5 C 7.54 g/m*3 11.5 C 16.1 km/h
1882 10-10-2020 12:45:00 11.7 C 7.53 g/m*3 11.7 C 12.9 km/h
1883 10-10-2020 12:50:00 11.8 C 7.68 g/m*3 11.8 C 14.5 km/h
1884 10-10-2020 12:55:00 11.8 C 7.58 g/m*3 11.8 C 14.5 km/h
1885 10-10-2020 13:00:00 11.9 C 7.73 g/m*3 11.9 C 17.7 km/h
1886 10-10-2020 13:05:00 12 C 7.67 g/m*3 12 C 17.7 km/h
1887 10-10-2020 13:10:00 11.9 C 7.2 g/m*3 11.9 C 20.9 km/h
1888 10-10-2020 13:15:00 12.1 C 7.29 g/m*3 12.1 C 11.3 km/h
1889 10-10-2020 13:20:00 12.2 C 7.66 g/m*3 12.2 C 14.5 km/h
1890 10-10-2020 13:25:00 12.3 C 7.49 g/m*3 12.3 C 11.3 km/h
1891 10-10-2020 13:30:00 12.4 C 7.65 g/m*3 12.4 C 11.3 km/h
1892 10-10-2020 13:35:00 12.4 C 7.43 g/m*3 12.4 C 11.3 km/h
1893 10-10-2020 13:40:00 12.4 C 7.32 g/m*3 12.4 C 12.9 km/h
1894 10-10-2020 13:45:00 12.4 C 7.54 g/m*3 12.4 C 11.3 km/h
1895 10-10-2020 13:50:00 12.5 C 7.48 g/m*3 12.5 C 9.7 km/h
1896 10-10-2020 13:55:00 12.4 C 7.65 g/m*3 12.4 C 4.8 km/h
1897 10-10-2020 14:00:00 12.4 C 7.43 g/m*3 12.4 C 12.9 km/h
1898 10-10-2020 14:05:00 12.3 C 7.28 g/m*3 12.3 C 9.7 km/h
1899 10-10-2020 14:10:00 12.4 C 7.21 g/m*3 12.4 C 11.3 km/h
1900 10-10-2020 14:15:00 12.7 C 7.46 g/m*3 12.7 C 8.1 km/h
Sensor: Nr:Datum:Temp:Abs-Feuchte:Windchill:Wind:
Aussen-T/F 1901 10-10-2020 14:20:00 12.8 C 7.39 g/m*3 12.8 C 9.7 km/h
1902 10-10-2020 14:25:00 12.8 C 7.28 g/m*3 12.8 C 8.1 km/h
1903 10-10-2020 14:30:00 12.7 C 7.24 g/m*3 12.7 C 9.7 km/h
1904 10-10-2020 14:35:00 12.6 C 7.19 g/m*3 12.6 C 8.1 km/h
1905 10-10-2020 14:40:00 12.4 C 6.99 g/m*3 12.4 C 12.9 km/h
1906 10-10-2020 14:45:00 12.3 C 7.38 g/m*3 12.3 C 6.4 km/h
1907 10-10-2020 14:50:00 12.3 C 7.49 g/m*3 12.3 C 9.7 km/h
1908 10-10-2020 14:55:00 12.3 C 7.38 g/m*3 12.3 C 11.3 km/h
1909 10-10-2020 15:00:00 12.4 C 7.43 g/m*3 12.4 C 6.4 km/h
1910 10-10-2020 15:05:00 12.6 C 7.63 g/m*3 12.6 C 8.1 km/h
1911 10-10-2020 15:10:00 12.5 C 7.26 g/m*3 12.5 C 8.1 km/h
1912 10-10-2020 15:15:00 12.5 C 7.48 g/m*3 12.5 C 11.3 km/h
1913 10-10-2020 15:20:00 12.6 C 7.3 g/m*3 12.6 C 9.7 km/h
1914 10-10-2020 15:25:00 12.7 C 7.01 g/m*3 12.7 C 11.3 km/h
1915 10-10-2020 15:30:00 12.8 C 7.28 g/m*3 12.8 C 12.9 km/h
1916 10-10-2020 15:35:00 12.7 C 7.01 g/m*3 12.7 C 17.7 km/h
1917 10-10-2020 15:40:00 12.7 C 7.12 g/m*3 12.7 C 6.4 km/h
1918 10-10-2020 15:45:00 12.7 C 7.12 g/m*3 12.7 C 9.7 km/h
1919 10-10-2020 15:50:00 12.8 C 7.06 g/m*3 12.8 C 8.1 km/h
1920 10-10-2020 15:55:00 12.8 C 7.06 g/m*3 12.8 C 9.7 km/h
1921 10-10-2020 16:00:00 12.9 C 6.99 g/m*3 12.9 C 12.9 km/h
1922 10-10-2020 16:05:00 13.1 C 6.85 g/m*3 13.1 C 19.3 km/h
1923 10-10-2020 16:10:00 12.9 C 6.88 g/m*3 12.9 C 11.3 km/h
1924 10-10-2020 16:15:00 12.8 C 7.28 g/m*3 12.8 C 4.8 km/h
1925 10-10-2020 16:20:00 12.7 C 7.57 g/m*3 12.7 C 9.7 km/h
Sensor: Nr:Datum:Temp:Abs-Feuchte:Windchill:Wind:
Aussen-T/F 1926 10-10-2020 16:25:00 12.4 C 7.54 g/m*3 12.4 C 4.8 km/h
1927 10-10-2020 16:30:00 12.4 C 7.98 g/m*3 12.4 C 3.2 km/h
1928 10-10-2020 16:35:00 12.3 C 7.38 g/m*3 12.3 C 8.1 km/h
1929 10-10-2020 16:40:00 12.4 C 7.1 g/m*3 12.4 C 8.1 km/h
1930 10-10-2020 16:45:00 12.6 C 7.08 g/m*3 12.6 C 8.1 km/h
1931 10-10-2020 16:50:00 12.7 C 6.9 g/m*3 12.7 C 11.3 km/h
1932 10-10-2020 16:55:00 12.9 C 7.33 g/m*3 12.9 C 14.5 km/h
1933 10-10-2020 17:00:00 12.9 C 7.44 g/m*3 12.9 C 6.4 km/h
1934 10-10-2020 17:05:00 12.8 C 7.5 g/m*3 12.8 C 8.1 km/h
1935 10-10-2020 17:10:00 12.8 C 7.39 g/m*3 12.8 C 9.7 km/h
1936 10-10-2020 17:15:00 12.7 C 8.01 g/m*3 12.7 C 3.2 km/h
1937 10-10-2020 17:20:00 12.4 C 7.32 g/m*3 12.4 C 9.7 km/h
1938 10-10-2020 17:25:00 12.3 C 7.28 g/m*3 12.3 C 8.1 km/h
1939 10-10-2020 17:30:00 12.2 C 7.34 g/m*3 12.2 C 8.1 km/h
1940 10-10-2020 17:35:00 12.2 C 7.45 g/m*3 12.2 C 6.4 km/h
1941 10-10-2020 17:40:00 12.3 C 7.28 g/m*3 12.3 C 6.4 km/h
1942 10-10-2020 17:45:00 12.3 C 7.71 g/m*3 12.3 C 3.2 km/h
1943 10-10-2020 17:50:00 12.2 C 7.34 g/m*3 12.2 C 6.4 km/h
1944 10-10-2020 17:55:00 12.2 C 7.55 g/m*3 12.2 C 8.1 km/h
1945 10-10-2020 18:00:00 12.5 C 8.14 g/m*3 12.5 C 4.8 km/h
1946 10-10-2020 18:05:00 12.7 C 8.01 g/m*3 12.7 C 4.8 km/h
1947 10-10-2020 18:10:00 12.8 C 8.06 g/m*3 12.8 C 4.8 km/h
1948 10-10-2020 18:15:00 12.8 C 8.18 g/m*3 12.8 C 6.4 km/h
1949 10-10-2020 18:20:00 12.6 C 7.97 g/m*3 12.6 C 6.4 km/h
1950 10-10-2020 18:25:00 12.3 C 7.93 g/m*3 12.3 C 6.4 km/h
Sensor: Nr:Datum:Temp:Abs-Feuchte:Windchill:Wind:
Aussen-T/F 1951 10-10-2020 18:30:00 11.9 C 7.84 g/m*3 11.9 C 6.4 km/h
1952 10-10-2020 18:35:00 11.6 C 7.8 g/m*3 11.6 C 4.8 km/h
1953 10-10-2020 18:40:00 11.2 C 7.6 g/m*3 11.2 C 6.4 km/h
1954 10-10-2020 18:45:00 10.8 C 7.61 g/m*3 10.29 C 6.4 km/h
1955 10-10-2020 18:50:00 10.4 C 7.42 g/m*3 9.83 C 6.4 km/h
1956 10-10-2020 18:55:00 10.1 C 7.47 g/m*3 9.48 C 6.4 km/h
1957 10-10-2020 19:00:00 9.8 C 7.42 g/m*3 9.8 C 4.8 km/h
1958 10-10-2020 19:05:00 9.5 C 7.28 g/m*3 9.5 C 4.8 km/h
1959 10-10-2020 19:10:00 9.3 C 7.28 g/m*3 9.3 C 4.8 km/h
1960 10-10-2020 19:15:00 9.1 C 7.28 g/m*3 9.1 C 4.8 km/h
1961 10-10-2020 19:20:00 8.8 C 7.14 g/m*3 7.98 C 6.4 km/h
1962 10-10-2020 19:25:00 8.6 C 7.13 g/m*3 7.75 C 6.4 km/h
1963 10-10-2020 19:30:00 8.4 C 7.13 g/m*3 7.52 C 6.4 km/h
1964 10-10-2020 19:35:00 8.3 C 7.16 g/m*3 7.41 C 6.4 km/h
1965 10-10-2020 19:40:00 8.2 C 7.12 g/m*3 6.87 C 8.1 km/h
1966 10-10-2020 19:45:00 8.1 C 7.07 g/m*3 6.75 C 8.1 km/h
1967 10-10-2020 19:50:00 8 C 7.03 g/m*3 6.64 C 8.1 km/h
1968 10-10-2020 19:55:00 7.9 C 6.98 g/m*3 6.18 C 9.7 km/h
1969 10-10-2020 20:00:00 7.8 C 6.94 g/m*3 6.4 C 8.1 km/h
1970 10-10-2020 20:05:00 7.8 C 6.94 g/m*3 6.4 C 8.1 km/h
1971 10-10-2020 20:10:00 7.7 C 6.89 g/m*3 6.28 C 8.1 km/h
1972 10-10-2020 20:15:00 7.6 C 6.93 g/m*3 6.6 C 6.4 km/h
1973 10-10-2020 20:20:00 7.6 C 6.93 g/m*3 6.6 C 6.4 km/h
1974 10-10-2020 20:25:00 7.4 C 6.92 g/m*3 6.37 C 6.4 km/h
1975 10-10-2020 20:30:00 7.3 C 6.87 g/m*3 7.3 C 3.2 km/h
Sensor: Nr:Datum:Temp:Abs-Feuchte:Windchill:Wind:
Aussen-T/F 1976 10-10-2020 20:35:00 7.3 C 6.87 g/m*3 7.3 C 3.2 km/h
1977 10-10-2020 20:40:00 7.2 C 6.83 g/m*3 7.2 C 3.2 km/h
1978 10-10-2020 20:45:00 7.1 C 6.86 g/m*3 7.1 C 3.2 km/h
1979 10-10-2020 20:50:00 7 C 6.82 g/m*3 7 C 3.2 km/h
1980 10-10-2020 20:55:00 6.9 C 6.85 g/m*3 6.9 C 1.6 km/h
1981 10-10-2020 21:00:00 6.8 C 6.81 g/m*3 6.8 C 3.2 km/h
1982 10-10-2020 21:05:00 6.8 C 6.81 g/m*3 6.8 C 4.8 km/h
1983 10-10-2020 21:10:00 6.7 C 6.84 g/m*3 6.7 C 4.8 km/h
1984 10-10-2020 21:15:00 6.7 C 6.84 g/m*3 6.7 C 1.6 km/h
1985 10-10-2020 21:20:00 6.7 C 6.84 g/m*3 6.7 C 3.2 km/h
1986 10-10-2020 21:25:00 6.6 C 6.87 g/m*3 6.6 C 3.2 km/h
1987 10-10-2020 21:30:00 6.6 C 6.87 g/m*3 6.6 C 0 km/h
1988 10-10-2020 21:35:00 6.6 C 6.87 g/m*3 6.6 C 0 km/h
1989 10-10-2020 21:40:00 6.5 C 6.82 g/m*3 6.5 C 1.6 km/h
1990 10-10-2020 21:45:00 6.5 C 6.82 g/m*3 5.33 C 6.4 km/h
1991 10-10-2020 21:50:00 6.6 C 6.95 g/m*3 4.99 C 8.1 km/h
1992 10-10-2020 21:55:00 6.7 C 6.99 g/m*3 6.7 C 4.8 km/h
1993 10-10-2020 22:00:00 7.1 C 7.18 g/m*3 6.02 C 6.4 km/h
1994 10-10-2020 22:05:00 7.2 C 7.14 g/m*3 7.2 C 1.6 km/h
1995 10-10-2020 22:10:00 7.4 C 7.24 g/m*3 7.4 C 0 km/h
1996 10-10-2020 22:15:00 7.6 C 7.33 g/m*3 7.6 C 4.8 km/h
1997 10-10-2020 22:20:00 7.8 C 7.35 g/m*3 6.83 C 6.4 km/h
1998 10-10-2020 22:25:00 8 C 7.36 g/m*3 8 C 4.8 km/h
1999 10-10-2020 22:30:00 8.2 C 7.29 g/m*3 8.2 C 4.8 km/h
2000 10-10-2020 22:35:00 8.4 C 7.3 g/m*3 6.49 C 11.3 km/h
Sensor: Nr:Datum:Temp:Abs-Feuchte:Windchill:Wind:
Aussen-T/F 2001 10-10-2020 22:40:00 8.9 C 7.36 g/m*3 6.85 C 12.9 km/h
2002 10-10-2020 22:45:00 9.3 C 7.37 g/m*3 7.85 C 9.7 km/h
2003 10-10-2020 22:50:00 9.6 C 7.33 g/m*3 7.48 C 14.5 km/h
2004 10-10-2020 22:55:00 9.7 C 7.38 g/m*3 9.02 C 6.4 km/h
2005 10-10-2020 23:00:00 9.8 C 7.33 g/m*3 7.94 C 12.9 km/h
2006 10-10-2020 23:05:00 9.8 C 7.33 g/m*3 8.75 C 8.1 km/h
2007 10-10-2020 23:10:00 9.8 C 7.42 g/m*3 8.75 C 8.1 km/h
2008 10-10-2020 23:15:00 9.7 C 7.38 g/m*3 8.63 C 8.1 km/h
2009 10-10-2020 23:20:00 9.7 C 7.38 g/m*3 8.33 C 9.7 km/h
2010 10-10-2020 23:25:00 9.7 C 7.38 g/m*3 8.63 C 8.1 km/h
2011 10-10-2020 23:30:00 9.6 C 7.33 g/m*3 8.91 C 6.4 km/h
2012 10-10-2020 23:35:00 9.6 C 7.42 g/m*3 8.91 C 6.4 km/h
2013 10-10-2020 23:40:00 9.6 C 7.42 g/m*3 8.91 C 6.4 km/h
2014 10-10-2020 23:45:00 9.5 C 7.37 g/m*3 8.09 C 9.7 km/h
2015 10-10-2020 23:50:00 9.5 C 7.37 g/m*3 8.4 C 8.1 km/h
2016 10-10-2020 23:55:00 9.4 C 7.33 g/m*3 8.68 C 6.4 km/h
2017 11-10-2020 00:00:00 9.3 C 7.28 g/m*3 7.85 C 9.7 km/h
2018 11-10-2020 00:05:00 9.3 C 7.37 g/m*3 9.3 C 4.8 km/h
2019 11-10-2020 00:10:00 9.3 C 7.37 g/m*3 7.58 C 11.3 km/h
2020 11-10-2020 00:15:00 9.3 C 7.28 g/m*3 7.85 C 9.7 km/h
2021 11-10-2020 00:20:00 9.4 C 7.33 g/m*3 8.28 C 8.1 km/h
2022 11-10-2020 00:25:00 9.4 C 7.33 g/m*3 7.46 C 12.9 km/h
2023 11-10-2020 00:30:00 9.4 C 7.33 g/m*3 8.28 C 8.1 km/h
2024 11-10-2020 00:35:00 9.5 C 7.46 g/m*3 8.4 C 8.1 km/h
2025 11-10-2020 00:40:00 9.6 C 7.51 g/m*3 9.6 C 4.8 km/h
Sensor: Nr:Datum:Temp:Abs-Feuchte:Windchill:Wind:
Aussen-T/F 2026 11-10-2020 00:45:00 9.6 C 7.42 g/m*3 8.21 C 9.7 km/h
2027 11-10-2020 00:50:00 9.6 C 7.51 g/m*3 8.91 C 6.4 km/h
2028 11-10-2020 00:55:00 9.7 C 7.56 g/m*3 8.63 C 8.1 km/h
2029 11-10-2020 01:00:00 9.7 C 7.56 g/m*3 8.63 C 8.1 km/h
2030 11-10-2020 01:05:00 9.7 C 7.56 g/m*3 7.41 C 16.1 km/h
2031 11-10-2020 01:10:00 9.7 C 7.47 g/m*3 8.63 C 8.1 km/h
2032 11-10-2020 01:15:00 9.8 C 7.52 g/m*3 7.36 C 17.7 km/h
2033 11-10-2020 01:20:00 9.8 C 7.52 g/m*3 9.8 C 4.8 km/h
2034 11-10-2020 01:25:00 9.7 C 7.56 g/m*3 9.7 C 4.8 km/h
2035 11-10-2020 01:30:00 9.7 C 7.56 g/m*3 9.7 C 4.8 km/h
2036 11-10-2020 01:35:00 9.6 C 7.6 g/m*3 9.6 C 3.2 km/h
2037 11-10-2020 01:40:00 9.5 C 7.55 g/m*3 8.4 C 8.1 km/h
2038 11-10-2020 01:45:00 9.5 C 7.55 g/m*3 8.79 C 6.4 km/h
2039 11-10-2020 01:50:00 9.5 C 7.55 g/m*3 8.79 C 6.4 km/h
2040 11-10-2020 01:55:00 9.5 C 7.65 g/m*3 9.5 C 4.8 km/h
2041 11-10-2020 02:00:00 9.4 C 7.6 g/m*3 8.68 C 6.4 km/h
2042 11-10-2020 02:05:00 9.4 C 7.6 g/m*3 9.4 C 3.2 km/h
2043 11-10-2020 02:10:00 9.4 C 7.6 g/m*3 8.68 C 6.4 km/h
2044 11-10-2020 02:15:00 9.4 C 7.6 g/m*3 9.4 C 4.8 km/h
2045 11-10-2020 02:20:00 9.4 C 7.6 g/m*3 8.28 C 8.1 km/h
2046 11-10-2020 02:25:00 9.5 C 7.65 g/m*3 8.79 C 6.4 km/h
2047 11-10-2020 02:30:00 9.5 C 7.65 g/m*3 9.5 C 4.8 km/h
2048 11-10-2020 02:35:00 9.5 C 7.74 g/m*3 9.5 C 3.2 km/h
2049 11-10-2020 02:40:00 9.4 C 7.6 g/m*3 9.4 C 4.8 km/h
2050 11-10-2020 02:45:00 9.4 C 7.69 g/m*3 8.68 C 6.4 km/h
Sensor: Nr:Datum:Temp:Abs-Feuchte:Windchill:Wind:
Aussen-T/F 2051 11-10-2020 02:50:00 9.4 C 7.69 g/m*3 9.4 C 4.8 km/h
2052 11-10-2020 02:55:00 9.4 C 7.69 g/m*3 9.4 C 3.2 km/h
2053 11-10-2020 03:00:00 9.4 C 7.69 g/m*3 9.4 C 3.2 km/h
2054 11-10-2020 03:05:00 9.4 C 7.69 g/m*3 8.68 C 6.4 km/h
2055 11-10-2020 03:10:00 9.4 C 7.69 g/m*3 9.4 C 4.8 km/h
2056 11-10-2020 03:15:00 9.4 C 7.78 g/m*3 9.4 C 3.2 km/h
2057 11-10-2020 03:20:00 9.4 C 7.78 g/m*3 9.4 C 3.2 km/h
2058 11-10-2020 03:25:00 9.4 C 7.78 g/m*3 9.4 C 4.8 km/h
2059 11-10-2020 03:30:00 9.3 C 7.73 g/m*3 9.3 C 3.2 km/h
2060 11-10-2020 03:35:00 9.3 C 7.73 g/m*3 9.3 C 4.8 km/h
2061 11-10-2020 03:40:00 9.3 C 7.82 g/m*3 9.3 C 0 km/h
2062 11-10-2020 03:45:00 9.3 C 7.82 g/m*3 9.3 C 1.6 km/h
2063 11-10-2020 03:50:00 9.3 C 7.82 g/m*3 9.3 C 3.2 km/h
2064 11-10-2020 03:55:00 9.3 C 7.82 g/m*3 9.3 C 0 km/h
2065 11-10-2020 04:00:00 9.2 C 7.77 g/m*3 9.2 C 4.8 km/h
2066 11-10-2020 04:05:00 9.2 C 7.77 g/m*3 8.05 C 8.1 km/h
2067 11-10-2020 04:10:00 9.2 C 7.86 g/m*3 9.2 C 3.2 km/h
2068 11-10-2020 04:15:00 9.2 C 7.77 g/m*3 8.05 C 8.1 km/h
2069 11-10-2020 04:20:00 9.2 C 7.86 g/m*3 9.2 C 4.8 km/h
2070 11-10-2020 04:25:00 9.2 C 7.86 g/m*3 9.2 C 3.2 km/h
2071 11-10-2020 04:30:00 9.2 C 7.86 g/m*3 9.2 C 1.6 km/h
2072 11-10-2020 04:35:00 9.2 C 7.86 g/m*3 9.2 C 1.6 km/h
2073 11-10-2020 04:40:00 9.1 C 7.81 g/m*3 9.1 C 3.2 km/h
2074 11-10-2020 04:45:00 9.1 C 7.81 g/m*3 9.1 C 1.6 km/h
2075 11-10-2020 04:50:00 9.1 C 7.81 g/m*3 9.1 C 3.2 km/h
Sensor: Nr:Datum:Temp:Abs-Feuchte:Windchill:Wind:
Aussen-T/F 2076 11-10-2020 04:55:00 9 C 7.76 g/m*3 9 C 3.2 km/h
2077 11-10-2020 05:00:00 9 C 7.85 g/m*3 9 C 4.8 km/h
2078 11-10-2020 05:05:00 9 C 7.85 g/m*3 9 C 1.6 km/h
2079 11-10-2020 05:10:00 9 C 7.85 g/m*3 9 C 1.6 km/h
2080 11-10-2020 05:15:00 9 C 7.85 g/m*3 9 C 3.2 km/h
2081 11-10-2020 05:20:00 9 C 7.85 g/m*3 9 C 1.6 km/h
2082 11-10-2020 05:25:00 9 C 7.85 g/m*3 9 C 4.8 km/h
2083 11-10-2020 05:30:00 9 C 7.85 g/m*3 9 C 1.6 km/h
2084 11-10-2020 05:35:00 9 C 7.85 g/m*3 8.21 C 6.4 km/h
2085 11-10-2020 05:40:00 8.9 C 7.8 g/m*3 8.9 C 1.6 km/h
2086 11-10-2020 05:45:00 8.9 C 7.8 g/m*3 8.9 C 0 km/h
2087 11-10-2020 05:50:00 8.9 C 7.8 g/m*3 8.9 C 0 km/h
2088 11-10-2020 05:55:00 8.9 C 7.8 g/m*3 8.9 C 0 km/h
2089 11-10-2020 06:00:00 8.9 C 7.8 g/m*3 8.9 C 0 km/h
2090 11-10-2020 06:05:00 8.9 C 7.88 g/m*3 8.9 C 0 km/h
2091 11-10-2020 06:10:00 8.9 C 7.88 g/m*3 8.9 C 0 km/h
2092 11-10-2020 06:15:00 8.8 C 7.83 g/m*3 8.8 C 0 km/h
2093 11-10-2020 06:20:00 8.8 C 7.75 g/m*3 8.8 C 0 km/h
2094 11-10-2020 06:25:00 8.8 C 7.83 g/m*3 8.8 C 0 km/h
2095 11-10-2020 06:30:00 8.8 C 7.83 g/m*3 8.8 C 0 km/h
2096 11-10-2020 06:35:00 8.7 C 7.78 g/m*3 8.7 C 0 km/h
2097 11-10-2020 06:40:00 8.7 C 7.78 g/m*3 8.7 C 0 km/h
2098 11-10-2020 06:45:00 8.7 C 7.78 g/m*3 8.7 C 0 km/h
2099 11-10-2020 06:50:00 8.6 C 7.73 g/m*3 8.6 C 0 km/h
2100 11-10-2020 06:55:00 8.6 C 7.73 g/m*3 8.6 C 0 km/h
Sensor: Nr:Datum:Temp:Abs-Feuchte:Windchill:Wind:
Aussen-T/F 2101 11-10-2020 07:00:00 8.6 C 7.82 g/m*3 8.6 C 0 km/h
2102 11-10-2020 07:05:00 8.7 C 7.87 g/m*3 7.87 C 6.4 km/h
2103 11-10-2020 07:10:00 8.7 C 7.96 g/m*3 8.7 C 0 km/h
2104 11-10-2020 07:15:00 8.7 C 7.96 g/m*3 8.7 C 0 km/h
2105 11-10-2020 07:20:00 8.7 C 7.96 g/m*3 8.7 C 0 km/h
2106 11-10-2020 07:25:00 8.7 C 7.96 g/m*3 8.7 C 1.6 km/h
2107 11-10-2020 07:30:00 8.7 C 7.96 g/m*3 8.7 C 0 km/h
2108 11-10-2020 07:35:00 8.7 C 7.96 g/m*3 8.7 C 0 km/h
2109 11-10-2020 07:40:00 8.6 C 7.91 g/m*3 8.6 C 1.6 km/h
2110 11-10-2020 07:45:00 8.5 C 7.85 g/m*3 8.5 C 3.2 km/h
2111 11-10-2020 07:50:00 8.4 C 7.8 g/m*3 8.4 C 3.2 km/h
2112 11-10-2020 07:55:00 8.3 C 7.75 g/m*3 8.3 C 3.2 km/h
2113 11-10-2020 08:00:00 8.3 C 7.75 g/m*3 8.3 C 0 km/h
2114 11-10-2020 08:05:00 8.2 C 7.79 g/m*3 8.2 C 1.6 km/h
2115 11-10-2020 08:10:00 8.2 C 7.79 g/m*3 8.2 C 3.2 km/h
2116 11-10-2020 08:15:00 8.1 C 7.74 g/m*3 8.1 C 3.2 km/h
2117 11-10-2020 08:20:00 8.1 C 7.74 g/m*3 8.1 C 3.2 km/h
2118 11-10-2020 08:25:00 8.1 C 7.74 g/m*3 8.1 C 3.2 km/h
2119 11-10-2020 08:30:00 8.1 C 7.74 g/m*3 8.1 C 1.6 km/h
2120 11-10-2020 08:35:00 8.2 C 7.87 g/m*3 8.2 C 0 km/h
2121 11-10-2020 08:40:00 8.2 C 7.87 g/m*3 8.2 C 0 km/h
2122 11-10-2020 08:45:00 8.3 C 7.92 g/m*3 8.3 C 0 km/h
2123 11-10-2020 08:50:00 8.3 C 7.92 g/m*3 8.3 C 0 km/h
2124 11-10-2020 08:55:00 8.4 C 7.97 g/m*3 8.4 C 0 km/h
2125 11-10-2020 09:00:00 8.3 C 7.92 g/m*3 8.3 C 0 km/h
Sensor: Nr:Datum:Temp:Abs-Feuchte:Windchill:Wind:
Aussen-T/F 2126 11-10-2020 09:05:00 8.3 C 7.92 g/m*3 8.3 C 0 km/h
2127 11-10-2020 09:10:00 8.4 C 7.97 g/m*3 8.4 C 0 km/h
2128 11-10-2020 09:15:00 8.6 C 8.16 g/m*3 8.6 C 0 km/h
2129 11-10-2020 09:20:00 8.6 C 8.16 g/m*3 8.6 C 0 km/h
2130 11-10-2020 09:25:00 8.6 C 8.08 g/m*3 7.75 C 6.4 km/h
2131 11-10-2020 09:30:00 8.6 C 8.08 g/m*3 7.75 C 6.4 km/h
2132 11-10-2020 09:35:00 8.6 C 8.08 g/m*3 8.6 C 4.8 km/h
2133 11-10-2020 09:40:00 8.6 C 8.08 g/m*3 8.6 C 1.6 km/h
2134 11-10-2020 09:45:00 8.6 C 7.99 g/m*3 8.6 C 4.8 km/h
2135 11-10-2020 09:50:00 8.6 C 8.08 g/m*3 8.6 C 1.6 km/h
2136 11-10-2020 09:55:00 8.7 C 8.04 g/m*3 8.7 C 0 km/h
2137 11-10-2020 10:00:00 8.8 C 8.18 g/m*3 8.8 C 0 km/h
2138 11-10-2020 10:05:00 8.9 C 8.23 g/m*3 8.9 C 0 km/h
2139 11-10-2020 10:10:00 9 C 8.29 g/m*3 9 C 0 km/h
2140 11-10-2020 10:15:00 8.9 C 8.15 g/m*3 8.9 C 3.2 km/h
2141 11-10-2020 10:20:00 9.1 C 8.25 g/m*3 9.1 C 1.6 km/h
2142 11-10-2020 10:25:00 9.2 C 8.3 g/m*3 9.2 C 0 km/h
2143 11-10-2020 10:30:00 9.2 C 8.13 g/m*3 9.2 C 4.8 km/h
2144 11-10-2020 10:35:00 9.3 C 8.18 g/m*3 9.3 C 1.6 km/h
2145 11-10-2020 10:40:00 9.4 C 8.23 g/m*3 9.4 C 4.8 km/h
2146 11-10-2020 10:45:00 9.6 C 8.34 g/m*3 9.6 C 0 km/h
2147 11-10-2020 10:50:00 9.6 C 8.24 g/m*3 9.6 C 1.6 km/h
2148 11-10-2020 10:55:00 9.6 C 8.15 g/m*3 9.6 C 4.8 km/h
2149 11-10-2020 11:00:00 9.4 C 7.87 g/m*3 9.4 C 4.8 km/h
2150 11-10-2020 11:05:00 9.4 C 7.96 g/m*3 9.4 C 0 km/h
Sensor: Nr:Datum:Temp:Abs-Feuchte:Windchill:Wind:
Aussen-T/F 2151 11-10-2020 11:10:00 9.4 C 7.96 g/m*3 9.4 C 0 km/h
2152 11-10-2020 11:15:00 9.4 C 8.14 g/m*3 9.4 C 1.6 km/h
2153 11-10-2020 11:20:00 9.4 C 8.14 g/m*3 9.4 C 0 km/h
2154 11-10-2020 11:25:00 9.4 C 8.14 g/m*3 9.4 C 0 km/h
2155 11-10-2020 11:30:00 9.4 C 8.14 g/m*3 9.4 C 1.6 km/h
2156 11-10-2020 11:35:00 9.4 C 8.14 g/m*3 9.4 C 1.6 km/h
2157 11-10-2020 11:40:00 9.5 C 8.19 g/m*3 9.5 C 0 km/h
2158 11-10-2020 11:45:00 9.6 C 8.24 g/m*3 9.6 C 0 km/h
2159 11-10-2020 11:50:00 9.7 C 8.3 g/m*3 9.7 C 0 km/h
2160 11-10-2020 11:55:00 9.7 C 8.3 g/m*3 9.7 C 1.6 km/h
2161 11-10-2020 12:00:00 9.8 C 8.44 g/m*3 9.8 C 3.2 km/h
2162 11-10-2020 12:05:00 10 C 8.55 g/m*3 10 C 0 km/h
2163 11-10-2020 12:10:00 10.2 C 8.56 g/m*3 10.2 C 0 km/h
2164 11-10-2020 12:15:00 10.3 C 8.62 g/m*3 10.3 C 0 km/h
2165 11-10-2020 12:20:00 10.6 C 8.39 g/m*3 10.06 C 6.4 km/h
2166 11-10-2020 12:25:00 10.8 C 8.2 g/m*3 9.64 C 9.7 km/h
2167 11-10-2020 12:30:00 10.9 C 8.26 g/m*3 10.41 C 6.4 km/h
2168 11-10-2020 12:35:00 10.9 C 8.16 g/m*3 10.41 C 6.4 km/h
2169 11-10-2020 12:40:00 10.8 C 8.01 g/m*3 9.64 C 9.7 km/h
2170 11-10-2020 12:45:00 10.7 C 7.96 g/m*3 10.7 C 4.8 km/h
2171 11-10-2020 12:50:00 10.6 C 7.91 g/m*3 10.6 C 3.2 km/h
2172 11-10-2020 12:55:00 10.5 C 8.05 g/m*3 10.5 C 0 km/h
2173 11-10-2020 13:00:00 10.4 C 8.1 g/m*3 10.4 C 0 km/h
2174 11-10-2020 13:05:00 10.6 C 8.2 g/m*3 10.6 C 0 km/h
2175 11-10-2020 13:10:00 10.8 C 8.11 g/m*3 10.8 C 0 km/h
Sensor: Nr:Datum:Temp:Abs-Feuchte:Windchill:Wind:
Aussen-T/F 2176 11-10-2020 13:15:00 11.2 C 8.11 g/m*3 11.2 C 3.2 km/h
2177 11-10-2020 13:20:00 11.7 C 8.37 g/m*3 11.7 C 3.2 km/h
2178 11-10-2020 13:25:00 12.1 C 8.15 g/m*3 12.1 C 4.8 km/h
2179 11-10-2020 13:30:00 12.1 C 7.94 g/m*3 12.1 C 8.1 km/h
2180 11-10-2020 13:35:00 12.1 C 8.04 g/m*3 12.1 C 1.6 km/h
2181 11-10-2020 13:40:00 12.1 C 8.15 g/m*3 12.1 C 4.8 km/h
2182 11-10-2020 13:45:00 11.9 C 7.84 g/m*3 11.9 C 8.1 km/h
2183 11-10-2020 13:50:00 11.8 C 7.58 g/m*3 11.8 C 6.4 km/h
2184 11-10-2020 13:55:00 11.7 C 7.74 g/m*3 11.7 C 4.8 km/h
2185 11-10-2020 14:00:00 11.7 C 7.74 g/m*3 11.7 C 0 km/h
2186 11-10-2020 14:05:00 11.7 C 7.84 g/m*3 11.7 C 0 km/h
2187 11-10-2020 14:10:00 11.7 C 7.64 g/m*3 11.7 C 1.6 km/h
2188 11-10-2020 14:15:00 11.9 C 7.84 g/m*3 11.9 C 0 km/h
2189 11-10-2020 14:20:00 12.2 C 7.99 g/m*3 12.2 C 6.4 km/h
2190 11-10-2020 14:25:00 12.3 C 7.28 g/m*3 12.3 C 8.1 km/h
2191 11-10-2020 14:30:00 12.7 C 7.35 g/m*3 12.7 C 4.8 km/h
2192 11-10-2020 14:35:00 13 C 7.37 g/m*3 13 C 4.8 km/h
2193 11-10-2020 14:40:00 13.2 C 7.58 g/m*3 13.2 C 11.3 km/h
2194 11-10-2020 14:45:00 13.1 C 7.53 g/m*3 13.1 C 4.8 km/h
2195 11-10-2020 14:50:00 12.9 C 7.33 g/m*3 12.9 C 8.1 km/h
2196 11-10-2020 14:55:00 12.9 C 7.21 g/m*3 12.9 C 6.4 km/h
2197 11-10-2020 15:00:00 12.9 C 7.33 g/m*3 12.9 C 8.1 km/h
2198 11-10-2020 15:05:00 13 C 7.03 g/m*3 13 C 8.1 km/h
2199 11-10-2020 15:10:00 13.1 C 7.42 g/m*3 13.1 C 3.2 km/h
2200 11-10-2020 15:15:00 13.2 C 7.46 g/m*3 13.2 C 3.2 km/h
Sensor: Nr:Datum:Temp:Abs-Feuchte:Windchill:Wind:
Aussen-T/F 2201 11-10-2020 15:20:00 13.2 C 7.46 g/m*3 13.2 C 4.8 km/h
2202 11-10-2020 15:25:00 13.2 C 7.12 g/m*3 13.2 C 12.9 km/h
2203 11-10-2020 15:30:00 13.1 C 6.96 g/m*3 13.1 C 11.3 km/h
2204 11-10-2020 15:35:00 13.1 C 7.07 g/m*3 13.1 C 4.8 km/h
2205 11-10-2020 15:40:00 13.1 C 7.07 g/m*3 13.1 C 6.4 km/h
2206 11-10-2020 15:45:00 13.1 C 7.19 g/m*3 13.1 C 9.7 km/h
2207 11-10-2020 15:50:00 13.1 C 7.19 g/m*3 13.1 C 12.9 km/h
2208 11-10-2020 15:55:00 13 C 7.14 g/m*3 13 C 12.9 km/h
2209 11-10-2020 16:00:00 12.9 C 7.33 g/m*3 12.9 C 11.3 km/h
2210 11-10-2020 16:05:00 12.8 C 7.17 g/m*3 12.8 C 9.7 km/h
2211 11-10-2020 16:10:00 12.8 C 7.17 g/m*3 12.8 C 9.7 km/h
2212 11-10-2020 16:15:00 12.8 C 7.17 g/m*3 12.8 C 9.7 km/h
2213 11-10-2020 16:20:00 12.9 C 7.21 g/m*3 12.9 C 11.3 km/h
2214 11-10-2020 16:25:00 12.9 C 7.44 g/m*3 12.9 C 9.7 km/h
2215 11-10-2020 16:30:00 13.1 C 7.42 g/m*3 13.1 C 9.7 km/h
2216 11-10-2020 16:35:00 13.1 C 7.19 g/m*3 13.1 C 11.3 km/h
2217 11-10-2020 16:40:00 13.1 C 7.42 g/m*3 13.1 C 9.7 km/h
2218 11-10-2020 16:45:00 12.9 C 7.44 g/m*3 12.9 C 4.8 km/h
2219 11-10-2020 16:50:00 12.8 C 7.28 g/m*3 12.8 C 6.4 km/h
2220 11-10-2020 16:55:00 12.8 C 7.39 g/m*3 12.8 C 9.7 km/h
2221 11-10-2020 17:00:00 12.7 C 7.35 g/m*3 12.7 C 6.4 km/h
2222 11-10-2020 17:05:00 12.7 C 7.35 g/m*3 12.7 C 8.1 km/h
2223 11-10-2020 17:10:00 12.7 C 7.35 g/m*3 12.7 C 6.4 km/h
2224 11-10-2020 17:15:00 12.6 C 7.41 g/m*3 12.6 C 3.2 km/h
2225 11-10-2020 17:20:00 12.6 C 7.52 g/m*3 12.6 C 1.6 km/h
Sensor: Nr:Datum:Temp:Abs-Feuchte:Windchill:Wind:
Aussen-T/F 2226 11-10-2020 17:25:00 12.6 C 7.3 g/m*3 12.6 C 4.8 km/h
2227 11-10-2020 17:30:00 12.6 C 7.41 g/m*3 12.6 C 1.6 km/h
2228 11-10-2020 17:35:00 12.6 C 7.63 g/m*3 12.6 C 0 km/h
2229 11-10-2020 17:40:00 12.6 C 7.85 g/m*3 12.6 C 1.6 km/h
2230 11-10-2020 17:45:00 12.5 C 8.03 g/m*3 12.5 C 0 km/h
2231 11-10-2020 17:50:00 12.4 C 8.19 g/m*3 12.4 C 0 km/h
2232 11-10-2020 17:55:00 12.3 C 8.14 g/m*3 12.3 C 3.2 km/h
2233 11-10-2020 18:00:00 12.2 C 8.42 g/m*3 12.2 C 1.6 km/h
2234 11-10-2020 18:05:00 12.2 C 8.52 g/m*3 12.2 C 0 km/h
2235 11-10-2020 18:10:00 12.2 C 8.74 g/m*3 12.2 C 0 km/h
2236 11-10-2020 18:15:00 12.3 C 8.58 g/m*3 12.3 C 1.6 km/h
2237 11-10-2020 18:20:00 12.3 C 8.58 g/m*3 12.3 C 3.2 km/h
2238 11-10-2020 18:25:00 12.2 C 8.52 g/m*3 12.2 C 3.2 km/h
2239 11-10-2020 18:30:00 12.1 C 8.47 g/m*3 12.1 C 1.6 km/h
2240 11-10-2020 18:35:00 11.9 C 8.26 g/m*3 11.9 C 1.6 km/h
2241 11-10-2020 18:40:00 11.7 C 8.16 g/m*3 11.7 C 3.2 km/h
2242 11-10-2020 18:45:00 11.4 C 8.11 g/m*3 11.4 C 3.2 km/h
2243 11-10-2020 18:50:00 11.1 C 7.96 g/m*3 11.1 C 4.8 km/h
2244 11-10-2020 18:55:00 10.8 C 7.81 g/m*3 10.8 C 4.8 km/h
2245 11-10-2020 19:00:00 10.5 C 7.76 g/m*3 10.5 C 4.8 km/h
2246 11-10-2020 19:05:00 10.3 C 7.66 g/m*3 10.3 C 3.2 km/h
2247 11-10-2020 19:10:00 10.1 C 7.56 g/m*3 10.1 C 4.8 km/h
2248 11-10-2020 19:15:00 9.9 C 7.66 g/m*3 9.9 C 4.8 km/h
2249 11-10-2020 19:20:00 9.8 C 7.7 g/m*3 9.8 C 4.8 km/h
2250 11-10-2020 19:25:00 9.8 C 7.79 g/m*3 9.8 C 3.2 km/h
Sensor: Nr:Datum:Temp:Abs-Feuchte:Windchill:Wind:
Aussen-T/F 2251 11-10-2020 19:30:00 9.7 C 7.74 g/m*3 9.7 C 1.6 km/h
2252 11-10-2020 19:35:00 9.7 C 7.74 g/m*3 9.7 C 4.8 km/h
2253 11-10-2020 19:40:00 9.7 C 7.74 g/m*3 9.7 C 3.2 km/h
2254 11-10-2020 19:45:00 9.8 C 7.79 g/m*3 9.8 C 3.2 km/h
2255 11-10-2020 19:50:00 9.8 C 7.7 g/m*3 9.8 C 0 km/h
2256 11-10-2020 19:55:00 9.9 C 7.84 g/m*3 9.9 C 3.2 km/h
2257 11-10-2020 20:00:00 9.9 C 7.84 g/m*3 9.9 C 4.8 km/h
2258 11-10-2020 20:05:00 9.9 C 7.84 g/m*3 9.9 C 4.8 km/h
2259 11-10-2020 20:10:00 9.9 C 7.84 g/m*3 9.9 C 3.2 km/h
2260 11-10-2020 20:15:00 9.9 C 7.94 g/m*3 9.9 C 0 km/h
2261 11-10-2020 20:20:00 9.9 C 7.84 g/m*3 8.87 C 8.1 km/h
2262 11-10-2020 20:25:00 10.2 C 7.71 g/m*3 8.22 C 14.5 km/h
2263 11-10-2020 20:30:00 10.5 C 7.95 g/m*3 9.57 C 8.1 km/h
2264 11-10-2020 20:35:00 10.6 C 8.1 g/m*3 9.69 C 8.1 km/h
2265 11-10-2020 20:40:00 10.6 C 8.3 g/m*3 10.6 C 3.2 km/h
2266 11-10-2020 20:45:00 10.5 C 8.24 g/m*3 10.5 C 3.2 km/h
2267 11-10-2020 20:50:00 10.4 C 8.29 g/m*3 10.4 C 4.8 km/h
2268 11-10-2020 20:55:00 10.2 C 8.28 g/m*3 10.2 C 4.8 km/h
2269 11-10-2020 21:00:00 10.1 C 8.32 g/m*3 9.1 C 8.1 km/h
2270 11-10-2020 21:05:00 9.9 C 8.22 g/m*3 9.9 C 4.8 km/h
2271 11-10-2020 21:10:00 9.8 C 8.26 g/m*3 9.8 C 4.8 km/h
2272 11-10-2020 21:15:00 9.7 C 8.2 g/m*3 9.7 C 4.8 km/h
2273 11-10-2020 21:20:00 9.6 C 8.15 g/m*3 8.91 C 6.4 km/h
2274 11-10-2020 21:25:00 9.5 C 8.19 g/m*3 9.5 C 4.8 km/h
2275 11-10-2020 21:30:00 9.4 C 8.14 g/m*3 8.68 C 6.4 km/h
Sensor: Nr:Datum:Temp:Abs-Feuchte:Windchill:Wind:
Aussen-T/F 2276 11-10-2020 21:35:00 9.4 C 8.23 g/m*3 9.4 C 4.8 km/h
2277 11-10-2020 21:40:00 9.3 C 8.18 g/m*3 9.3 C 4.8 km/h
2278 11-10-2020 21:45:00 9.2 C 8.13 g/m*3 9.2 C 0 km/h
2279 11-10-2020 21:50:00 9.2 C 8.13 g/m*3 9.2 C 1.6 km/h
2280 11-10-2020 21:55:00 9.1 C 8.07 g/m*3 9.1 C 3.2 km/h
2281 11-10-2020 22:00:00 9.1 C 8.16 g/m*3 9.1 C 3.2 km/h
2282 11-10-2020 22:05:00 9.1 C 8.16 g/m*3 9.1 C 1.6 km/h
2283 11-10-2020 22:10:00 9.1 C 8.16 g/m*3 9.1 C 1.6 km/h
2284 11-10-2020 22:15:00 9.1 C 8.16 g/m*3 9.1 C 0 km/h
2285 11-10-2020 22:20:00 9.1 C 8.16 g/m*3 9.1 C 1.6 km/h
2286 11-10-2020 22:25:00 9.1 C 8.25 g/m*3 9.1 C 0 km/h
2287 11-10-2020 22:30:00 9.1 C 8.25 g/m*3 9.1 C 3.2 km/h
2288 11-10-2020 22:35:00 9.2 C 8.3 g/m*3 9.2 C 0 km/h
2289 11-10-2020 22:40:00 9.2 C 8.3 g/m*3 9.2 C 0 km/h
2290 11-10-2020 22:45:00 9.2 C 8.3 g/m*3 9.2 C 3.2 km/h
2291 11-10-2020 22:50:00 9.2 C 8.3 g/m*3 9.2 C 1.6 km/h
2292 11-10-2020 22:55:00 9.2 C 8.3 g/m*3 9.2 C 1.6 km/h
2293 11-10-2020 23:00:00 9.2 C 8.3 g/m*3 9.2 C 3.2 km/h
2294 11-10-2020 23:05:00 9.2 C 8.3 g/m*3 9.2 C 0 km/h
2295 11-10-2020 23:10:00 9.2 C 8.3 g/m*3 9.2 C 3.2 km/h
2296 11-10-2020 23:15:00 9.2 C 8.39 g/m*3 9.2 C 1.6 km/h
2297 11-10-2020 23:20:00 9.2 C 8.39 g/m*3 9.2 C 0 km/h
2298 11-10-2020 23:25:00 9.1 C 8.25 g/m*3 9.1 C 3.2 km/h
2299 11-10-2020 23:30:00 9.1 C 8.25 g/m*3 9.1 C 3.2 km/h
2300 11-10-2020 23:35:00 9.1 C 8.34 g/m*3 9.1 C 1.6 km/h
Sensor: Nr:Datum:Temp:Abs-Feuchte:Windchill:Wind:
Aussen-T/F 2301 11-10-2020 23:40:00 9.1 C 8.34 g/m*3 9.1 C 1.6 km/h
2302 11-10-2020 23:45:00 9.1 C 8.34 g/m*3 9.1 C 1.6 km/h
2303 11-10-2020 23:50:00 9.1 C 8.34 g/m*3 9.1 C 0 km/h
2304 11-10-2020 23:55:00 9.1 C 8.34 g/m*3 9.1 C 0 km/h
2305 12-10-2020 00:00:00 9.2 C 8.39 g/m*3 9.2 C 4.8 km/h
2306 12-10-2020 00:05:00 9.2 C 8.39 g/m*3 9.2 C 1.6 km/h
2307 12-10-2020 00:10:00 9.2 C 8.39 g/m*3 9.2 C 1.6 km/h
2308 12-10-2020 00:15:00 9.2 C 8.39 g/m*3 9.2 C 1.6 km/h
2309 12-10-2020 00:20:00 9.2 C 8.39 g/m*3 9.2 C 1.6 km/h
2310 12-10-2020 00:25:00 9.2 C 8.39 g/m*3 9.2 C 3.2 km/h
2311 12-10-2020 00:30:00 9.1 C 8.34 g/m*3 9.1 C 0 km/h
2312 12-10-2020 00:35:00 9.1 C 8.34 g/m*3 9.1 C 0 km/h
2313 12-10-2020 00:40:00 9 C 8.29 g/m*3 9 C 1.6 km/h
2314 12-10-2020 00:45:00 9 C 8.29 g/m*3 9 C 0 km/h
2315 12-10-2020 00:50:00 9.1 C 8.34 g/m*3 9.1 C 3.2 km/h
2316 12-10-2020 00:55:00 9.1 C 8.34 g/m*3 9.1 C 4.8 km/h
2317 12-10-2020 01:00:00 9.1 C 8.34 g/m*3 9.1 C 3.2 km/h
2318 12-10-2020 01:05:00 9.1 C 8.34 g/m*3 9.1 C 3.2 km/h
2319 12-10-2020 01:10:00 9.2 C 8.48 g/m*3 9.2 C 4.8 km/h
2320 12-10-2020 01:15:00 9.1 C 8.34 g/m*3 9.1 C 3.2 km/h
2321 12-10-2020 01:20:00 9.1 C 8.34 g/m*3 9.1 C 0 km/h
2322 12-10-2020 01:25:00 9.1 C 8.34 g/m*3 9.1 C 4.8 km/h
2323 12-10-2020 01:30:00 9 C 8.29 g/m*3 9 C 1.6 km/h
2324 12-10-2020 01:35:00 8.9 C 8.23 g/m*3 8.9 C 0 km/h
2325 12-10-2020 01:40:00 8.9 C 8.32 g/m*3 8.9 C 0 km/h
Sensor: Nr:Datum:Temp:Abs-Feuchte:Windchill:Wind:
Aussen-T/F 2326 12-10-2020 01:45:00 8.9 C 8.32 g/m*3 8.9 C 0 km/h
2327 12-10-2020 01:50:00 8.9 C 8.32 g/m*3 8.9 C 0 km/h
2328 12-10-2020 01:55:00 8.9 C 8.32 g/m*3 8.9 C 1.6 km/h
2329 12-10-2020 02:00:00 9 C 8.38 g/m*3 9 C 0 km/h
2330 12-10-2020 02:05:00 9 C 8.38 g/m*3 9 C 0 km/h
2331 12-10-2020 02:10:00 9.1 C 8.43 g/m*3 9.1 C 0 km/h
2332 12-10-2020 02:15:00 9.1 C 8.43 g/m*3 9.1 C 0 km/h
2333 12-10-2020 02:20:00 9.1 C 8.43 g/m*3 9.1 C 0 km/h
2334 12-10-2020 02:25:00 9.1 C 8.43 g/m*3 9.1 C 0 km/h
2335 12-10-2020 02:30:00 9.1 C 8.43 g/m*3 9.1 C 1.6 km/h
2336 12-10-2020 02:35:00 9.1 C 8.43 g/m*3 9.1 C 1.6 km/h
2337 12-10-2020 02:40:00 9.1 C 8.43 g/m*3 9.1 C 0 km/h
2338 12-10-2020 02:45:00 9.1 C 8.43 g/m*3 9.1 C 0 km/h
2339 12-10-2020 02:50:00 9.1 C 8.43 g/m*3 9.1 C 1.6 km/h
2340 12-10-2020 02:55:00 9.1 C 8.43 g/m*3 9.1 C 0 km/h
2341 12-10-2020 03:00:00 9.1 C 8.43 g/m*3 9.1 C 0 km/h
2342 12-10-2020 03:05:00 9 C 8.38 g/m*3 9 C 0 km/h
2343 12-10-2020 03:10:00 9 C 8.38 g/m*3 9 C 0 km/h
2344 12-10-2020 03:15:00 9 C 8.38 g/m*3 9 C 0 km/h
2345 12-10-2020 03:20:00 9 C 8.38 g/m*3 9 C 0 km/h
2346 12-10-2020 03:25:00 8.9 C 8.32 g/m*3 8.9 C 0 km/h
2347 12-10-2020 03:30:00 8.9 C 8.32 g/m*3 8.9 C 1.6 km/h
2348 12-10-2020 03:35:00 8.9 C 8.32 g/m*3 8.9 C 0 km/h
2349 12-10-2020 03:40:00 8.9 C 8.32 g/m*3 8.9 C 0 km/h
2350 12-10-2020 03:45:00 8.9 C 8.32 g/m*3 8.9 C 0 km/h
Sensor: Nr:Datum:Temp:Abs-Feuchte:Windchill:Wind:
Aussen-T/F 2351 12-10-2020 03:50:00 8.9 C 8.32 g/m*3 8.9 C 0 km/h
2352 12-10-2020 03:55:00 8.9 C 8.32 g/m*3 8.9 C 0 km/h
2353 12-10-2020 04:00:00 8.9 C 8.32 g/m*3 8.9 C 0 km/h
2354 12-10-2020 04:05:00 8.9 C 8.32 g/m*3 8.9 C 0 km/h
2355 12-10-2020 04:10:00 8.9 C 8.32 g/m*3 8.9 C 0 km/h
2356 12-10-2020 04:15:00 8.9 C 8.32 g/m*3 8.9 C 0 km/h
2357 12-10-2020 04:20:00 8.9 C 8.32 g/m*3 8.9 C 0 km/h
2358 12-10-2020 04:25:00 8.9 C 8.32 g/m*3 8.9 C 1.6 km/h
2359 12-10-2020 04:30:00 8.9 C 8.32 g/m*3 8.9 C 0 km/h
2360 12-10-2020 04:35:00 8.9 C 8.32 g/m*3 8.9 C 0 km/h
2361 12-10-2020 04:40:00 8.9 C 8.32 g/m*3 8.9 C 1.6 km/h
2362 12-10-2020 04:45:00 8.9 C 8.32 g/m*3 8.9 C 0 km/h
2363 12-10-2020 04:50:00 8.9 C 8.32 g/m*3 8.9 C 0 km/h
2364 12-10-2020 04:55:00 8.9 C 8.32 g/m*3 8.9 C 0 km/h
2365 12-10-2020 05:00:00 8.9 C 8.32 g/m*3 8.9 C 0 km/h
2366 12-10-2020 05:05:00 8.9 C 8.32 g/m*3 8.9 C 1.6 km/h
2367 12-10-2020 05:10:00 8.9 C 8.32 g/m*3 8.9 C 0 km/h
2368 12-10-2020 05:15:00 8.9 C 8.32 g/m*3 8.9 C 0 km/h
2369 12-10-2020 05:20:00 8.9 C 8.32 g/m*3 8.9 C 0 km/h
2370 12-10-2020 05:25:00 8.9 C 8.32 g/m*3 8.9 C 0 km/h
2371 12-10-2020 05:30:00 8.9 C 8.32 g/m*3 8.9 C 0 km/h
2372 12-10-2020 05:35:00 8.9 C 8.32 g/m*3 8.9 C 0 km/h
2373 12-10-2020 05:40:00 8.9 C 8.32 g/m*3 8.9 C 0 km/h
2374 12-10-2020 05:45:00 8.9 C 8.32 g/m*3 8.9 C 3.2 km/h
2375 12-10-2020 05:50:00 8.9 C 8.32 g/m*3 8.9 C 3.2 km/h
Sensor: Nr:Datum:Temp:Abs-Feuchte:Windchill:Wind:
Aussen-T/F 2376 12-10-2020 05:55:00 8.8 C 8.27 g/m*3 8.8 C 1.6 km/h
2377 12-10-2020 06:00:00 8.8 C 8.27 g/m*3 8.8 C 1.6 km/h
2378 12-10-2020 06:05:00 8.8 C 8.27 g/m*3 8.8 C 1.6 km/h
2379 12-10-2020 06:10:00 8.8 C 8.27 g/m*3 7.98 C 6.4 km/h
2380 12-10-2020 06:15:00 8.8 C 8.27 g/m*3 8.8 C 1.6 km/h
2381 12-10-2020 06:20:00 8.7 C 8.22 g/m*3 8.7 C 0 km/h
2382 12-10-2020 06:25:00 8.7 C 8.22 g/m*3 8.7 C 0 km/h
2383 12-10-2020 06:30:00 8.6 C 8.16 g/m*3 8.6 C 1.6 km/h
2384 12-10-2020 06:35:00 8.6 C 8.16 g/m*3 8.6 C 0 km/h
2385 12-10-2020 06:40:00 8.6 C 8.16 g/m*3 8.6 C 1.6 km/h
2386 12-10-2020 06:45:00 8.6 C 8.16 g/m*3 8.6 C 0 km/h
2387 12-10-2020 06:50:00 8.6 C 8.16 g/m*3 8.6 C 3.2 km/h
2388 12-10-2020 06:55:00 8.7 C 8.22 g/m*3 8.7 C 1.6 km/h
2389 12-10-2020 07:00:00 8.7 C 8.22 g/m*3 8.7 C 3.2 km/h
2390 12-10-2020 07:05:00 8.7 C 8.22 g/m*3 8.7 C 3.2 km/h
2391 12-10-2020 07:10:00 8.7 C 8.22 g/m*3 8.7 C 0 km/h
2392 12-10-2020 07:15:00 8.7 C 8.22 g/m*3 8.7 C 0 km/h
2393 12-10-2020 07:20:00 8.7 C 8.22 g/m*3 8.7 C 0 km/h
2394 12-10-2020 07:25:00 8.7 C 8.22 g/m*3 8.7 C 0 km/h
2395 12-10-2020 07:30:00 8.7 C 8.3 g/m*3 8.7 C 0 km/h
2396 12-10-2020 07:35:00 8.8 C 8.36 g/m*3 8.8 C 0 km/h
2397 12-10-2020 07:40:00 8.7 C 8.3 g/m*3 8.7 C 1.6 km/h
2398 12-10-2020 07:45:00 8.7 C 8.22 g/m*3 8.7 C 4.8 km/h
2399 12-10-2020 07:50:00 8.7 C 8.22 g/m*3 8.7 C 0 km/h
2400 12-10-2020 07:55:00 8.8 C 8.27 g/m*3 8.8 C 0 km/h
Sensor: Nr:Datum:Temp:Abs-Feuchte:Windchill:Wind:
Aussen-T/F 2401 12-10-2020 08:00:00 8.8 C 8.27 g/m*3 8.8 C 3.2 km/h
2402 12-10-2020 08:05:00 8.8 C 8.27 g/m*3 8.8 C 0 km/h
2403 12-10-2020 08:10:00 8.8 C 8.27 g/m*3 8.8 C 0 km/h
2404 12-10-2020 08:15:00 8.8 C 8.27 g/m*3 8.8 C 0 km/h
2405 12-10-2020 08:20:00 8.8 C 8.27 g/m*3 8.8 C 0 km/h
2406 12-10-2020 08:25:00 8.8 C 8.27 g/m*3 8.8 C 0 km/h
2407 12-10-2020 08:30:00 8.8 C 8.36 g/m*3 8.8 C 1.6 km/h
2408 12-10-2020 08:35:00 8.8 C 8.27 g/m*3 8.8 C 1.6 km/h
2409 12-10-2020 08:40:00 8.8 C 8.27 g/m*3 8.8 C 1.6 km/h
2410 12-10-2020 08:45:00 8.8 C 8.27 g/m*3 8.8 C 0 km/h
2411 12-10-2020 08:50:00 8.8 C 8.27 g/m*3 8.8 C 0 km/h
2412 12-10-2020 08:55:00 8.9 C 8.32 g/m*3 8.9 C 0 km/h
2413 12-10-2020 09:00:00 8.9 C 8.32 g/m*3 8.9 C 0 km/h
2414 12-10-2020 09:05:00 8.9 C 8.32 g/m*3 8.9 C 0 km/h
2415 12-10-2020 09:10:00 9 C 8.38 g/m*3 9 C 0 km/h
2416 12-10-2020 09:15:00 9.1 C 8.43 g/m*3 9.1 C 0 km/h
2417 12-10-2020 09:20:00 9.1 C 8.52 g/m*3 9.1 C 0 km/h
2418 12-10-2020 09:25:00 9.2 C 8.57 g/m*3 9.2 C 0 km/h
2419 12-10-2020 09:30:00 9.2 C 8.57 g/m*3 9.2 C 1.6 km/h
2420 12-10-2020 09:35:00 9.3 C 8.63 g/m*3 9.3 C 0 km/h
2421 12-10-2020 09:40:00 9.3 C 8.54 g/m*3 9.3 C 3.2 km/h
2422 12-10-2020 09:45:00 9.3 C 8.54 g/m*3 9.3 C 3.2 km/h
2423 12-10-2020 09:50:00 9.3 C 8.54 g/m*3 9.3 C 0 km/h
2424 12-10-2020 09:55:00 9.4 C 8.59 g/m*3 9.4 C 1.6 km/h
2425 12-10-2020 10:00:00 9.4 C 8.59 g/m*3 8.68 C 6.4 km/h
Sensor: Nr:Datum:Temp:Abs-Feuchte:Windchill:Wind:
Aussen-T/F 2426 12-10-2020 10:05:00 9.3 C 8.54 g/m*3 8.56 C 6.4 km/h
2427 12-10-2020 10:10:00 9.3 C 8.54 g/m*3 9.3 C 3.2 km/h
2428 12-10-2020 10:15:00 9.3 C 8.54 g/m*3 8.56 C 6.4 km/h
2429 12-10-2020 10:20:00 9.4 C 8.59 g/m*3 9.4 C 4.8 km/h
2430 12-10-2020 10:25:00 9.6 C 8.7 g/m*3 9.6 C 3.2 km/h
2431 12-10-2020 10:30:00 9.7 C 8.76 g/m*3 9.7 C 4.8 km/h
2432 12-10-2020 10:35:00 9.8 C 8.72 g/m*3 9.8 C 4.8 km/h
2433 12-10-2020 10:40:00 9.8 C 8.72 g/m*3 9.14 C 6.4 km/h
2434 12-10-2020 10:45:00 9.9 C 8.78 g/m*3 9.9 C 3.2 km/h
2435 12-10-2020 10:50:00 10.1 C 8.89 g/m*3 10.1 C 1.6 km/h
2436 12-10-2020 10:55:00 10.1 C 8.89 g/m*3 10.1 C 3.2 km/h
2437 12-10-2020 11:00:00 10.2 C 8.85 g/m*3 10.2 C 3.2 km/h
2438 12-10-2020 11:05:00 10.3 C 8.91 g/m*3 10.3 C 4.8 km/h
2439 12-10-2020 11:10:00 10.3 C 8.91 g/m*3 10.3 C 3.2 km/h
2440 12-10-2020 11:15:00 10.4 C 8.87 g/m*3 10.4 C 4.8 km/h
2441 12-10-2020 11:20:00 10.5 C 8.92 g/m*3 10.5 C 3.2 km/h
2442 12-10-2020 11:25:00 10.5 C 8.83 g/m*3 10.5 C 0 km/h
2443 12-10-2020 11:30:00 10.6 C 8.88 g/m*3 10.6 C 3.2 km/h
2444 12-10-2020 11:35:00 10.7 C 8.94 g/m*3 10.7 C 3.2 km/h
2445 12-10-2020 11:40:00 10.9 C 9.05 g/m*3 10.9 C 1.6 km/h
2446 12-10-2020 11:45:00 11.2 C 9.12 g/m*3 11.2 C 6.4 km/h
2447 12-10-2020 11:50:00 11.3 C 9.08 g/m*3 11.3 C 1.6 km/h
2448 12-10-2020 11:55:00 11.3 C 9.08 g/m*3 11.3 C 1.6 km/h
2449 12-10-2020 12:00:00 11.4 C 9.03 g/m*3 11.4 C 3.2 km/h
2450 12-10-2020 12:05:00 11.3 C 8.87 g/m*3 11.3 C 4.8 km/h
Sensor: Nr:Datum:Temp:Abs-Feuchte:Windchill:Wind:
Aussen-T/F 2451 12-10-2020 12:10:00 11.3 C 8.87 g/m*3 11.3 C 0 km/h
2452 12-10-2020 12:15:00 11.4 C 8.93 g/m*3 11.4 C 0 km/h
2453 12-10-2020 12:20:00 11.5 C 8.99 g/m*3 11.5 C 3.2 km/h
2454 12-10-2020 12:25:00 11.6 C 9.04 g/m*3 11.6 C 4.8 km/h
2455 12-10-2020 12:30:00 11.6 C 9.04 g/m*3 11.6 C 4.8 km/h
2456 12-10-2020 12:35:00 11.7 C 9.1 g/m*3 11.7 C 4.8 km/h
2457 12-10-2020 12:40:00 11.7 C 8.89 g/m*3 11.7 C 4.8 km/h
2458 12-10-2020 12:45:00 11.8 C 9.05 g/m*3 11.8 C 1.6 km/h
2459 12-10-2020 12:50:00 12.1 C 9.01 g/m*3 12.1 C 6.4 km/h
2460 12-10-2020 12:55:00 12.2 C 9.06 g/m*3 12.2 C 1.6 km/h
2461 12-10-2020 13:00:00 12.3 C 9.01 g/m*3 12.3 C 8.1 km/h
2462 12-10-2020 13:05:00 12.4 C 9.07 g/m*3 12.4 C 4.8 km/h
2463 12-10-2020 13:10:00 12.4 C 9.07 g/m*3 12.4 C 6.4 km/h
2464 12-10-2020 13:15:00 12.3 C 8.8 g/m*3 12.3 C 8.1 km/h
2465 12-10-2020 13:20:00 12.4 C 8.96 g/m*3 12.4 C 6.4 km/h
2466 12-10-2020 13:25:00 12.3 C 8.69 g/m*3 12.3 C 8.1 km/h
2467 12-10-2020 13:30:00 12.3 C 8.8 g/m*3 12.3 C 4.8 km/h
2468 12-10-2020 13:35:00 12.2 C 8.74 g/m*3 12.2 C 8.1 km/h
2469 12-10-2020 13:40:00 12.2 C 8.85 g/m*3 12.2 C 8.1 km/h
2470 12-10-2020 13:45:00 12.2 C 8.96 g/m*3 12.2 C 4.8 km/h
2471 12-10-2020 13:50:00 12.2 C 8.96 g/m*3 12.2 C 3.2 km/h
2472 12-10-2020 13:55:00 12.2 C 8.96 g/m*3 12.2 C 4.8 km/h
2473 12-10-2020 14:00:00 12.2 C 8.85 g/m*3 12.2 C 8.1 km/h
2474 12-10-2020 14:05:00 12.3 C 8.9 g/m*3 12.3 C 9.7 km/h
2475 12-10-2020 14:10:00 12.3 C 8.9 g/m*3 12.3 C 11.3 km/h
Sensor: Nr:Datum:Temp:Abs-Feuchte:Windchill:Wind:
Aussen-T/F 2476 12-10-2020 14:15:00 12.3 C 9.01 g/m*3 12.3 C 6.4 km/h
2477 12-10-2020 14:20:00 12.2 C 8.85 g/m*3 12.2 C 4.8 km/h
2478 12-10-2020 14:25:00 12.2 C 9.06 g/m*3 12.2 C 6.4 km/h
2479 12-10-2020 14:30:00 12.2 C 9.06 g/m*3 12.2 C 3.2 km/h
2480 12-10-2020 14:35:00 12.2 C 8.96 g/m*3 12.2 C 4.8 km/h
2481 12-10-2020 14:40:00 12.2 C 9.06 g/m*3 12.2 C 8.1 km/h
2482 12-10-2020 14:45:00 12.2 C 9.06 g/m*3 12.2 C 3.2 km/h
2483 12-10-2020 14:50:00 12.3 C 9.12 g/m*3 12.3 C 3.2 km/h
2484 12-10-2020 14:55:00 12.3 C 9.01 g/m*3 12.3 C 9.7 km/h
2485 12-10-2020 15:00:00 12.3 C 9.01 g/m*3 12.3 C 1.6 km/h
2486 12-10-2020 15:05:00 12.4 C 8.85 g/m*3 12.4 C 9.7 km/h
2487 12-10-2020 15:10:00 12.4 C 8.85 g/m*3 12.4 C 4.8 km/h
2488 12-10-2020 15:15:00 12.5 C 8.91 g/m*3 12.5 C 6.4 km/h
2489 12-10-2020 15:20:00 12.7 C 9.13 g/m*3 12.7 C 4.8 km/h
2490 12-10-2020 15:25:00 12.7 C 8.79 g/m*3 12.7 C 9.7 km/h
2491 12-10-2020 15:30:00 12.7 C 8.91 g/m*3 12.7 C 12.9 km/h
2492 12-10-2020 15:35:00 12.4 C 8.74 g/m*3 12.4 C 14.5 km/h
2493 12-10-2020 15:40:00 11.9 C 8.58 g/m*3 11.9 C 16.1 km/h
2494 12-10-2020 15:45:00 11.6 C 8.63 g/m*3 11.6 C 4.8 km/h
2495 12-10-2020 15:50:00 11.4 C 8.83 g/m*3 11.4 C 6.4 km/h
2496 12-10-2020 15:55:00 11.3 C 8.77 g/m*3 11.3 C 8.1 km/h
2497 12-10-2020 16:00:00 11.1 C 8.76 g/m*3 11.1 C 4.8 km/h
2498 12-10-2020 16:05:00 10.9 C 8.65 g/m*3 10.9 C 1.6 km/h
2499 12-10-2020 16:10:00 10.9 C 8.75 g/m*3 10.9 C 1.6 km/h
2500 12-10-2020 16:15:00 10.9 C 8.95 g/m*3 10.41 C 6.4 km/h
Sensor: Nr:Datum:Temp:Abs-Feuchte:Windchill:Wind:
Aussen-T/F 2501 12-10-2020 16:20:00 11 C 9.01 g/m*3 11 C 3.2 km/h
2502 12-10-2020 16:25:00 10.9 C 8.85 g/m*3 10.9 C 4.8 km/h
2503 12-10-2020 16:30:00 10.9 C 8.95 g/m*3 10.9 C 3.2 km/h
2504 12-10-2020 16:35:00 11.1 C 9.17 g/m*3 11.1 C 1.6 km/h
2505 12-10-2020 16:40:00 11.2 C 9.22 g/m*3 11.2 C 1.6 km/h
2506 12-10-2020 16:45:00 11.2 C 9.22 g/m*3 11.2 C 0 km/h
2507 12-10-2020 16:50:00 11.3 C 9.28 g/m*3 11.3 C 0 km/h
2508 12-10-2020 16:55:00 11.4 C 9.24 g/m*3 11.4 C 1.6 km/h
2509 12-10-2020 17:00:00 11.3 C 8.98 g/m*3 11.3 C 0 km/h
2510 12-10-2020 17:05:00 11.4 C 9.14 g/m*3 11.4 C 3.2 km/h
2511 12-10-2020 17:10:00 11.6 C 9.25 g/m*3 11.6 C 1.6 km/h
2512 12-10-2020 17:15:00 11.6 C 9.15 g/m*3 11.6 C 0 km/h
2513 12-10-2020 17:20:00 11.7 C 9.2 g/m*3 11.7 C 4.8 km/h
2514 12-10-2020 17:25:00 11.7 C 8.79 g/m*3 11.7 C 4.8 km/h
2515 12-10-2020 17:30:00 11.8 C 8.95 g/m*3 11.8 C 0 km/h
2516 12-10-2020 17:35:00 12 C 9.17 g/m*3 12 C 0 km/h
2517 12-10-2020 17:40:00 12.2 C 9.28 g/m*3 12.2 C 0 km/h
2518 12-10-2020 17:45:00 12.2 C 9.17 g/m*3 12.2 C 1.6 km/h
2519 12-10-2020 17:50:00 12.1 C 9.12 g/m*3 12.1 C 1.6 km/h
2520 12-10-2020 17:55:00 11.9 C 9 g/m*3 11.9 C 1.6 km/h
2521 12-10-2020 18:00:00 11.8 C 8.95 g/m*3 11.8 C 3.2 km/h
2522 12-10-2020 18:05:00 11.7 C 8.89 g/m*3 11.7 C 1.6 km/h
2523 12-10-2020 18:10:00 11.4 C 8.72 g/m*3 11.4 C 3.2 km/h
2524 12-10-2020 18:15:00 11.3 C 8.67 g/m*3 11.3 C 6.4 km/h
2525 12-10-2020 18:20:00 11.1 C 8.66 g/m*3 11.1 C 6.4 km/h
Sensor: Nr:Datum:Temp:Abs-Feuchte:Windchill:Wind:
Aussen-T/F 2526 12-10-2020 18:25:00 10.9 C 8.55 g/m*3 10.41 C 6.4 km/h
2527 12-10-2020 18:30:00 10.6 C 8.3 g/m*3 9.69 C 8.1 km/h
2528 12-10-2020 18:35:00 10.3 C 8.24 g/m*3 10.3 C 3.2 km/h
2529 12-10-2020 18:40:00 10.1 C 8.13 g/m*3 10.1 C 4.8 km/h
2530 12-10-2020 18:45:00 9.8 C 8.07 g/m*3 9.14 C 6.4 km/h
2531 12-10-2020 18:50:00 9.6 C 8.06 g/m*3 9.6 C 4.8 km/h
2532 12-10-2020 18:55:00 9.4 C 7.96 g/m*3 9.4 C 0 km/h
2533 12-10-2020 19:00:00 9.3 C 7.91 g/m*3 9.3 C 1.6 km/h
2534 12-10-2020 19:05:00 9.1 C 7.9 g/m*3 9.1 C 1.6 km/h
2535 12-10-2020 19:10:00 8.9 C 7.8 g/m*3 8.9 C 3.2 km/h
2536 12-10-2020 19:15:00 8.7 C 7.7 g/m*3 8.7 C 1.6 km/h
2537 12-10-2020 19:20:00 8.5 C 7.6 g/m*3 8.5 C 1.6 km/h
2538 12-10-2020 19:25:00 8.3 C 7.5 g/m*3 8.3 C 4.8 km/h
2539 12-10-2020 19:30:00 8.1 C 7.49 g/m*3 8.1 C 3.2 km/h
2540 12-10-2020 19:35:00 8 C 7.44 g/m*3 8 C 0 km/h
2541 12-10-2020 19:40:00 7.8 C 7.35 g/m*3 7.8 C 3.2 km/h
2542 12-10-2020 19:45:00 7.7 C 7.3 g/m*3 7.7 C 1.6 km/h
2543 12-10-2020 19:50:00 7.6 C 7.33 g/m*3 7.6 C 1.6 km/h
2544 12-10-2020 19:55:00 7.6 C 7.33 g/m*3 7.6 C 0 km/h
2545 12-10-2020 20:00:00 7.5 C 7.28 g/m*3 7.5 C 0 km/h
2546 12-10-2020 20:05:00 7.4 C 7.24 g/m*3 7.4 C 0 km/h
2547 12-10-2020 20:10:00 7.3 C 7.27 g/m*3 7.3 C 0 km/h
2548 12-10-2020 20:15:00 7.3 C 7.27 g/m*3 7.3 C 0 km/h
2549 12-10-2020 20:20:00 7.2 C 7.22 g/m*3 7.2 C 0 km/h
2550 12-10-2020 20:25:00 7.2 C 7.22 g/m*3 7.2 C 0 km/h
Sensor: Nr:Datum:Temp:Abs-Feuchte:Windchill:Wind:
Aussen-T/F 2551 12-10-2020 20:30:00 7.1 C 7.18 g/m*3 7.1 C 0 km/h
2552 12-10-2020 20:35:00 7 C 7.13 g/m*3 7 C 0 km/h
2553 12-10-2020 20:40:00 6.9 C 7.08 g/m*3 6.9 C 0 km/h
2554 12-10-2020 20:45:00 6.9 C 7.16 g/m*3 6.9 C 0 km/h
2555 12-10-2020 20:50:00 6.8 C 7.11 g/m*3 6.8 C 0 km/h
2556 12-10-2020 20:55:00 6.7 C 7.07 g/m*3 6.7 C 0 km/h
2557 12-10-2020 21:00:00 6.7 C 7.07 g/m*3 6.7 C 0 km/h
2558 12-10-2020 21:05:00 6.7 C 7.07 g/m*3 6.7 C 1.6 km/h
2559 12-10-2020 21:10:00 6.6 C 7.02 g/m*3 6.6 C 1.6 km/h
2560 12-10-2020 21:15:00 6.6 C 7.1 g/m*3 6.6 C 1.6 km/h
2561 12-10-2020 21:20:00 6.6 C 7.02 g/m*3 6.6 C 0 km/h
2562 12-10-2020 21:25:00 6.5 C 7.05 g/m*3 6.5 C 0 km/h
2563 12-10-2020 21:30:00 6.5 C 7.05 g/m*3 6.5 C 0 km/h
2564 12-10-2020 21:35:00 6.5 C 7.05 g/m*3 6.5 C 0 km/h
2565 12-10-2020 21:40:00 6.5 C 7.05 g/m*3 6.5 C 0 km/h
2566 12-10-2020 21:45:00 6.5 C 7.05 g/m*3 6.5 C 1.6 km/h
2567 12-10-2020 21:50:00 6.5 C 7.05 g/m*3 6.5 C 0 km/h
2568 12-10-2020 21:55:00 6.4 C 7 g/m*3 6.4 C 0 km/h
2569 12-10-2020 22:00:00 6.3 C 6.96 g/m*3 6.3 C 0 km/h
2570 12-10-2020 22:05:00 6.3 C 6.96 g/m*3 6.3 C 0 km/h
2571 12-10-2020 22:10:00 6.2 C 6.91 g/m*3 6.2 C 0 km/h
2572 12-10-2020 22:15:00 6.2 C 6.91 g/m*3 6.2 C 1.6 km/h
2573 12-10-2020 22:20:00 6.2 C 6.99 g/m*3 6.2 C 0 km/h
2574 12-10-2020 22:25:00 6.3 C 7.03 g/m*3 6.3 C 0 km/h
2575 12-10-2020 22:30:00 6.3 C 7.03 g/m*3 6.3 C 0 km/h
Sensor: Nr:Datum:Temp:Abs-Feuchte:Windchill:Wind:
Aussen-T/F 2576 12-10-2020 22:35:00 6.4 C 7.08 g/m*3 6.4 C 0 km/h
2577 12-10-2020 22:40:00 6.4 C 7.08 g/m*3 6.4 C 0 km/h
2578 12-10-2020 22:45:00 6.5 C 7.12 g/m*3 6.5 C 0 km/h
2579 12-10-2020 22:50:00 6.5 C 7.12 g/m*3 6.5 C 0 km/h
2580 12-10-2020 22:55:00 6.4 C 7.08 g/m*3 6.4 C 0 km/h
2581 12-10-2020 23:00:00 6.4 C 7.08 g/m*3 6.4 C 0 km/h
2582 12-10-2020 23:05:00 6.3 C 7.03 g/m*3 6.3 C 0 km/h
2583 12-10-2020 23:10:00 6.2 C 6.99 g/m*3 6.2 C 0 km/h
2584 12-10-2020 23:15:00 6.1 C 6.87 g/m*3 6.1 C 0 km/h
2585 12-10-2020 23:20:00 5.9 C 6.85 g/m*3 5.9 C 0 km/h
2586 12-10-2020 23:25:00 5.9 C 6.85 g/m*3 5.9 C 0 km/h
2587 12-10-2020 23:30:00 5.8 C 6.81 g/m*3 5.8 C 0 km/h
2588 12-10-2020 23:35:00 5.8 C 6.81 g/m*3 5.8 C 0 km/h
2589 12-10-2020 23:40:00 5.8 C 6.81 g/m*3 5.8 C 0 km/h
2590 12-10-2020 23:45:00 5.7 C 6.76 g/m*3 5.7 C 0 km/h
2591 12-10-2020 23:50:00 5.7 C 6.76 g/m*3 5.7 C 0 km/h
2592 12-10-2020 23:55:00 5.7 C 6.76 g/m*3 5.7 C 0 km/h
2593 13-10-2020 00:00:00 5.6 C 6.72 g/m*3 5.6 C 0 km/h
2594 13-10-2020 00:05:00 5.5 C 6.67 g/m*3 5.5 C 0 km/h
2595 13-10-2020 00:10:00 5.4 C 6.63 g/m*3 5.4 C 0 km/h
2596 13-10-2020 00:15:00 5.4 C 6.63 g/m*3 5.4 C 0 km/h
2597 13-10-2020 00:20:00 5.3 C 6.58 g/m*3 5.3 C 0 km/h
2598 13-10-2020 00:25:00 5.3 C 6.58 g/m*3 5.3 C 0 km/h
2599 13-10-2020 00:30:00 5.2 C 6.54 g/m*3 5.2 C 0 km/h
2600 13-10-2020 00:35:00 5.2 C 6.54 g/m*3 5.2 C 0 km/h
Sensor: Nr:Datum:Temp:Abs-Feuchte:Windchill:Wind:
Aussen-T/F 2601 13-10-2020 00:40:00 5.2 C 6.54 g/m*3 5.2 C 0 km/h
2602 13-10-2020 00:45:00 5.2 C 6.54 g/m*3 5.2 C 0 km/h
2603 13-10-2020 00:50:00 5.1 C 6.5 g/m*3 5.1 C 0 km/h
2604 13-10-2020 00:55:00 5.2 C 6.54 g/m*3 5.2 C 0 km/h
2605 13-10-2020 01:00:00 5.1 C 6.5 g/m*3 5.1 C 0 km/h
2606 13-10-2020 01:05:00 5.1 C 6.5 g/m*3 5.1 C 0 km/h
2607 13-10-2020 01:10:00 5.1 C 6.5 g/m*3 5.1 C 0 km/h
2608 13-10-2020 01:15:00 5.1 C 6.5 g/m*3 5.1 C 0 km/h
2609 13-10-2020 01:20:00 4.9 C 6.41 g/m*3 4.9 C 0 km/h
2610 13-10-2020 01:25:00 4.9 C 6.41 g/m*3 4.9 C 0 km/h
2611 13-10-2020 01:30:00 4.9 C 6.41 g/m*3 4.9 C 0 km/h
2612 13-10-2020 01:35:00 5 C 6.52 g/m*3 5 C 0 km/h
2613 13-10-2020 01:40:00 5.1 C 6.57 g/m*3 5.1 C 0 km/h
2614 13-10-2020 01:45:00 5.2 C 6.61 g/m*3 5.2 C 0 km/h
2615 13-10-2020 01:50:00 5.2 C 6.61 g/m*3 5.2 C 0 km/h
2616 13-10-2020 01:55:00 5.3 C 6.65 g/m*3 5.3 C 0 km/h
2617 13-10-2020 02:00:00 5.3 C 6.65 g/m*3 5.3 C 0 km/h
2618 13-10-2020 02:05:00 5.4 C 6.7 g/m*3 5.4 C 0 km/h
2619 13-10-2020 02:10:00 5.4 C 6.7 g/m*3 5.4 C 0 km/h
2620 13-10-2020 02:15:00 5.5 C 6.74 g/m*3 5.5 C 0 km/h
2621 13-10-2020 02:20:00 5.6 C 6.79 g/m*3 5.6 C 0 km/h
2622 13-10-2020 02:25:00 5.6 C 6.79 g/m*3 5.6 C 0 km/h
2623 13-10-2020 02:30:00 5.7 C 6.83 g/m*3 5.7 C 0 km/h
2624 13-10-2020 02:35:00 5.8 C 6.88 g/m*3 5.8 C 0 km/h
2625 13-10-2020 02:40:00 5.9 C 6.92 g/m*3 5.9 C 0 km/h
Sensor: Nr:Datum:Temp:Abs-Feuchte:Windchill:Wind:
Aussen-T/F 2626 13-10-2020 02:45:00 6 C 6.97 g/m*3 6 C 0 km/h
2627 13-10-2020 02:50:00 6.1 C 7.01 g/m*3 6.1 C 0 km/h
2628 13-10-2020 02:55:00 6.2 C 7.06 g/m*3 6.2 C 1.6 km/h
2629 13-10-2020 03:00:00 6.2 C 7.06 g/m*3 6.2 C 0 km/h
2630 13-10-2020 03:05:00 6.2 C 7.06 g/m*3 6.2 C 0 km/h
2631 13-10-2020 03:10:00 6.2 C 7.06 g/m*3 6.2 C 1.6 km/h
2632 13-10-2020 03:15:00 6.2 C 7.06 g/m*3 6.2 C 0 km/h
2633 13-10-2020 03:20:00 6.2 C 7.06 g/m*3 6.2 C 1.6 km/h
2634 13-10-2020 03:25:00 6.2 C 7.06 g/m*3 6.2 C 1.6 km/h
2635 13-10-2020 03:30:00 6.2 C 7.06 g/m*3 6.2 C 0 km/h
2636 13-10-2020 03:35:00 6.2 C 7.06 g/m*3 6.2 C 0 km/h
2637 13-10-2020 03:40:00 6.2 C 7.06 g/m*3 6.2 C 0 km/h
2638 13-10-2020 03:45:00 6.2 C 7.06 g/m*3 6.2 C 0 km/h
2639 13-10-2020 03:50:00 6.2 C 7.06 g/m*3 6.2 C 0 km/h
2640 13-10-2020 03:55:00 6.2 C 7.06 g/m*3 6.2 C 0 km/h
2641 13-10-2020 04:00:00 6.2 C 7.06 g/m*3 6.2 C 0 km/h
2642 13-10-2020 04:05:00 6.2 C 7.06 g/m*3 6.2 C 0 km/h
2643 13-10-2020 04:10:00 6.2 C 7.06 g/m*3 6.2 C 0 km/h
2644 13-10-2020 04:15:00 6.2 C 7.06 g/m*3 6.2 C 0 km/h
2645 13-10-2020 04:20:00 6.2 C 7.06 g/m*3 6.2 C 0 km/h
2646 13-10-2020 04:25:00 6.2 C 7.06 g/m*3 6.2 C 0 km/h
2647 13-10-2020 04:30:00 6.2 C 7.06 g/m*3 6.2 C 0 km/h
2648 13-10-2020 04:35:00 6.1 C 7.01 g/m*3 6.1 C 0 km/h
2649 13-10-2020 04:40:00 6.1 C 7.01 g/m*3 6.1 C 0 km/h
2650 13-10-2020 04:45:00 6.1 C 7.01 g/m*3 6.1 C 0 km/h
Sensor: Nr:Datum:Temp:Abs-Feuchte:Windchill:Wind:
Aussen-T/F 2651 13-10-2020 04:50:00 6.1 C 7.01 g/m*3 6.1 C 0 km/h
2652 13-10-2020 04:55:00 6.1 C 7.01 g/m*3 6.1 C 0 km/h
2653 13-10-2020 05:00:00 6.2 C 7.06 g/m*3 6.2 C 0 km/h
2654 13-10-2020 05:05:00 6.2 C 7.06 g/m*3 6.2 C 0 km/h
2655 13-10-2020 05:10:00 6.2 C 7.06 g/m*3 6.2 C 0 km/h
2656 13-10-2020 05:15:00 6.2 C 7.06 g/m*3 6.2 C 0 km/h
2657 13-10-2020 05:20:00 6.2 C 7.06 g/m*3 6.2 C 0 km/h
2658 13-10-2020 05:25:00 6.3 C 7.11 g/m*3 6.3 C 0 km/h
2659 13-10-2020 05:30:00 6.3 C 7.11 g/m*3 6.3 C 0 km/h
2660 13-10-2020 05:35:00 6.3 C 7.11 g/m*3 6.3 C 0 km/h
2661 13-10-2020 05:40:00 6.3 C 7.11 g/m*3 6.3 C 0 km/h
2662 13-10-2020 05:45:00 6.3 C 7.11 g/m*3 6.3 C 0 km/h
2663 13-10-2020 05:50:00 6.3 C 7.11 g/m*3 6.3 C 0 km/h
2664 13-10-2020 05:55:00 6.3 C 7.18 g/m*3 6.3 C 0 km/h
2665 13-10-2020 06:00:00 6.3 C 7.18 g/m*3 6.3 C 0 km/h
2666 13-10-2020 06:05:00 6.3 C 7.18 g/m*3 6.3 C 0 km/h
2667 13-10-2020 06:10:00 6.3 C 7.18 g/m*3 6.3 C 0 km/h
2668 13-10-2020 06:15:00 6.3 C 7.18 g/m*3 6.3 C 0 km/h
2669 13-10-2020 06:20:00 6.4 C 7.23 g/m*3 6.4 C 0 km/h
2670 13-10-2020 06:25:00 6.4 C 7.23 g/m*3 6.4 C 0 km/h
2671 13-10-2020 06:30:00 6.4 C 7.23 g/m*3 6.4 C 0 km/h
2672 13-10-2020 06:35:00 6.4 C 7.23 g/m*3 6.4 C 0 km/h
2673 13-10-2020 06:40:00 6.4 C 7.23 g/m*3 6.4 C 0 km/h
2674 13-10-2020 06:45:00 6.4 C 7.23 g/m*3 6.4 C 0 km/h
2675 13-10-2020 06:50:00 6.3 C 7.18 g/m*3 6.3 C 0 km/h
Sensor: Nr:Datum:Temp:Abs-Feuchte:Windchill:Wind:
Aussen-T/F 2676 13-10-2020 06:55:00 6.3 C 7.18 g/m*3 6.3 C 0 km/h
2677 13-10-2020 07:00:00 6.3 C 7.18 g/m*3 6.3 C 0 km/h
2678 13-10-2020 07:05:00 6.3 C 7.18 g/m*3 6.3 C 0 km/h
2679 13-10-2020 07:10:00 6.3 C 7.18 g/m*3 6.3 C 0 km/h
2680 13-10-2020 07:15:00 6.3 C 7.18 g/m*3 6.3 C 0 km/h
2681 13-10-2020 07:20:00 6.3 C 7.18 g/m*3 6.3 C 0 km/h
2682 13-10-2020 07:25:00 6.3 C 7.18 g/m*3 6.3 C 0 km/h
2683 13-10-2020 07:30:00 6.3 C 7.18 g/m*3 6.3 C 0 km/h
2684 13-10-2020 07:35:00 6.3 C 7.18 g/m*3 6.3 C 0 km/h
2685 13-10-2020 07:40:00 6.3 C 7.18 g/m*3 6.3 C 0 km/h
2686 13-10-2020 07:45:00 6.4 C 7.23 g/m*3 6.4 C 0 km/h
2687 13-10-2020 07:50:00 6.4 C 7.23 g/m*3 6.4 C 0 km/h
2688 13-10-2020 07:55:00 6.4 C 7.23 g/m*3 6.4 C 0 km/h
2689 13-10-2020 08:00:00 6.5 C 7.27 g/m*3 6.5 C 0 km/h
2690 13-10-2020 08:05:00 6.6 C 7.32 g/m*3 6.6 C 0 km/h
2691 13-10-2020 08:10:00 6.6 C 7.32 g/m*3 6.6 C 0 km/h
2692 13-10-2020 08:15:00 6.6 C 7.32 g/m*3 6.6 C 0 km/h
2693 13-10-2020 08:20:00 6.6 C 7.32 g/m*3 6.6 C 0 km/h
2694 13-10-2020 08:25:00 6.6 C 7.32 g/m*3 6.6 C 0 km/h
2695 13-10-2020 08:30:00 6.6 C 7.32 g/m*3 6.6 C 0 km/h
2696 13-10-2020 08:35:00 6.6 C 7.32 g/m*3 6.6 C 0 km/h
2697 13-10-2020 08:40:00 6.6 C 7.32 g/m*3 6.6 C 0 km/h
2698 13-10-2020 08:45:00 6.7 C 7.37 g/m*3 6.7 C 1.6 km/h
2699 13-10-2020 08:50:00 6.7 C 7.37 g/m*3 6.7 C 0 km/h
2700 13-10-2020 08:55:00 6.7 C 7.37 g/m*3 6.7 C 0 km/h
Sensor: Nr:Datum:Temp:Abs-Feuchte:Windchill:Wind:
Aussen-T/F 2701 13-10-2020 09:00:00 6.8 C 7.42 g/m*3 6.8 C 0 km/h
2702 13-10-2020 09:05:00 6.9 C 7.47 g/m*3 6.9 C 0 km/h
2703 13-10-2020 09:10:00 6.9 C 7.47 g/m*3 6.9 C 0 km/h
2704 13-10-2020 09:15:00 6.9 C 7.47 g/m*3 6.9 C 0 km/h
2705 13-10-2020 09:20:00 6.9 C 7.47 g/m*3 6.9 C 0 km/h
2706 13-10-2020 09:25:00 7 C 7.52 g/m*3 7 C 0 km/h
2707 13-10-2020 09:30:00 7.1 C 7.57 g/m*3 7.1 C 0 km/h
2708 13-10-2020 09:35:00 7.2 C 7.61 g/m*3 7.2 C 1.6 km/h
2709 13-10-2020 09:40:00 7.2 C 7.61 g/m*3 7.2 C 0 km/h
2710 13-10-2020 09:45:00 7.2 C 7.61 g/m*3 7.2 C 0 km/h
2711 13-10-2020 09:50:00 7.3 C 7.66 g/m*3 7.3 C 0 km/h
2712 13-10-2020 09:55:00 7.3 C 7.66 g/m*3 7.3 C 0 km/h
2713 13-10-2020 10:00:00 7.3 C 7.66 g/m*3 7.3 C 0 km/h
2714 13-10-2020 10:05:00 7.3 C 7.66 g/m*3 7.3 C 4.8 km/h
2715 13-10-2020 10:10:00 7.4 C 7.71 g/m*3 7.4 C 4.8 km/h
2716 13-10-2020 10:15:00 7.5 C 7.76 g/m*3 7.5 C 3.2 km/h
2717 13-10-2020 10:20:00 7.4 C 7.63 g/m*3 5.58 C 9.7 km/h
2718 13-10-2020 10:25:00 7.4 C 7.63 g/m*3 5.58 C 9.7 km/h
2719 13-10-2020 10:30:00 7.4 C 7.63 g/m*3 7.4 C 4.8 km/h
2720 13-10-2020 10:35:00 7.4 C 7.63 g/m*3 7.4 C 3.2 km/h
2721 13-10-2020 10:40:00 7.4 C 7.55 g/m*3 5.93 C 8.1 km/h
2722 13-10-2020 10:45:00 7.4 C 7.63 g/m*3 7.4 C 4.8 km/h
2723 13-10-2020 10:50:00 7.5 C 7.6 g/m*3 6.48 C 6.4 km/h
2724 13-10-2020 10:55:00 7.6 C 7.65 g/m*3 7.6 C 4.8 km/h
2725 13-10-2020 11:00:00 7.6 C 7.65 g/m*3 6.6 C 6.4 km/h
Sensor: Nr:Datum:Temp:Abs-Feuchte:Windchill:Wind:
Aussen-T/F 2726 13-10-2020 11:05:00 7.7 C 7.7 g/m*3 7.7 C 4.8 km/h
2727 13-10-2020 11:10:00 7.7 C 7.62 g/m*3 7.7 C 4.8 km/h
2728 13-10-2020 11:15:00 7.8 C 7.67 g/m*3 6.83 C 6.4 km/h
2729 13-10-2020 11:20:00 7.9 C 7.72 g/m*3 6.94 C 6.4 km/h
2730 13-10-2020 11:25:00 8 C 7.77 g/m*3 8 C 3.2 km/h
2731 13-10-2020 11:30:00 8.1 C 7.82 g/m*3 8.1 C 1.6 km/h
2732 13-10-2020 11:35:00 8.3 C 7.92 g/m*3 8.3 C 0 km/h
2733 13-10-2020 11:40:00 8.3 C 7.92 g/m*3 8.3 C 4.8 km/h
2734 13-10-2020 11:45:00 8.4 C 7.89 g/m*3 8.4 C 1.6 km/h
2735 13-10-2020 11:50:00 8.6 C 7.99 g/m*3 7.34 C 8.1 km/h
2736 13-10-2020 11:55:00 8.6 C 7.91 g/m*3 8.6 C 3.2 km/h
2737 13-10-2020 12:00:00 8.7 C 8.04 g/m*3 7.46 C 8.1 km/h
2738 13-10-2020 12:05:00 8.9 C 8.06 g/m*3 8.9 C 4.8 km/h
2739 13-10-2020 12:10:00 8.9 C 8.06 g/m*3 8.9 C 3.2 km/h
2740 13-10-2020 12:15:00 9.1 C 8.07 g/m*3 9.1 C 3.2 km/h
2741 13-10-2020 12:20:00 9.1 C 8.07 g/m*3 9.1 C 3.2 km/h
2742 13-10-2020 12:25:00 9.2 C 8.04 g/m*3 9.2 C 3.2 km/h
2743 13-10-2020 12:30:00 9.3 C 8.09 g/m*3 9.3 C 3.2 km/h
2744 13-10-2020 12:35:00 9.3 C 8.09 g/m*3 9.3 C 1.6 km/h
2745 13-10-2020 12:40:00 9.4 C 8.14 g/m*3 9.4 C 4.8 km/h
2746 13-10-2020 12:45:00 9.5 C 8.1 g/m*3 9.5 C 3.2 km/h
2747 13-10-2020 12:50:00 9.6 C 8.15 g/m*3 9.6 C 3.2 km/h
2748 13-10-2020 12:55:00 9.7 C 8.11 g/m*3 9.02 C 6.4 km/h
2749 13-10-2020 13:00:00 9.8 C 8.07 g/m*3 9.8 C 4.8 km/h
2750 13-10-2020 13:05:00 9.8 C 8.07 g/m*3 9.8 C 3.2 km/h
Sensor: Nr:Datum:Temp:Abs-Feuchte:Windchill:Wind:
Aussen-T/F 2751 13-10-2020 13:10:00 9.9 C 8.12 g/m*3 8.87 C 8.1 km/h
2752 13-10-2020 13:15:00 10 C 8.17 g/m*3 9.37 C 6.4 km/h
2753 13-10-2020 13:20:00 10 C 8.08 g/m*3 9.37 C 6.4 km/h
2754 13-10-2020 13:25:00 10.1 C 8.13 g/m*3 9.48 C 6.4 km/h
2755 13-10-2020 13:30:00 10.2 C 8.18 g/m*3 10.2 C 1.6 km/h
2756 13-10-2020 13:35:00 10.3 C 8.24 g/m*3 10.3 C 1.6 km/h
2757 13-10-2020 13:40:00 10.3 C 8.14 g/m*3 10.3 C 4.8 km/h
2758 13-10-2020 13:45:00 10.4 C 8.19 g/m*3 10.4 C 1.6 km/h
2759 13-10-2020 13:50:00 10.6 C 8.39 g/m*3 10.6 C 1.6 km/h
2760 13-10-2020 13:55:00 10.6 C 8.3 g/m*3 10.6 C 3.2 km/h
2761 13-10-2020 14:00:00 10.6 C 8.2 g/m*3 10.06 C 6.4 km/h
2762 13-10-2020 14:05:00 10.5 C 8.15 g/m*3 9.95 C 6.4 km/h
2763 13-10-2020 14:10:00 10.5 C 8.15 g/m*3 9.95 C 6.4 km/h
2764 13-10-2020 14:15:00 10.5 C 8.15 g/m*3 9.95 C 6.4 km/h
2765 13-10-2020 14:20:00 10.4 C 8.1 g/m*3 9.83 C 6.4 km/h
2766 13-10-2020 14:25:00 10.5 C 8.15 g/m*3 10.5 C 4.8 km/h
2767 13-10-2020 14:30:00 10.6 C 8.2 g/m*3 10.06 C 6.4 km/h
2768 13-10-2020 14:35:00 10.6 C 8.3 g/m*3 10.6 C 3.2 km/h
2769 13-10-2020 14:40:00 10.7 C 8.25 g/m*3 10.18 C 6.4 km/h
2770 13-10-2020 14:45:00 10.7 C 8.15 g/m*3 10.18 C 6.4 km/h
2771 13-10-2020 14:50:00 10.8 C 8.2 g/m*3 10.29 C 6.4 km/h
2772 13-10-2020 14:55:00 10.8 C 8.11 g/m*3 10.8 C 4.8 km/h
2773 13-10-2020 15:00:00 10.9 C 8.26 g/m*3 10.04 C 8.1 km/h
2774 13-10-2020 15:05:00 10.9 C 8.16 g/m*3 10.9 C 4.8 km/h
2775 13-10-2020 15:10:00 11 C 8.21 g/m*3 11 C 1.6 km/h
Sensor: Nr:Datum:Temp:Abs-Feuchte:Windchill:Wind:
Aussen-T/F 2776 13-10-2020 15:15:00 11 C 8.11 g/m*3 11 C 3.2 km/h
2777 13-10-2020 15:20:00 11 C 8.11 g/m*3 10.16 C 8.1 km/h
2778 13-10-2020 15:25:00 10.9 C 8.06 g/m*3 10.9 C 4.8 km/h
2779 13-10-2020 15:30:00 11 C 8.11 g/m*3 11 C 0 km/h
2780 13-10-2020 15:35:00 10.9 C 7.96 g/m*3 10.9 C 4.8 km/h
2781 13-10-2020 15:40:00 10.9 C 8.16 g/m*3 10.9 C 0 km/h
2782 13-10-2020 15:45:00 10.9 C 8.06 g/m*3 10.9 C 3.2 km/h
2783 13-10-2020 15:50:00 10.8 C 8.11 g/m*3 10.8 C 4.8 km/h
2784 13-10-2020 15:55:00 10.8 C 8.11 g/m*3 10.8 C 3.2 km/h
2785 13-10-2020 16:00:00 10.7 C 7.96 g/m*3 10.7 C 1.6 km/h
2786 13-10-2020 16:05:00 10.7 C 8.05 g/m*3 10.7 C 1.6 km/h
2787 13-10-2020 16:10:00 10.7 C 8.15 g/m*3 10.7 C 1.6 km/h
2788 13-10-2020 16:15:00 10.6 C 8.1 g/m*3 10.6 C 0 km/h
2789 13-10-2020 16:20:00 10.6 C 8.1 g/m*3 10.6 C 1.6 km/h
2790 13-10-2020 16:25:00 10.5 C 8.05 g/m*3 10.5 C 3.2 km/h
2791 13-10-2020 16:30:00 10.5 C 8.15 g/m*3 10.5 C 1.6 km/h
2792 13-10-2020 16:35:00 10.5 C 8.05 g/m*3 10.5 C 3.2 km/h
2793 13-10-2020 16:40:00 10.5 C 8.15 g/m*3 10.5 C 3.2 km/h
2794 13-10-2020 16:45:00 10.6 C 8.3 g/m*3 10.6 C 3.2 km/h
2795 13-10-2020 16:50:00 10.6 C 8.2 g/m*3 10.6 C 0 km/h
2796 13-10-2020 16:55:00 10.6 C 8.2 g/m*3 10.6 C 0 km/h
2797 13-10-2020 17:00:00 10.6 C 8.3 g/m*3 10.6 C 0 km/h
2798 13-10-2020 17:05:00 10.6 C 8.3 g/m*3 10.6 C 0 km/h
2799 13-10-2020 17:10:00 10.6 C 8.39 g/m*3 10.6 C 1.6 km/h
2800 13-10-2020 17:15:00 10.5 C 8.34 g/m*3 10.5 C 0 km/h
Sensor: Nr:Datum:Temp:Abs-Feuchte:Windchill:Wind:
Aussen-T/F 2801 13-10-2020 17:20:00 10.5 C 8.34 g/m*3 10.5 C 0 km/h
2802 13-10-2020 17:25:00 10.4 C 8.29 g/m*3 10.4 C 0 km/h
2803 13-10-2020 17:30:00 10.4 C 8.29 g/m*3 10.4 C 0 km/h
2804 13-10-2020 17:35:00 10.3 C 8.24 g/m*3 10.3 C 3.2 km/h
2805 13-10-2020 17:40:00 10.2 C 8.28 g/m*3 10.2 C 0 km/h
2806 13-10-2020 17:45:00 10.1 C 8.13 g/m*3 10.1 C 3.2 km/h
2807 13-10-2020 17:50:00 9.9 C 8.03 g/m*3 9.9 C 1.6 km/h
2808 13-10-2020 17:55:00 9.8 C 8.07 g/m*3 9.8 C 1.6 km/h
2809 13-10-2020 18:00:00 9.7 C 8.02 g/m*3 9.7 C 4.8 km/h
2810 13-10-2020 18:05:00 9.5 C 7.92 g/m*3 9.5 C 4.8 km/h
2811 13-10-2020 18:10:00 9.3 C 7.82 g/m*3 9.3 C 4.8 km/h
2812 13-10-2020 18:15:00 9.2 C 7.86 g/m*3 9.2 C 1.6 km/h
2813 13-10-2020 18:20:00 9.1 C 7.81 g/m*3 9.1 C 0 km/h
2814 13-10-2020 18:25:00 8.9 C 7.71 g/m*3 8.9 C 1.6 km/h
2815 13-10-2020 18:30:00 8.7 C 7.61 g/m*3 8.7 C 1.6 km/h
2816 13-10-2020 18:35:00 8.5 C 7.51 g/m*3 8.5 C 3.2 km/h
2817 13-10-2020 18:40:00 8.3 C 7.42 g/m*3 8.3 C 1.6 km/h
2818 13-10-2020 18:45:00 8.1 C 7.41 g/m*3 8.1 C 3.2 km/h
2819 13-10-2020 18:50:00 7.9 C 7.39 g/m*3 7.9 C 4.8 km/h
2820 13-10-2020 18:55:00 7.8 C 7.35 g/m*3 7.8 C 1.6 km/h
2821 13-10-2020 19:00:00 7.7 C 7.3 g/m*3 7.7 C 3.2 km/h
2822 13-10-2020 19:05:00 7.6 C 7.25 g/m*3 7.6 C 1.6 km/h
2823 13-10-2020 19:10:00 7.4 C 7.24 g/m*3 7.4 C 3.2 km/h
2824 13-10-2020 19:15:00 7.4 C 7.24 g/m*3 7.4 C 3.2 km/h
2825 13-10-2020 19:20:00 7.3 C 7.19 g/m*3 7.3 C 0 km/h
Sensor: Nr:Datum:Temp:Abs-Feuchte:Windchill:Wind:
Aussen-T/F 2826 13-10-2020 19:25:00 7.2 C 7.22 g/m*3 7.2 C 0 km/h
2827 13-10-2020 19:30:00 7.2 C 7.22 g/m*3 7.2 C 0 km/h
2828 13-10-2020 19:35:00 7.1 C 7.18 g/m*3 7.1 C 0 km/h
2829 13-10-2020 19:40:00 7 C 7.13 g/m*3 7 C 1.6 km/h
2830 13-10-2020 19:45:00 6.9 C 7.08 g/m*3 6.9 C 1.6 km/h
2831 13-10-2020 19:50:00 6.8 C 7.04 g/m*3 6.8 C 0 km/h
2832 13-10-2020 19:55:00 6.7 C 7.07 g/m*3 6.7 C 0 km/h
2833 13-10-2020 20:00:00 6.7 C 7.07 g/m*3 6.7 C 0 km/h
2834 13-10-2020 20:05:00 6.6 C 7.02 g/m*3 6.6 C 0 km/h
2835 13-10-2020 20:10:00 6.5 C 6.97 g/m*3 6.5 C 0 km/h
2836 13-10-2020 20:15:00 6.5 C 6.97 g/m*3 6.5 C 1.6 km/h
2837 13-10-2020 20:20:00 6.4 C 6.93 g/m*3 6.4 C 0 km/h
2838 13-10-2020 20:25:00 6.4 C 7 g/m*3 6.4 C 0 km/h
2839 13-10-2020 20:30:00 6.4 C 7 g/m*3 6.4 C 0 km/h
2840 13-10-2020 20:35:00 6.4 C 7 g/m*3 6.4 C 0 km/h
2841 13-10-2020 20:40:00 6.3 C 6.96 g/m*3 6.3 C 3.2 km/h
2842 13-10-2020 20:45:00 6.3 C 6.96 g/m*3 6.3 C 0 km/h
2843 13-10-2020 20:50:00 6.2 C 6.91 g/m*3 6.2 C 1.6 km/h
2844 13-10-2020 20:55:00 6.2 C 6.91 g/m*3 6.2 C 1.6 km/h
2845 13-10-2020 21:00:00 6.1 C 6.87 g/m*3 6.1 C 0 km/h
2846 13-10-2020 21:05:00 6.1 C 6.87 g/m*3 6.1 C 0 km/h
2847 13-10-2020 21:10:00 6 C 6.82 g/m*3 6 C 0 km/h
2848 13-10-2020 21:15:00 5.9 C 6.78 g/m*3 5.9 C 0 km/h
2849 13-10-2020 21:20:00 5.9 C 6.78 g/m*3 5.9 C 0 km/h
2850 13-10-2020 21:25:00 5.8 C 6.73 g/m*3 5.8 C 3.2 km/h
Sensor: Nr:Datum:Temp:Abs-Feuchte:Windchill:Wind:
Aussen-T/F 2851 13-10-2020 21:30:00 5.8 C 6.73 g/m*3 5.8 C 4.8 km/h
2852 13-10-2020 21:35:00 5.8 C 6.81 g/m*3 5.8 C 4.8 km/h
2853 13-10-2020 21:40:00 5.8 C 6.81 g/m*3 5.8 C 0 km/h
2854 13-10-2020 21:45:00 5.9 C 6.85 g/m*3 5.9 C 3.2 km/h
2855 13-10-2020 21:50:00 5.8 C 6.81 g/m*3 5.8 C 4.8 km/h
2856 13-10-2020 21:55:00 5.8 C 6.73 g/m*3 5.8 C 0 km/h
2857 13-10-2020 22:00:00 5.7 C 6.69 g/m*3 5.7 C 0 km/h
2858 13-10-2020 22:05:00 5.6 C 6.72 g/m*3 5.6 C 3.2 km/h
2859 13-10-2020 22:10:00 5.6 C 6.72 g/m*3 5.6 C 3.2 km/h
2860 13-10-2020 22:15:00 5.5 C 6.67 g/m*3 5.5 C 3.2 km/h
2861 13-10-2020 22:20:00 5.4 C 6.63 g/m*3 5.4 C 4.8 km/h
2862 13-10-2020 22:25:00 5.4 C 6.63 g/m*3 5.4 C 4.8 km/h
2863 13-10-2020 22:30:00 5.3 C 6.58 g/m*3 5.3 C 3.2 km/h
2864 13-10-2020 22:35:00 5.3 C 6.58 g/m*3 5.3 C 0 km/h
2865 13-10-2020 22:40:00 5.2 C 6.54 g/m*3 5.2 C 3.2 km/h
2866 13-10-2020 22:45:00 5.2 C 6.54 g/m*3 5.2 C 4.8 km/h
2867 13-10-2020 22:50:00 5.1 C 6.5 g/m*3 5.1 C 0 km/h
2868 13-10-2020 22:55:00 5.1 C 6.5 g/m*3 5.1 C 1.6 km/h
2869 13-10-2020 23:00:00 5.1 C 6.5 g/m*3 5.1 C 0 km/h
2870 13-10-2020 23:05:00 5.1 C 6.5 g/m*3 5.1 C 0 km/h
2871 13-10-2020 23:10:00 5 C 6.46 g/m*3 5 C 0 km/h
2872 13-10-2020 23:15:00 5 C 6.46 g/m*3 5 C 0 km/h
2873 13-10-2020 23:20:00 5 C 6.46 g/m*3 5 C 1.6 km/h
2874 13-10-2020 23:25:00 4.9 C 6.41 g/m*3 4.9 C 0 km/h
2875 13-10-2020 23:30:00 4.9 C 6.41 g/m*3 4.9 C 0 km/h
Sensor: Nr:Datum:Temp:Abs-Feuchte:Windchill:Wind:
Aussen-T/F 2876 13-10-2020 23:35:00 4.9 C 6.41 g/m*3 4.9 C 0 km/h
2877 13-10-2020 23:40:00 4.9 C 6.41 g/m*3 4.9 C 0 km/h
2878 13-10-2020 23:45:00 4.9 C 6.41 g/m*3 4.9 C 0 km/h
2879 13-10-2020 23:50:00 5 C 6.46 g/m*3 5 C 0 km/h
2880 13-10-2020 23:55:00 5.1 C 6.5 g/m*3 5.1 C 0 km/h
2881 14-10-2020 00:00:00 5.1 C 6.57 g/m*3 5.1 C 0 km/h
2882 14-10-2020 00:05:00 5.1 C 6.57 g/m*3 5.1 C 0 km/h
2883 14-10-2020 00:10:00 5.2 C 6.61 g/m*3 5.2 C 0 km/h
2884 14-10-2020 00:15:00 5.2 C 6.61 g/m*3 5.2 C 0 km/h
2885 14-10-2020 00:20:00 5.2 C 6.61 g/m*3 5.2 C 0 km/h
2886 14-10-2020 00:25:00 5.3 C 6.65 g/m*3 5.3 C 0 km/h
2887 14-10-2020 00:30:00 5.3 C 6.65 g/m*3 5.3 C 0 km/h
2888 14-10-2020 00:35:00 5.3 C 6.65 g/m*3 5.3 C 0 km/h
2889 14-10-2020 00:40:00 5.4 C 6.7 g/m*3 5.4 C 0 km/h
2890 14-10-2020 00:45:00 5.4 C 6.7 g/m*3 5.4 C 0 km/h
2891 14-10-2020 00:50:00 5.4 C 6.7 g/m*3 5.4 C 0 km/h
2892 14-10-2020 00:55:00 5.4 C 6.7 g/m*3 5.4 C 0 km/h
2893 14-10-2020 01:00:00 5.3 C 6.65 g/m*3 5.3 C 0 km/h
2894 14-10-2020 01:05:00 5.3 C 6.65 g/m*3 5.3 C 0 km/h
2895 14-10-2020 01:10:00 5.3 C 6.65 g/m*3 5.3 C 0 km/h
2896 14-10-2020 01:15:00 5.2 C 6.61 g/m*3 5.2 C 0 km/h
2897 14-10-2020 01:20:00 5.1 C 6.57 g/m*3 5.1 C 0 km/h
2898 14-10-2020 01:25:00 5.1 C 6.5 g/m*3 5.1 C 0 km/h
2899 14-10-2020 01:30:00 4.9 C 6.41 g/m*3 4.9 C 0 km/h
2900 14-10-2020 01:35:00 4.9 C 6.48 g/m*3 4.9 C 0 km/h
Sensor: Nr:Datum:Temp:Abs-Feuchte:Windchill:Wind:
Aussen-T/F 2901 14-10-2020 01:40:00 4.8 C 6.44 g/m*3 4.8 C 0 km/h
2902 14-10-2020 01:45:00 4.8 C 6.44 g/m*3 4.8 C 0 km/h
2903 14-10-2020 01:50:00 4.8 C 6.44 g/m*3 4.8 C 0 km/h
2904 14-10-2020 01:55:00 4.9 C 6.48 g/m*3 4.9 C 0 km/h
2905 14-10-2020 02:00:00 4.9 C 6.48 g/m*3 4.9 C 0 km/h
2906 14-10-2020 02:05:00 4.9 C 6.48 g/m*3 4.9 C 0 km/h
2907 14-10-2020 02:10:00 4.9 C 6.48 g/m*3 4.9 C 0 km/h
2908 14-10-2020 02:15:00 4.8 C 6.44 g/m*3 4.8 C 0 km/h
2909 14-10-2020 02:20:00 4.8 C 6.44 g/m*3 4.8 C 0 km/h
2910 14-10-2020 02:25:00 4.8 C 6.44 g/m*3 4.8 C 0 km/h
2911 14-10-2020 02:30:00 4.8 C 6.44 g/m*3 4.8 C 0 km/h
2912 14-10-2020 02:35:00 4.9 C 6.48 g/m*3 4.9 C 0 km/h
2913 14-10-2020 02:40:00 4.9 C 6.48 g/m*3 4.9 C 0 km/h
2914 14-10-2020 02:45:00 4.8 C 6.44 g/m*3 4.8 C 0 km/h
2915 14-10-2020 02:50:00 4.8 C 6.44 g/m*3 4.8 C 0 km/h
2916 14-10-2020 02:55:00 4.7 C 6.39 g/m*3 4.7 C 0 km/h
2917 14-10-2020 03:00:00 4.7 C 6.39 g/m*3 4.7 C 0 km/h
2918 14-10-2020 03:05:00 4.6 C 6.35 g/m*3 4.6 C 0 km/h
2919 14-10-2020 03:10:00 4.6 C 6.35 g/m*3 4.6 C 0 km/h
2920 14-10-2020 03:15:00 4.5 C 6.31 g/m*3 4.5 C 0 km/h
2921 14-10-2020 03:20:00 4.4 C 6.27 g/m*3 4.4 C 0 km/h
2922 14-10-2020 03:25:00 4.3 C 6.23 g/m*3 4.3 C 0 km/h
2923 14-10-2020 03:30:00 4.2 C 6.19 g/m*3 4.2 C 0 km/h
2924 14-10-2020 03:35:00 4.1 C 6.14 g/m*3 4.1 C 0 km/h
2925 14-10-2020 03:40:00 4.1 C 6.14 g/m*3 4.1 C 0 km/h
Sensor: Nr:Datum:Temp:Abs-Feuchte:Windchill:Wind:
Aussen-T/F 2926 14-10-2020 03:45:00 3.9 C 6.06 g/m*3 3.9 C 0 km/h
2927 14-10-2020 03:50:00 3.8 C 6.02 g/m*3 3.8 C 0 km/h
2928 14-10-2020 03:55:00 3.8 C 6.02 g/m*3 3.8 C 0 km/h
2929 14-10-2020 04:00:00 3.7 C 5.98 g/m*3 3.7 C 0 km/h
2930 14-10-2020 04:05:00 3.7 C 5.98 g/m*3 3.7 C 0 km/h
2931 14-10-2020 04:10:00 3.7 C 5.98 g/m*3 3.7 C 0 km/h
2932 14-10-2020 04:15:00 3.7 C 5.98 g/m*3 3.7 C 0 km/h
2933 14-10-2020 04:20:00 3.6 C 5.94 g/m*3 3.6 C 0 km/h
2934 14-10-2020 04:25:00 3.6 C 5.94 g/m*3 3.6 C 0 km/h
2935 14-10-2020 04:30:00 3.6 C 5.94 g/m*3 3.6 C 0 km/h
2936 14-10-2020 04:35:00 3.5 C 5.9 g/m*3 3.5 C 0 km/h
2937 14-10-2020 04:40:00 3.6 C 5.94 g/m*3 3.6 C 0 km/h
2938 14-10-2020 04:45:00 3.7 C 5.98 g/m*3 3.7 C 0 km/h
2939 14-10-2020 04:50:00 3.8 C 6.02 g/m*3 3.8 C 0 km/h
2940 14-10-2020 04:55:00 3.9 C 6.06 g/m*3 3.9 C 0 km/h
2941 14-10-2020 05:00:00 4.1 C 6.14 g/m*3 4.1 C 0 km/h
2942 14-10-2020 05:05:00 4.1 C 6.14 g/m*3 4.1 C 0 km/h
2943 14-10-2020 05:10:00 4.2 C 6.19 g/m*3 4.2 C 0 km/h
2944 14-10-2020 05:15:00 4.2 C 6.19 g/m*3 4.2 C 0 km/h
2945 14-10-2020 05:20:00 4.3 C 6.23 g/m*3 4.3 C 0 km/h
2946 14-10-2020 05:25:00 4.3 C 6.29 g/m*3 4.3 C 0 km/h
2947 14-10-2020 05:30:00 4.3 C 6.23 g/m*3 4.3 C 0 km/h
2948 14-10-2020 05:35:00 4.3 C 6.23 g/m*3 4.3 C 0 km/h
2949 14-10-2020 05:40:00 4.3 C 6.23 g/m*3 4.3 C 0 km/h
2950 14-10-2020 05:45:00 4.3 C 6.23 g/m*3 4.3 C 0 km/h
Sensor: Nr:Datum:Temp:Abs-Feuchte:Windchill:Wind:
Aussen-T/F 2951 14-10-2020 05:50:00 4.3 C 6.23 g/m*3 4.3 C 0 km/h
2952 14-10-2020 05:55:00 4.3 C 6.23 g/m*3 4.3 C 0 km/h
2953 14-10-2020 06:00:00 4.3 C 6.23 g/m*3 4.3 C 0 km/h
2954 14-10-2020 06:05:00 4.3 C 6.29 g/m*3 4.3 C 0 km/h
2955 14-10-2020 06:10:00 4.4 C 6.33 g/m*3 4.4 C 0 km/h
2956 14-10-2020 06:15:00 4.4 C 6.33 g/m*3 4.4 C 0 km/h
2957 14-10-2020 06:20:00 4.5 C 6.38 g/m*3 4.5 C 0 km/h
2958 14-10-2020 06:25:00 4.6 C 6.42 g/m*3 4.6 C 0 km/h
2959 14-10-2020 06:30:00 4.6 C 6.42 g/m*3 4.6 C 0 km/h
2960 14-10-2020 06:35:00 4.7 C 6.46 g/m*3 4.7 C 0 km/h
2961 14-10-2020 06:40:00 4.7 C 6.46 g/m*3 4.7 C 0 km/h
2962 14-10-2020 06:45:00 4.7 C 6.46 g/m*3 4.7 C 0 km/h
2963 14-10-2020 06:50:00 4.8 C 6.5 g/m*3 4.8 C 0 km/h
2964 14-10-2020 06:55:00 4.8 C 6.5 g/m*3 4.8 C 0 km/h
2965 14-10-2020 07:00:00 4.8 C 6.5 g/m*3 4.8 C 0 km/h
2966 14-10-2020 07:05:00 4.8 C 6.5 g/m*3 4.8 C 0 km/h
2967 14-10-2020 07:10:00 4.8 C 6.5 g/m*3 4.8 C 0 km/h
2968 14-10-2020 07:15:00 4.8 C 6.5 g/m*3 4.8 C 0 km/h
2969 14-10-2020 07:20:00 4.8 C 6.5 g/m*3 4.8 C 0 km/h
2970 14-10-2020 07:25:00 4.8 C 6.5 g/m*3 4.8 C 0 km/h
2971 14-10-2020 07:30:00 4.8 C 6.5 g/m*3 4.8 C 0 km/h
2972 14-10-2020 07:35:00 4.8 C 6.5 g/m*3 4.8 C 0 km/h
2973 14-10-2020 07:40:00 4.8 C 6.5 g/m*3 4.8 C 0 km/h
2974 14-10-2020 07:45:00 4.8 C 6.5 g/m*3 4.8 C 0 km/h
2975 14-10-2020 07:50:00 4.8 C 6.5 g/m*3 4.8 C 1.6 km/h
Sensor: Nr:Datum:Temp:Abs-Feuchte:Windchill:Wind:
Aussen-T/F 2976 14-10-2020 07:55:00 4.8 C 6.5 g/m*3 4.8 C 0 km/h
2977 14-10-2020 08:00:00 4.8 C 6.5 g/m*3 4.8 C 0 km/h
2978 14-10-2020 08:05:00 4.8 C 6.5 g/m*3 4.8 C 0 km/h
2979 14-10-2020 08:10:00 4.8 C 6.5 g/m*3 4.8 C 0 km/h
2980 14-10-2020 08:15:00 4.8 C 6.5 g/m*3 4.8 C 0 km/h
2981 14-10-2020 08:20:00 4.8 C 6.5 g/m*3 4.8 C 0 km/h
2982 14-10-2020 08:25:00 4.8 C 6.5 g/m*3 4.8 C 0 km/h
2983 14-10-2020 08:30:00 4.9 C 6.55 g/m*3 4.9 C 0 km/h
2984 14-10-2020 08:35:00 5 C 6.59 g/m*3 5 C 0 km/h
2985 14-10-2020 08:40:00 5.1 C 6.63 g/m*3 5.1 C 0 km/h
2986 14-10-2020 08:45:00 5.2 C 6.68 g/m*3 5.2 C 0 km/h
2987 14-10-2020 08:50:00 5.2 C 6.68 g/m*3 5.2 C 0 km/h
2988 14-10-2020 08:55:00 5.3 C 6.72 g/m*3 5.3 C 0 km/h
2989 14-10-2020 09:00:00 5.4 C 6.77 g/m*3 5.4 C 0 km/h
2990 14-10-2020 09:05:00 5.5 C 6.81 g/m*3 5.5 C 0 km/h
2991 14-10-2020 09:10:00 5.6 C 6.86 g/m*3 5.6 C 0 km/h
2992 14-10-2020 09:15:00 5.7 C 6.9 g/m*3 5.7 C 0 km/h
2993 14-10-2020 09:20:00 5.7 C 6.9 g/m*3 5.7 C 0 km/h
2994 14-10-2020 09:25:00 5.8 C 6.95 g/m*3 5.8 C 0 km/h
2995 14-10-2020 09:30:00 5.9 C 6.99 g/m*3 5.9 C 0 km/h
2996 14-10-2020 09:35:00 6.1 C 7.09 g/m*3 6.1 C 0 km/h
2997 14-10-2020 09:40:00 6.2 C 7.13 g/m*3 6.2 C 0 km/h
2998 14-10-2020 09:45:00 6.4 C 7.23 g/m*3 6.4 C 0 km/h
2999 14-10-2020 09:50:00 6.4 C 7.23 g/m*3 6.4 C 1.6 km/h
3000 14-10-2020 09:55:00 6.4 C 7.23 g/m*3 6.4 C 0 km/h
Sensor: Nr:Datum:Temp:Abs-Feuchte:Windchill:Wind:
Aussen-T/F 3001 14-10-2020 10:00:00 6.5 C 7.27 g/m*3 6.5 C 0 km/h
3002 14-10-2020 10:05:00 6.6 C 7.32 g/m*3 6.6 C 0 km/h
3003 14-10-2020 10:10:00 6.7 C 7.37 g/m*3 6.7 C 0 km/h
3004 14-10-2020 10:15:00 6.8 C 7.42 g/m*3 6.8 C 1.6 km/h
3005 14-10-2020 10:20:00 6.9 C 7.47 g/m*3 6.9 C 0 km/h
3006 14-10-2020 10:25:00 7.1 C 7.57 g/m*3 7.1 C 0 km/h
3007 14-10-2020 10:30:00 7.2 C 7.61 g/m*3 7.2 C 0 km/h
3008 14-10-2020 10:35:00 7.3 C 7.66 g/m*3 7.3 C 0 km/h
3009 14-10-2020 10:40:00 7.4 C 7.71 g/m*3 7.4 C 0 km/h
3010 14-10-2020 10:45:00 7.4 C 7.71 g/m*3 7.4 C 0 km/h
3011 14-10-2020 10:50:00 7.4 C 7.71 g/m*3 7.4 C 0 km/h
3012 14-10-2020 10:55:00 7.5 C 7.76 g/m*3 7.5 C 4.8 km/h
3013 14-10-2020 11:00:00 7.6 C 7.81 g/m*3 7.6 C 1.6 km/h
3014 14-10-2020 11:05:00 7.7 C 7.87 g/m*3 7.7 C 1.6 km/h
3015 14-10-2020 11:10:00 7.8 C 7.92 g/m*3 7.8 C 0 km/h
3016 14-10-2020 11:15:00 7.8 C 7.92 g/m*3 7.8 C 0 km/h
3017 14-10-2020 11:20:00 7.9 C 7.97 g/m*3 7.9 C 0 km/h
3018 14-10-2020 11:25:00 8.1 C 8.07 g/m*3 8.1 C 3.2 km/h
3019 14-10-2020 11:30:00 8.1 C 8.07 g/m*3 8.1 C 0 km/h
3020 14-10-2020 11:35:00 8.2 C 8.04 g/m*3 8.2 C 0 km/h
3021 14-10-2020 11:40:00 8.3 C 8.09 g/m*3 8.3 C 0 km/h
3022 14-10-2020 11:45:00 8.4 C 8.14 g/m*3 8.4 C 0 km/h
3023 14-10-2020 11:50:00 8.6 C 8.25 g/m*3 8.6 C 1.6 km/h
3024 14-10-2020 11:55:00 8.7 C 8.22 g/m*3 8.7 C 3.2 km/h
3025 14-10-2020 12:00:00 8.7 C 8.22 g/m*3 8.7 C 0 km/h
Sensor: Nr:Datum:Temp:Abs-Feuchte:Windchill:Wind:
Aussen-T/F 3026 14-10-2020 12:05:00 8.7 C 8.13 g/m*3 8.7 C 3.2 km/h
3027 14-10-2020 12:10:00 8.8 C 8.18 g/m*3 8.8 C 4.8 km/h
3028 14-10-2020 12:15:00 8.8 C 8.09 g/m*3 7.98 C 6.4 km/h
3029 14-10-2020 12:20:00 8.9 C 8.15 g/m*3 7.69 C 8.1 km/h
3030 14-10-2020 12:25:00 9 C 8.11 g/m*3 9 C 3.2 km/h
3031 14-10-2020 12:30:00 9.1 C 8.16 g/m*3 9.1 C 1.6 km/h
3032 14-10-2020 12:35:00 9.3 C 8.27 g/m*3 8.56 C 6.4 km/h
3033 14-10-2020 12:40:00 9.4 C 8.32 g/m*3 9.4 C 3.2 km/h
3034 14-10-2020 12:45:00 9.5 C 8.28 g/m*3 9.5 C 1.6 km/h
3035 14-10-2020 12:50:00 9.7 C 8.39 g/m*3 9.7 C 4.8 km/h
3036 14-10-2020 12:55:00 9.7 C 8.3 g/m*3 9.02 C 6.4 km/h
3037 14-10-2020 13:00:00 9.9 C 8.4 g/m*3 8.87 C 8.1 km/h
3038 14-10-2020 13:05:00 10 C 8.36 g/m*3 10 C 1.6 km/h
3039 14-10-2020 13:10:00 10.1 C 8.32 g/m*3 8.8 C 9.7 km/h
3040 14-10-2020 13:15:00 10.2 C 8.37 g/m*3 10.2 C 1.6 km/h
3041 14-10-2020 13:20:00 10.4 C 8.48 g/m*3 9.83 C 6.4 km/h
3042 14-10-2020 13:25:00 10.5 C 8.44 g/m*3 9.95 C 6.4 km/h
3043 14-10-2020 13:30:00 10.6 C 8.49 g/m*3 10.06 C 6.4 km/h
3044 14-10-2020 13:35:00 10.7 C 8.45 g/m*3 10.7 C 4.8 km/h
3045 14-10-2020 13:40:00 10.7 C 8.55 g/m*3 10.7 C 3.2 km/h
3046 14-10-2020 13:45:00 10.9 C 8.55 g/m*3 10.9 C 3.2 km/h
3047 14-10-2020 13:50:00 11 C 8.51 g/m*3 11 C 3.2 km/h
3048 14-10-2020 13:55:00 11.2 C 8.62 g/m*3 11.2 C 4.8 km/h
3049 14-10-2020 14:00:00 11.2 C 8.51 g/m*3 11.2 C 4.8 km/h
3050 14-10-2020 14:05:00 11.3 C 8.47 g/m*3 11.3 C 8.1 km/h
Sensor: Nr:Datum:Temp:Abs-Feuchte:Windchill:Wind:
Aussen-T/F 3051 14-10-2020 14:10:00 11.3 C 8.47 g/m*3 11.3 C 9.7 km/h
3052 14-10-2020 14:15:00 11.3 C 8.47 g/m*3 11.3 C 11.3 km/h
3053 14-10-2020 14:20:00 11.4 C 8.52 g/m*3 11.4 C 11.3 km/h
3054 14-10-2020 14:25:00 11.5 C 8.57 g/m*3 11.5 C 6.4 km/h
3055 14-10-2020 14:30:00 11.6 C 8.52 g/m*3 11.6 C 6.4 km/h
3056 14-10-2020 14:35:00 11.7 C 8.47 g/m*3 11.7 C 9.7 km/h
3057 14-10-2020 14:40:00 11.7 C 8.58 g/m*3 11.7 C 6.4 km/h
3058 14-10-2020 14:45:00 11.7 C 8.58 g/m*3 11.7 C 8.1 km/h
3059 14-10-2020 14:50:00 11.7 C 8.58 g/m*3 11.7 C 6.4 km/h
3060 14-10-2020 14:55:00 11.8 C 8.53 g/m*3 11.8 C 11.3 km/h
3061 14-10-2020 15:00:00 11.8 C 8.53 g/m*3 11.8 C 8.1 km/h
3062 14-10-2020 15:05:00 11.7 C 8.47 g/m*3 11.7 C 8.1 km/h
3063 14-10-2020 15:10:00 11.8 C 8.53 g/m*3 11.8 C 6.4 km/h
3064 14-10-2020 15:15:00 11.8 C 8.21 g/m*3 11.8 C 12.9 km/h
3065 14-10-2020 15:20:00 11.8 C 8.1 g/m*3 11.8 C 14.5 km/h
3066 14-10-2020 15:25:00 11.8 C 8 g/m*3 11.8 C 9.7 km/h
3067 14-10-2020 15:30:00 11.8 C 8 g/m*3 11.8 C 9.7 km/h
3068 14-10-2020 15:35:00 11.8 C 8 g/m*3 11.8 C 11.3 km/h
3069 14-10-2020 15:40:00 11.8 C 8 g/m*3 11.8 C 8.1 km/h
3070 14-10-2020 15:45:00 11.8 C 7.89 g/m*3 11.8 C 11.3 km/h
3071 14-10-2020 15:50:00 11.9 C 7.94 g/m*3 11.9 C 9.7 km/h
3072 14-10-2020 15:55:00 11.9 C 7.73 g/m*3 11.9 C 9.7 km/h
3073 14-10-2020 16:00:00 11.9 C 7.63 g/m*3 11.9 C 11.3 km/h
3074 14-10-2020 16:05:00 11.9 C 7.52 g/m*3 11.9 C 9.7 km/h
3075 14-10-2020 16:10:00 11.9 C 7.63 g/m*3 11.9 C 9.7 km/h
Sensor: Nr:Datum:Temp:Abs-Feuchte:Windchill:Wind:
Aussen-T/F 3076 14-10-2020 16:15:00 11.8 C 7.58 g/m*3 11.8 C 9.7 km/h
3077 14-10-2020 16:20:00 11.8 C 7.58 g/m*3 11.8 C 6.4 km/h
3078 14-10-2020 16:25:00 11.7 C 7.53 g/m*3 11.7 C 9.7 km/h
3079 14-10-2020 16:30:00 11.7 C 7.53 g/m*3 11.7 C 11.3 km/h
3080 14-10-2020 16:35:00 11.7 C 7.64 g/m*3 11.7 C 9.7 km/h
3081 14-10-2020 16:40:00 11.6 C 7.59 g/m*3 11.6 C 14.5 km/h
3082 14-10-2020 16:45:00 11.6 C 7.59 g/m*3 11.6 C 11.3 km/h
3083 14-10-2020 16:50:00 11.5 C 7.64 g/m*3 11.5 C 9.7 km/h
3084 14-10-2020 16:55:00 11.4 C 7.49 g/m*3 11.4 C 9.7 km/h
3085 14-10-2020 17:00:00 11.4 C 7.6 g/m*3 11.4 C 8.1 km/h
3086 14-10-2020 17:05:00 11.4 C 7.8 g/m*3 11.4 C 4.8 km/h
3087 14-10-2020 17:10:00 11.4 C 7.7 g/m*3 11.4 C 9.7 km/h
3088 14-10-2020 17:15:00 11.3 C 7.75 g/m*3 11.3 C 4.8 km/h
3089 14-10-2020 17:20:00 11.3 C 7.85 g/m*3 11.3 C 11.3 km/h
3090 14-10-2020 17:25:00 11.3 C 7.75 g/m*3 11.3 C 12.9 km/h
3091 14-10-2020 17:30:00 11.3 C 7.85 g/m*3 11.3 C 8.1 km/h
3092 14-10-2020 17:35:00 11.2 C 7.8 g/m*3 11.2 C 11.3 km/h
3093 14-10-2020 17:40:00 11.2 C 7.8 g/m*3 11.2 C 9.7 km/h
3094 14-10-2020 17:45:00 11.2 C 7.8 g/m*3 11.2 C 9.7 km/h
3095 14-10-2020 17:50:00 11.1 C 7.86 g/m*3 11.1 C 6.4 km/h
3096 14-10-2020 17:55:00 11.1 C 7.86 g/m*3 11.1 C 9.7 km/h
3097 14-10-2020 18:00:00 11.1 C 7.86 g/m*3 11.1 C 9.7 km/h
3098 14-10-2020 18:05:00 11 C 7.81 g/m*3 9.88 C 9.7 km/h
3099 14-10-2020 18:10:00 10.9 C 7.76 g/m*3 9.28 C 12.9 km/h
3100 14-10-2020 18:15:00 10.9 C 7.66 g/m*3 9.51 C 11.3 km/h
Sensor: Nr:Datum:Temp:Abs-Feuchte:Windchill:Wind:
Aussen-T/F 3101 14-10-2020 18:20:00 10.9 C 7.76 g/m*3 9.51 C 11.3 km/h
3102 14-10-2020 18:25:00 10.8 C 7.71 g/m*3 9.93 C 8.1 km/h
3103 14-10-2020 18:30:00 10.8 C 7.61 g/m*3 9.38 C 11.3 km/h
3104 14-10-2020 18:35:00 10.7 C 7.56 g/m*3 9.81 C 8.1 km/h
3105 14-10-2020 18:40:00 10.7 C 7.66 g/m*3 10.18 C 6.4 km/h
3106 14-10-2020 18:45:00 10.7 C 7.66 g/m*3 10.7 C 4.8 km/h
3107 14-10-2020 18:50:00 10.6 C 7.61 g/m*3 9.4 C 9.7 km/h
3108 14-10-2020 18:55:00 10.6 C 7.71 g/m*3 10.06 C 6.4 km/h
3109 14-10-2020 19:00:00 10.6 C 7.71 g/m*3 9.69 C 8.1 km/h
3110 14-10-2020 19:05:00 10.6 C 7.71 g/m*3 10.06 C 6.4 km/h
3111 14-10-2020 19:10:00 10.5 C 7.76 g/m*3 10.5 C 4.8 km/h
3112 14-10-2020 19:15:00 10.5 C 7.76 g/m*3 10.5 C 3.2 km/h
3113 14-10-2020 19:20:00 10.4 C 7.81 g/m*3 10.4 C 4.8 km/h
3114 14-10-2020 19:25:00 10.4 C 7.81 g/m*3 10.4 C 3.2 km/h
3115 14-10-2020 19:30:00 10.3 C 7.76 g/m*3 10.3 C 4.8 km/h
3116 14-10-2020 19:35:00 10.3 C 7.76 g/m*3 10.3 C 3.2 km/h
3117 14-10-2020 19:40:00 10.2 C 7.71 g/m*3 10.2 C 4.8 km/h
3118 14-10-2020 19:45:00 10.2 C 7.71 g/m*3 10.2 C 4.8 km/h
3119 14-10-2020 19:50:00 10.1 C 7.75 g/m*3 9.48 C 6.4 km/h
3120 14-10-2020 19:55:00 10.1 C 7.75 g/m*3 10.1 C 1.6 km/h
3121 14-10-2020 20:00:00 10.1 C 7.66 g/m*3 9.1 C 8.1 km/h
3122 14-10-2020 20:05:00 10.1 C 7.66 g/m*3 9.1 C 8.1 km/h
3123 14-10-2020 20:10:00 10 C 7.52 g/m*3 8.19 C 12.9 km/h
3124 14-10-2020 20:15:00 10 C 7.61 g/m*3 9.37 C 6.4 km/h
3125 14-10-2020 20:20:00 10 C 7.71 g/m*3 9.37 C 6.4 km/h
Sensor: Nr:Datum:Temp:Abs-Feuchte:Windchill:Wind:
Aussen-T/F 3126 14-10-2020 20:25:00 9.9 C 7.56 g/m*3 8.06 C 12.9 km/h
3127 14-10-2020 20:30:00 9.8 C 7.61 g/m*3 8.45 C 9.7 km/h
3128 14-10-2020 20:35:00 9.8 C 7.7 g/m*3 8.18 C 11.3 km/h
3129 14-10-2020 20:40:00 9.7 C 7.65 g/m*3 8.63 C 8.1 km/h
3130 14-10-2020 20:45:00 9.6 C 7.69 g/m*3 8.52 C 8.1 km/h
3131 14-10-2020 20:50:00 9.6 C 7.69 g/m*3 9.6 C 4.8 km/h
3132 14-10-2020 20:55:00 9.5 C 7.74 g/m*3 9.5 C 1.6 km/h
3133 14-10-2020 21:00:00 9.4 C 7.78 g/m*3 9.4 C 3.2 km/h
3134 14-10-2020 21:05:00 9.3 C 7.73 g/m*3 9.3 C 1.6 km/h
3135 14-10-2020 21:10:00 9.2 C 7.77 g/m*3 9.2 C 1.6 km/h
3136 14-10-2020 21:15:00 9.2 C 7.77 g/m*3 8.45 C 6.4 km/h
3137 14-10-2020 21:20:00 9.1 C 7.63 g/m*3 7.33 C 11.3 km/h
3138 14-10-2020 21:25:00 9.2 C 7.68 g/m*3 8.05 C 8.1 km/h
3139 14-10-2020 21:30:00 9.2 C 7.68 g/m*3 8.45 C 6.4 km/h
3140 14-10-2020 21:35:00 9.3 C 7.73 g/m*3 9.3 C 1.6 km/h
3141 14-10-2020 21:40:00 9.2 C 7.68 g/m*3 9.2 C 4.8 km/h
3142 14-10-2020 21:45:00 9.2 C 7.77 g/m*3 8.45 C 6.4 km/h
3143 14-10-2020 21:50:00 9.2 C 7.77 g/m*3 9.2 C 0 km/h
3144 14-10-2020 21:55:00 9.2 C 7.86 g/m*3 9.2 C 0 km/h
3145 14-10-2020 22:00:00 9.1 C 7.9 g/m*3 9.1 C 4.8 km/h
3146 14-10-2020 22:05:00 8.9 C 7.71 g/m*3 7.09 C 11.3 km/h
3147 14-10-2020 22:10:00 8.9 C 7.71 g/m*3 8.9 C 3.2 km/h
3148 14-10-2020 22:15:00 8.9 C 7.71 g/m*3 8.9 C 4.8 km/h
3149 14-10-2020 22:20:00 8.8 C 7.66 g/m*3 7.98 C 6.4 km/h
3150 14-10-2020 22:25:00 8.9 C 7.71 g/m*3 8.9 C 0 km/h
Sensor: Nr:Datum:Temp:Abs-Feuchte:Windchill:Wind:
Aussen-T/F 3151 14-10-2020 22:30:00 8.8 C 7.75 g/m*3 8.8 C 0 km/h
3152 14-10-2020 22:35:00 8.8 C 7.75 g/m*3 8.8 C 4.8 km/h
3153 14-10-2020 22:40:00 8.7 C 7.7 g/m*3 8.7 C 3.2 km/h
3154 14-10-2020 22:45:00 8.7 C 7.78 g/m*3 8.7 C 3.2 km/h
3155 14-10-2020 22:50:00 8.7 C 7.78 g/m*3 8.7 C 0 km/h
3156 14-10-2020 22:55:00 8.7 C 7.78 g/m*3 8.7 C 0 km/h
3157 14-10-2020 23:00:00 8.6 C 7.82 g/m*3 8.6 C 0 km/h
3158 14-10-2020 23:05:00 8.6 C 7.82 g/m*3 8.6 C 1.6 km/h
3159 14-10-2020 23:10:00 8.6 C 7.82 g/m*3 8.6 C 3.2 km/h
3160 14-10-2020 23:15:00 8.5 C 7.77 g/m*3 8.5 C 0 km/h
3161 14-10-2020 23:20:00 8.4 C 7.8 g/m*3 8.4 C 0 km/h
3162 14-10-2020 23:25:00 8.4 C 7.8 g/m*3 8.4 C 1.6 km/h
3163 14-10-2020 23:30:00 8.4 C 7.8 g/m*3 8.4 C 0 km/h
3164 14-10-2020 23:35:00 8.3 C 7.75 g/m*3 8.3 C 0 km/h
3165 14-10-2020 23:40:00 8.3 C 7.75 g/m*3 8.3 C 1.6 km/h
3166 14-10-2020 23:45:00 8.3 C 7.84 g/m*3 8.3 C 3.2 km/h
3167 14-10-2020 23:50:00 8.3 C 7.84 g/m*3 8.3 C 0 km/h
3168 14-10-2020 23:55:00 8.2 C 7.79 g/m*3 8.2 C 0 km/h
3169 15-10-2020 00:00:00 8.2 C 7.79 g/m*3 8.2 C 0 km/h
3170 15-10-2020 00:05:00 8.2 C 7.79 g/m*3 8.2 C 1.6 km/h
3171 15-10-2020 00:10:00 8.2 C 7.79 g/m*3 8.2 C 0 km/h
3172 15-10-2020 00:15:00 8.2 C 7.87 g/m*3 8.2 C 0 km/h
3173 15-10-2020 00:20:00 8.2 C 7.87 g/m*3 8.2 C 0 km/h
3174 15-10-2020 00:25:00 8.2 C 7.87 g/m*3 8.2 C 1.6 km/h
3175 15-10-2020 00:30:00 8.2 C 7.87 g/m*3 8.2 C 1.6 km/h
Sensor: Nr:Datum:Temp:Abs-Feuchte:Windchill:Wind:
Aussen-T/F 3176 15-10-2020 00:35:00 8.1 C 7.82 g/m*3 8.1 C 3.2 km/h
3177 15-10-2020 00:40:00 8.1 C 7.82 g/m*3 8.1 C 0 km/h
3178 15-10-2020 00:45:00 8.1 C 7.82 g/m*3 8.1 C 0 km/h
3179 15-10-2020 00:50:00 8.1 C 7.82 g/m*3 8.1 C 1.6 km/h
3180 15-10-2020 00:55:00 8.1 C 7.82 g/m*3 8.1 C 0 km/h
3181 15-10-2020 01:00:00 8.1 C 7.82 g/m*3 8.1 C 0 km/h
3182 15-10-2020 01:05:00 8.1 C 7.82 g/m*3 8.1 C 3.2 km/h
3183 15-10-2020 01:10:00 8.1 C 7.82 g/m*3 8.1 C 1.6 km/h
3184 15-10-2020 01:15:00 8.1 C 7.82 g/m*3 8.1 C 0 km/h
3185 15-10-2020 01:20:00 8.1 C 7.82 g/m*3 8.1 C 0 km/h
3186 15-10-2020 01:25:00 8.1 C 7.9 g/m*3 8.1 C 0 km/h
3187 15-10-2020 01:30:00 8.1 C 7.9 g/m*3 8.1 C 3.2 km/h
3188 15-10-2020 01:35:00 8.1 C 7.9 g/m*3 8.1 C 0 km/h
3189 15-10-2020 01:40:00 8.1 C 7.9 g/m*3 8.1 C 3.2 km/h
3190 15-10-2020 01:45:00 8.1 C 7.9 g/m*3 8.1 C 1.6 km/h
3191 15-10-2020 01:50:00 8 C 7.85 g/m*3 8 C 0 km/h
3192 15-10-2020 01:55:00 8 C 7.85 g/m*3 8 C 1.6 km/h
3193 15-10-2020 02:00:00 8 C 7.85 g/m*3 8 C 0 km/h
3194 15-10-2020 02:05:00 8.1 C 7.9 g/m*3 8.1 C 0 km/h
3195 15-10-2020 02:10:00 8.1 C 7.9 g/m*3 8.1 C 0 km/h
3196 15-10-2020 02:15:00 8 C 7.85 g/m*3 8 C 1.6 km/h
3197 15-10-2020 02:20:00 8 C 7.85 g/m*3 8 C 4.8 km/h
3198 15-10-2020 02:25:00 7.9 C 7.8 g/m*3 7.9 C 0 km/h
3199 15-10-2020 02:30:00 7.9 C 7.8 g/m*3 7.9 C 1.6 km/h
3200 15-10-2020 02:35:00 8 C 7.85 g/m*3 8 C 3.2 km/h
Sensor: Nr:Datum:Temp:Abs-Feuchte:Windchill:Wind:
Aussen-T/F 3201 15-10-2020 02:40:00 8 C 7.85 g/m*3 8 C 0 km/h
3202 15-10-2020 02:45:00 7.9 C 7.8 g/m*3 7.9 C 0 km/h
3203 15-10-2020 02:50:00 7.9 C 7.8 g/m*3 7.9 C 0 km/h
3204 15-10-2020 02:55:00 7.9 C 7.8 g/m*3 7.9 C 0 km/h
3205 15-10-2020 03:00:00 7.9 C 7.8 g/m*3 7.9 C 0 km/h
3206 15-10-2020 03:05:00 7.9 C 7.8 g/m*3 7.9 C 0 km/h
3207 15-10-2020 03:10:00 7.9 C 7.8 g/m*3 7.9 C 0 km/h
3208 15-10-2020 03:15:00 7.9 C 7.8 g/m*3 7.9 C 0 km/h
3209 15-10-2020 03:20:00 8 C 7.85 g/m*3 8 C 4.8 km/h
3210 15-10-2020 03:25:00 8 C 7.85 g/m*3 8 C 3.2 km/h
3211 15-10-2020 03:30:00 8 C 7.85 g/m*3 8 C 1.6 km/h
3212 15-10-2020 03:35:00 7.9 C 7.8 g/m*3 7.9 C 3.2 km/h
3213 15-10-2020 03:40:00 8 C 7.85 g/m*3 8 C 0 km/h
3214 15-10-2020 03:45:00 8 C